<?xml version="1.0" encoding="UTF-8" standalone="no" ?>
<gpx xmlns="http://www.topografix.com/GPX/1/1" xmlns:xsi="http://www.w3.org/2001/XMLSchema-instance" xsi:schemaLocation="http://www.topografix.com/GPX/1/1 http://www.topografix.com/GPX/1/1/gpx.xsd" version="1.1" creator="VisuGPX - https://www.visugpx.com">
  <metadata>
    <name>Cote Blanche</name>
    <desc><![CDATA[aller retour]]></desc>
  </metadata>
  <trk>
    <name><![CDATA[Cotes blanches ]]></name>
    <trkseg>
      <trkpt lat="45.11566" lon="4.96429">
        <ele>194.45199584961</ele>
        <time>2009-09-23T11:24:32Z</time>
      </trkpt>
      <trkpt lat="45.11566" lon="4.96429">
        <ele>194.45199584961</ele>
        <time>2009-09-23T11:24:33Z</time>
      </trkpt>
      <trkpt lat="45.11563" lon="4.96448">
        <ele>194.62699890137</ele>
        <time>2009-09-23T11:24:45Z</time>
      </trkpt>
      <trkpt lat="45.1157" lon="4.96455">
        <ele>194.23399353027</ele>
        <time>2009-09-23T11:24:49Z</time>
      </trkpt>
      <trkpt lat="45.11574" lon="4.9645">
        <ele>194.78399658203</ele>
        <time>2009-09-23T11:24:55Z</time>
      </trkpt>
      <trkpt lat="45.11575" lon="4.96451">
        <ele>194.77000427246</ele>
        <time>2009-09-23T11:24:57Z</time>
      </trkpt>
      <trkpt lat="45.11578" lon="4.96457">
        <ele>195.05099487305</ele>
        <time>2009-09-23T11:25:01Z</time>
      </trkpt>
      <trkpt lat="45.11579" lon="4.9648">
        <ele>194.36099243164</ele>
        <time>2009-09-23T11:25:07Z</time>
      </trkpt>
      <trkpt lat="45.11568" lon="4.96479">
        <ele>193.7440032959</ele>
        <time>2009-09-23T11:25:14Z</time>
      </trkpt>
      <trkpt lat="45.11553" lon="4.96452">
        <ele>194.11399841309</ele>
        <time>2009-09-23T11:25:22Z</time>
      </trkpt>
      <trkpt lat="45.11532" lon="4.96418">
        <ele>194.19500732422</ele>
        <time>2009-09-23T11:25:29Z</time>
      </trkpt>
      <trkpt lat="45.11508" lon="4.96381">
        <ele>194.71800231934</ele>
        <time>2009-09-23T11:25:37Z</time>
      </trkpt>
      <trkpt lat="45.1144" lon="4.96274">
        <ele>196.79699707031</ele>
        <time>2009-09-23T11:25:55Z</time>
      </trkpt>
      <trkpt lat="45.11365" lon="4.96124">
        <ele>194.90299987793</ele>
        <time>2009-09-23T11:26:15Z</time>
      </trkpt>
      <trkpt lat="45.11339" lon="4.96074">
        <ele>194.13000488281</ele>
        <time>2009-09-23T11:26:21Z</time>
      </trkpt>
      <trkpt lat="45.11329" lon="4.96058">
        <ele>194.28700256348</ele>
        <time>2009-09-23T11:26:23Z</time>
      </trkpt>
      <trkpt lat="45.1129" lon="4.95992">
        <ele>193.25199890137</ele>
        <time>2009-09-23T11:26:31Z</time>
      </trkpt>
      <trkpt lat="45.11189" lon="4.95836">
        <ele>191.84399414062</ele>
        <time>2009-09-23T11:26:50Z</time>
      </trkpt>
      <trkpt lat="45.11102" lon="4.95687">
        <ele>192.29699707031</ele>
        <time>2009-09-23T11:27:08Z</time>
      </trkpt>
      <trkpt lat="45.11019" lon="4.95598">
        <ele>193.08299255371</ele>
        <time>2009-09-23T11:27:22Z</time>
      </trkpt>
      <trkpt lat="45.10956" lon="4.9547">
        <ele>191.3390045166</ele>
        <time>2009-09-23T11:27:35Z</time>
      </trkpt>
      <trkpt lat="45.1091" lon="4.95306">
        <ele>190.66600036621</ele>
        <time>2009-09-23T11:27:50Z</time>
      </trkpt>
      <trkpt lat="45.10862" lon="4.95161">
        <ele>193.92999267578</ele>
        <time>2009-09-23T11:28:07Z</time>
      </trkpt>
      <trkpt lat="45.10849" lon="4.95097">
        <ele>197.22700500488</ele>
        <time>2009-09-23T11:28:16Z</time>
      </trkpt>
      <trkpt lat="45.10849" lon="4.95041">
        <ele>200.01800537109</ele>
        <time>2009-09-23T11:28:25Z</time>
      </trkpt>
      <trkpt lat="45.10852" lon="4.94989">
        <ele>202.66999816894</ele>
        <time>2009-09-23T11:28:34Z</time>
      </trkpt>
      <trkpt lat="45.10854" lon="4.9496">
        <ele>204.23599243164</ele>
        <time>2009-09-23T11:28:39Z</time>
      </trkpt>
      <trkpt lat="45.10857" lon="4.94913">
        <ele>206.33000183106</ele>
        <time>2009-09-23T11:28:47Z</time>
      </trkpt>
      <trkpt lat="45.10866" lon="4.94842">
        <ele>209.2140045166</ele>
        <time>2009-09-23T11:29:00Z</time>
      </trkpt>
      <trkpt lat="45.10872" lon="4.94828">
        <ele>209.74600219727</ele>
        <time>2009-09-23T11:29:03Z</time>
      </trkpt>
      <trkpt lat="45.10873" lon="4.94804">
        <ele>210.01800537109</ele>
        <time>2009-09-23T11:29:07Z</time>
      </trkpt>
      <trkpt lat="45.10903" lon="4.94694">
        <ele>209.91400146484</ele>
        <time>2009-09-23T11:29:23Z</time>
      </trkpt>
      <trkpt lat="45.10926" lon="4.94596">
        <ele>209.82400512695</ele>
        <time>2009-09-23T11:29:35Z</time>
      </trkpt>
      <trkpt lat="45.10924" lon="4.94443">
        <ele>209.4049987793</ele>
        <time>2009-09-23T11:29:51Z</time>
      </trkpt>
      <trkpt lat="45.10918" lon="4.94346">
        <ele>209.98899841309</ele>
        <time>2009-09-23T11:30:01Z</time>
      </trkpt>
      <trkpt lat="45.10891" lon="4.94279">
        <ele>209.46499633789</ele>
        <time>2009-09-23T11:30:09Z</time>
      </trkpt>
      <trkpt lat="45.10767" lon="4.9413">
        <ele>208.83599853516</ele>
        <time>2009-09-23T11:30:30Z</time>
      </trkpt>
      <trkpt lat="45.10706" lon="4.93998">
        <ele>211.45500183106</ele>
        <time>2009-09-23T11:30:47Z</time>
      </trkpt>
      <trkpt lat="45.10681" lon="4.93836">
        <ele>212.69099426269</ele>
        <time>2009-09-23T11:31:06Z</time>
      </trkpt>
      <trkpt lat="45.10663" lon="4.93677">
        <ele>208.0299987793</ele>
        <time>2009-09-23T11:31:21Z</time>
      </trkpt>
      <trkpt lat="45.10662" lon="4.93664">
        <ele>207.83000183106</ele>
        <time>2009-09-23T11:31:22Z</time>
      </trkpt>
      <trkpt lat="45.10652" lon="4.93599">
        <ele>205.2559967041</ele>
        <time>2009-09-23T11:31:27Z</time>
      </trkpt>
      <trkpt lat="45.10645" lon="4.93558">
        <ele>201.91900634766</ele>
        <time>2009-09-23T11:31:30Z</time>
      </trkpt>
      <trkpt lat="45.10627" lon="4.93469">
        <ele>198.48899841309</ele>
        <time>2009-09-23T11:31:36Z</time>
      </trkpt>
      <trkpt lat="45.10614" lon="4.93409">
        <ele>196.61000061035</ele>
        <time>2009-09-23T11:31:40Z</time>
      </trkpt>
      <trkpt lat="45.10575" lon="4.93205">
        <ele>193.65600585938</ele>
        <time>2009-09-23T11:31:55Z</time>
      </trkpt>
      <trkpt lat="45.10531" lon="4.92977">
        <ele>191.99800109863</ele>
        <time>2009-09-23T11:32:14Z</time>
      </trkpt>
      <trkpt lat="45.10492" lon="4.92769">
        <ele>191.15100097656</ele>
        <time>2009-09-23T11:32:33Z</time>
      </trkpt>
      <trkpt lat="45.10478" lon="4.92713">
        <ele>191.65800476074</ele>
        <time>2009-09-23T11:32:39Z</time>
      </trkpt>
      <trkpt lat="45.10454" lon="4.92573">
        <ele>190.84399414062</ele>
        <time>2009-09-23T11:32:53Z</time>
      </trkpt>
      <trkpt lat="45.10426" lon="4.92417">
        <ele>188.10600280762</ele>
        <time>2009-09-23T11:33:07Z</time>
      </trkpt>
      <trkpt lat="45.10387" lon="4.92199">
        <ele>187.09800720215</ele>
        <time>2009-09-23T11:33:25Z</time>
      </trkpt>
      <trkpt lat="45.1035" lon="4.91989">
        <ele>189.07000732422</ele>
        <time>2009-09-23T11:33:45Z</time>
      </trkpt>
      <trkpt lat="45.10315" lon="4.91787">
        <ele>190.94200134277</ele>
        <time>2009-09-23T11:34:07Z</time>
      </trkpt>
      <trkpt lat="45.10279" lon="4.91756">
        <ele>190.93800354004</ele>
        <time>2009-09-23T11:34:14Z</time>
      </trkpt>
      <trkpt lat="45.10104" lon="4.91784">
        <ele>190.30000305176</ele>
        <time>2009-09-23T11:34:36Z</time>
      </trkpt>
      <trkpt lat="45.099" lon="4.91824">
        <ele>191.92500305176</ele>
        <time>2009-09-23T11:35:01Z</time>
      </trkpt>
      <trkpt lat="45.09717" lon="4.91859">
        <ele>194.35099792481</ele>
        <time>2009-09-23T11:35:24Z</time>
      </trkpt>
      <trkpt lat="45.09641" lon="4.91872">
        <ele>196.32699584961</ele>
        <time>2009-09-23T11:35:34Z</time>
      </trkpt>
      <trkpt lat="45.09563" lon="4.91885">
        <ele>197.69999694824</ele>
        <time>2009-09-23T11:35:44Z</time>
      </trkpt>
      <trkpt lat="45.09494" lon="4.9189">
        <ele>199.27000427246</ele>
        <time>2009-09-23T11:35:53Z</time>
      </trkpt>
      <trkpt lat="45.09393" lon="4.91857">
        <ele>203.11099243164</ele>
        <time>2009-09-23T11:36:08Z</time>
      </trkpt>
      <trkpt lat="45.09298" lon="4.91822">
        <ele>208.53900146484</ele>
        <time>2009-09-23T11:36:24Z</time>
      </trkpt>
      <trkpt lat="45.09214" lon="4.91806">
        <ele>213.4109954834</ele>
        <time>2009-09-23T11:36:38Z</time>
      </trkpt>
      <trkpt lat="45.09181" lon="4.91816">
        <ele>215.35899353027</ele>
        <time>2009-09-23T11:36:44Z</time>
      </trkpt>
      <trkpt lat="45.0906" lon="4.9186">
        <ele>223.08500671387</ele>
        <time>2009-09-23T11:37:05Z</time>
      </trkpt>
      <trkpt lat="45.09007" lon="4.91875">
        <ele>225.38900756836</ele>
        <time>2009-09-23T11:37:14Z</time>
      </trkpt>
      <trkpt lat="45.08868" lon="4.91903">
        <ele>229.59800720215</ele>
        <time>2009-09-23T11:37:35Z</time>
      </trkpt>
      <trkpt lat="45.08732" lon="4.91914">
        <ele>234.21800231934</ele>
        <time>2009-09-23T11:37:56Z</time>
      </trkpt>
      <trkpt lat="45.08596" lon="4.91928">
        <ele>239.33000183106</ele>
        <time>2009-09-23T11:38:18Z</time>
      </trkpt>
      <trkpt lat="45.08472" lon="4.91979">
        <ele>242.92999267578</ele>
        <time>2009-09-23T11:38:39Z</time>
      </trkpt>
      <trkpt lat="45.08353" lon="4.9203">
        <ele>240.95700073242</ele>
        <time>2009-09-23T11:38:56Z</time>
      </trkpt>
      <trkpt lat="45.08271" lon="4.92036">
        <ele>241.57200622559</ele>
        <time>2009-09-23T11:39:06Z</time>
      </trkpt>
      <trkpt lat="45.08256" lon="4.92036">
        <ele>242.22399902344</ele>
        <time>2009-09-23T11:39:08Z</time>
      </trkpt>
      <trkpt lat="45.08218" lon="4.92015">
        <ele>244.25799560547</ele>
        <time>2009-09-23T11:39:14Z</time>
      </trkpt>
      <trkpt lat="45.08208" lon="4.92002">
        <ele>244.66600036621</ele>
        <time>2009-09-23T11:39:16Z</time>
      </trkpt>
      <trkpt lat="45.08196" lon="4.91981">
        <ele>245.51100158691</ele>
        <time>2009-09-23T11:39:19Z</time>
      </trkpt>
      <trkpt lat="45.08164" lon="4.91902">
        <ele>245.94700622559</ele>
        <time>2009-09-23T11:39:29Z</time>
      </trkpt>
      <trkpt lat="45.08092" lon="4.91847">
        <ele>244.53900146484</ele>
        <time>2009-09-23T11:39:40Z</time>
      </trkpt>
      <trkpt lat="45.08015" lon="4.91826">
        <ele>245.59899902344</ele>
        <time>2009-09-23T11:39:50Z</time>
      </trkpt>
      <trkpt lat="45.0799" lon="4.91809">
        <ele>246.77200317383</ele>
        <time>2009-09-23T11:39:54Z</time>
      </trkpt>
      <trkpt lat="45.07915" lon="4.917">
        <ele>251.04200744629</ele>
        <time>2009-09-23T11:40:10Z</time>
      </trkpt>
      <trkpt lat="45.07846" lon="4.91595">
        <ele>248.20500183106</ele>
        <time>2009-09-23T11:40:24Z</time>
      </trkpt>
      <trkpt lat="45.07806" lon="4.91546">
        <ele>245.80000305176</ele>
        <time>2009-09-23T11:40:30Z</time>
      </trkpt>
      <trkpt lat="45.07755" lon="4.91478">
        <ele>242.39599609375</ele>
        <time>2009-09-23T11:40:37Z</time>
      </trkpt>
      <trkpt lat="45.07732" lon="4.91447">
        <ele>240.60800170898</ele>
        <time>2009-09-23T11:40:40Z</time>
      </trkpt>
      <trkpt lat="45.07723" lon="4.91438">
        <ele>240.44900512695</ele>
        <time>2009-09-23T11:40:41Z</time>
      </trkpt>
      <trkpt lat="45.07646" lon="4.91344">
        <ele>236.375</ele>
        <time>2009-09-23T11:40:51Z</time>
      </trkpt>
      <trkpt lat="45.07612" lon="4.9126">
        <ele>231.26300048828</ele>
        <time>2009-09-23T11:40:57Z</time>
      </trkpt>
      <trkpt lat="45.07602" lon="4.9123">
        <ele>229.42300415039</ele>
        <time>2009-09-23T11:40:59Z</time>
      </trkpt>
      <trkpt lat="45.0759" lon="4.91182">
        <ele>226.81799316406</ele>
        <time>2009-09-23T11:41:02Z</time>
      </trkpt>
      <trkpt lat="45.0753" lon="4.91036">
        <ele>226.09800720215</ele>
        <time>2009-09-23T11:41:13Z</time>
      </trkpt>
      <trkpt lat="45.07477" lon="4.91">
        <ele>226.04800415039</ele>
        <time>2009-09-23T11:41:20Z</time>
      </trkpt>
      <trkpt lat="45.07393" lon="4.90996">
        <ele>222.83799743652</ele>
        <time>2009-09-23T11:41:29Z</time>
      </trkpt>
      <trkpt lat="45.07307" lon="4.91007">
        <ele>220.67599487305</ele>
        <time>2009-09-23T11:41:38Z</time>
      </trkpt>
      <trkpt lat="45.07286" lon="4.91005">
        <ele>219.62699890137</ele>
        <time>2009-09-23T11:41:40Z</time>
      </trkpt>
      <trkpt lat="45.07265" lon="4.91006">
        <ele>218.81100463867</ele>
        <time>2009-09-23T11:41:42Z</time>
      </trkpt>
      <trkpt lat="45.07147" lon="4.91009">
        <ele>216.10000610352</ele>
        <time>2009-09-23T11:41:53Z</time>
      </trkpt>
      <trkpt lat="45.0703" lon="4.90986">
        <ele>213.02099609375</ele>
        <time>2009-09-23T11:42:05Z</time>
      </trkpt>
      <trkpt lat="45.0695" lon="4.90968">
        <ele>210.0950012207</ele>
        <time>2009-09-23T11:42:13Z</time>
      </trkpt>
      <trkpt lat="45.06882" lon="4.90947">
        <ele>208.63800048828</ele>
        <time>2009-09-23T11:42:20Z</time>
      </trkpt>
      <trkpt lat="45.06839" lon="4.90951">
        <ele>204.25900268555</ele>
        <time>2009-09-23T11:42:24Z</time>
      </trkpt>
      <trkpt lat="45.06768" lon="4.90967">
        <ele>193.34199523926</ele>
        <time>2009-09-23T11:42:30Z</time>
      </trkpt>
      <trkpt lat="45.06718" lon="4.91024">
        <ele>186.26600646973</ele>
        <time>2009-09-23T11:42:35Z</time>
      </trkpt>
      <trkpt lat="45.06695" lon="4.9107">
        <ele>182.45199584961</ele>
        <time>2009-09-23T11:42:38Z</time>
      </trkpt>
      <trkpt lat="45.06661" lon="4.91096">
        <ele>179.76300048828</ele>
        <time>2009-09-23T11:42:41Z</time>
      </trkpt>
      <trkpt lat="45.06649" lon="4.91096">
        <ele>179.72399902344</ele>
        <time>2009-09-23T11:42:42Z</time>
      </trkpt>
      <trkpt lat="45.0659" lon="4.91092">
        <ele>177.33299255371</ele>
        <time>2009-09-23T11:42:47Z</time>
      </trkpt>
      <trkpt lat="45.06543" lon="4.91094">
        <ele>175.38000488281</ele>
        <time>2009-09-23T11:42:51Z</time>
      </trkpt>
      <trkpt lat="45.06481" lon="4.91066">
        <ele>176.43200683594</ele>
        <time>2009-09-23T11:42:57Z</time>
      </trkpt>
      <trkpt lat="45.06471" lon="4.91061">
        <ele>176.38800048828</ele>
        <time>2009-09-23T11:42:58Z</time>
      </trkpt>
      <trkpt lat="45.06427" lon="4.91035">
        <ele>176.88800048828</ele>
        <time>2009-09-23T11:43:03Z</time>
      </trkpt>
      <trkpt lat="45.06419" lon="4.91028">
        <ele>176.92900085449</ele>
        <time>2009-09-23T11:43:04Z</time>
      </trkpt>
      <trkpt lat="45.06389" lon="4.90997">
        <ele>176.82899475098</ele>
        <time>2009-09-23T11:43:08Z</time>
      </trkpt>
      <trkpt lat="45.06383" lon="4.90988">
        <ele>176.15199279785</ele>
        <time>2009-09-23T11:43:09Z</time>
      </trkpt>
      <trkpt lat="45.06371" lon="4.90966">
        <ele>174.58099365234</ele>
        <time>2009-09-23T11:43:11Z</time>
      </trkpt>
      <trkpt lat="45.06327" lon="4.90934">
        <ele>169.98199462891</ele>
        <time>2009-09-23T11:43:16Z</time>
      </trkpt>
      <trkpt lat="45.06307" lon="4.90933">
        <ele>169.5359954834</ele>
        <time>2009-09-23T11:43:18Z</time>
      </trkpt>
      <trkpt lat="45.06292" lon="4.90901">
        <ele>167.84899902344</ele>
        <time>2009-09-23T11:43:23Z</time>
      </trkpt>
      <trkpt lat="45.06296" lon="4.90867">
        <ele>167.51800537109</ele>
        <time>2009-09-23T11:43:26Z</time>
      </trkpt>
      <trkpt lat="45.06274" lon="4.90821">
        <ele>165.90899658203</ele>
        <time>2009-09-23T11:43:31Z</time>
      </trkpt>
      <trkpt lat="45.06213" lon="4.90774">
        <ele>163.25500488281</ele>
        <time>2009-09-23T11:43:38Z</time>
      </trkpt>
      <trkpt lat="45.06094" lon="4.90682">
        <ele>159.50799560547</ele>
        <time>2009-09-23T11:43:51Z</time>
      </trkpt>
      <trkpt lat="45.06068" lon="4.90662">
        <ele>159.14900207519</ele>
        <time>2009-09-23T11:43:54Z</time>
      </trkpt>
      <trkpt lat="45.0606" lon="4.90647">
        <ele>159.63600158691</ele>
        <time>2009-09-23T11:43:59Z</time>
      </trkpt>
      <trkpt lat="45.06059" lon="4.90638">
        <ele>159.67399597168</ele>
        <time>2009-09-23T11:44:01Z</time>
      </trkpt>
      <trkpt lat="45.06055" lon="4.90629">
        <ele>159.51100158691</ele>
        <time>2009-09-23T11:44:03Z</time>
      </trkpt>
      <trkpt lat="45.06038" lon="4.90614">
        <ele>158.72500610352</ele>
        <time>2009-09-23T11:44:07Z</time>
      </trkpt>
      <trkpt lat="45.05949" lon="4.90561">
        <ele>153.11700439453</ele>
        <time>2009-09-23T11:44:18Z</time>
      </trkpt>
      <trkpt lat="45.0594" lon="4.90553">
        <ele>153.07499694824</ele>
        <time>2009-09-23T11:44:19Z</time>
      </trkpt>
      <trkpt lat="45.05905" lon="4.9052">
        <ele>151.30299377441</ele>
        <time>2009-09-23T11:44:23Z</time>
      </trkpt>
      <trkpt lat="45.05785" lon="4.9041">
        <ele>150.25700378418</ele>
        <time>2009-09-23T11:44:37Z</time>
      </trkpt>
      <trkpt lat="45.05674" lon="4.90294">
        <ele>150.00700378418</ele>
        <time>2009-09-23T11:44:52Z</time>
      </trkpt>
      <trkpt lat="45.05558" lon="4.90186">
        <ele>150.00500488281</ele>
        <time>2009-09-23T11:45:08Z</time>
      </trkpt>
      <trkpt lat="45.05463" lon="4.90108">
        <ele>149.75199890137</ele>
        <time>2009-09-23T11:45:21Z</time>
      </trkpt>
      <trkpt lat="45.05349" lon="4.90003">
        <ele>149.70100402832</ele>
        <time>2009-09-23T11:45:37Z</time>
      </trkpt>
      <trkpt lat="45.05278" lon="4.89869">
        <ele>149.28100585938</ele>
        <time>2009-09-23T11:45:51Z</time>
      </trkpt>
      <trkpt lat="45.05193" lon="4.89748">
        <ele>149.10499572754</ele>
        <time>2009-09-23T11:46:05Z</time>
      </trkpt>
      <trkpt lat="45.05045" lon="4.89633">
        <ele>147.60800170898</ele>
        <time>2009-09-23T11:46:24Z</time>
      </trkpt>
      <trkpt lat="45.04917" lon="4.89544">
        <ele>148.01400756836</ele>
        <time>2009-09-23T11:46:41Z</time>
      </trkpt>
      <trkpt lat="45.04781" lon="4.89464">
        <ele>147.64999389648</ele>
        <time>2009-09-23T11:46:58Z</time>
      </trkpt>
      <trkpt lat="45.04669" lon="4.89352">
        <ele>147.40600585938</ele>
        <time>2009-09-23T11:47:14Z</time>
      </trkpt>
      <trkpt lat="45.04499" lon="4.89176">
        <ele>146.85200500488</ele>
        <time>2009-09-23T11:47:38Z</time>
      </trkpt>
      <trkpt lat="45.04376" lon="4.89071">
        <ele>146.74200439453</ele>
        <time>2009-09-23T11:47:54Z</time>
      </trkpt>
      <trkpt lat="45.04207" lon="4.88933">
        <ele>146.25399780273</ele>
        <time>2009-09-23T11:48:15Z</time>
      </trkpt>
      <trkpt lat="45.04063" lon="4.88809">
        <ele>145.05299377441</ele>
        <time>2009-09-23T11:48:33Z</time>
      </trkpt>
      <trkpt lat="45.03989" lon="4.88729">
        <ele>144.79200744629</ele>
        <time>2009-09-23T11:48:44Z</time>
      </trkpt>
      <trkpt lat="45.03957" lon="4.88688">
        <ele>145.44500732422</ele>
        <time>2009-09-23T11:48:50Z</time>
      </trkpt>
      <trkpt lat="45.03918" lon="4.88708">
        <ele>145.61500549316</ele>
        <time>2009-09-23T11:48:57Z</time>
      </trkpt>
      <trkpt lat="45.03885" lon="4.88726">
        <ele>145.36599731445</ele>
        <time>2009-09-23T11:49:02Z</time>
      </trkpt>
      <trkpt lat="45.03757" lon="4.88847">
        <ele>146.65699768066</ele>
        <time>2009-09-23T11:49:21Z</time>
      </trkpt>
      <trkpt lat="45.03624" lon="4.88974">
        <ele>145.91799926758</ele>
        <time>2009-09-23T11:49:39Z</time>
      </trkpt>
      <trkpt lat="45.03441" lon="4.89149">
        <ele>145.30400085449</ele>
        <time>2009-09-23T11:50:02Z</time>
      </trkpt>
      <trkpt lat="45.03263" lon="4.89312">
        <ele>143.53300476074</ele>
        <time>2009-09-23T11:50:23Z</time>
      </trkpt>
      <trkpt lat="45.03114" lon="4.89449">
        <ele>141.25300598144</ele>
        <time>2009-09-23T11:50:40Z</time>
      </trkpt>
      <trkpt lat="45.02943" lon="4.89605">
        <ele>138.05900573731</ele>
        <time>2009-09-23T11:50:59Z</time>
      </trkpt>
      <trkpt lat="45.02934" lon="4.89613">
        <ele>137.77200317383</ele>
        <time>2009-09-23T11:51:00Z</time>
      </trkpt>
      <trkpt lat="45.02754" lon="4.8977">
        <ele>134.7859954834</ele>
        <time>2009-09-23T11:51:19Z</time>
      </trkpt>
      <trkpt lat="45.02671" lon="4.89844">
        <ele>134.84300231934</ele>
        <time>2009-09-23T11:51:29Z</time>
      </trkpt>
      <trkpt lat="45.02645" lon="4.89899">
        <ele>134.16299438477</ele>
        <time>2009-09-23T11:51:34Z</time>
      </trkpt>
      <trkpt lat="45.02605" lon="4.90123">
        <ele>133.98100280762</ele>
        <time>2009-09-23T11:51:52Z</time>
      </trkpt>
      <trkpt lat="45.02545" lon="4.90388">
        <ele>134.08500671387</ele>
        <time>2009-09-23T11:52:14Z</time>
      </trkpt>
      <trkpt lat="45.02475" lon="4.90701">
        <ele>132.57400512695</ele>
        <time>2009-09-23T11:52:40Z</time>
      </trkpt>
      <trkpt lat="45.02455" lon="4.90801">
        <ele>130.98199462891</ele>
        <time>2009-09-23T11:52:48Z</time>
      </trkpt>
      <trkpt lat="45.02439" lon="4.90872">
        <ele>131.89999389648</ele>
        <time>2009-09-23T11:52:54Z</time>
      </trkpt>
      <trkpt lat="45.02398" lon="4.90916">
        <ele>132.71899414062</ele>
        <time>2009-09-23T11:53:01Z</time>
      </trkpt>
      <trkpt lat="45.0238" lon="4.9093">
        <ele>131.04600524902</ele>
        <time>2009-09-23T11:53:05Z</time>
      </trkpt>
      <trkpt lat="45.02361" lon="4.90989">
        <ele>130.31199645996</ele>
        <time>2009-09-23T11:53:12Z</time>
      </trkpt>
      <trkpt lat="45.02364" lon="4.91049">
        <ele>130.42599487305</ele>
        <time>2009-09-23T11:53:18Z</time>
      </trkpt>
      <trkpt lat="45.0232" lon="4.91204">
        <ele>131.89300537109</ele>
        <time>2009-09-23T11:53:34Z</time>
      </trkpt>
      <trkpt lat="45.02246" lon="4.91412">
        <ele>132.17799377441</ele>
        <time>2009-09-23T11:53:55Z</time>
      </trkpt>
      <trkpt lat="45.02168" lon="4.91543">
        <ele>133.3390045166</ele>
        <time>2009-09-23T11:54:11Z</time>
      </trkpt>
      <trkpt lat="45.02092" lon="4.91704">
        <ele>134.50500488281</ele>
        <time>2009-09-23T11:54:29Z</time>
      </trkpt>
      <trkpt lat="45.02074" lon="4.91756">
        <ele>134.05499267578</ele>
        <time>2009-09-23T11:54:34Z</time>
      </trkpt>
      <trkpt lat="45.02039" lon="4.91803">
        <ele>133.74099731445</ele>
        <time>2009-09-23T11:54:40Z</time>
      </trkpt>
      <trkpt lat="45.01889" lon="4.91893">
        <ele>134.66999816894</ele>
        <time>2009-09-23T11:55:00Z</time>
      </trkpt>
      <trkpt lat="45.01837" lon="4.91943">
        <ele>135.95100402832</ele>
        <time>2009-09-23T11:55:08Z</time>
      </trkpt>
      <trkpt lat="45.01813" lon="4.91974">
        <ele>135.51899719238</ele>
        <time>2009-09-23T11:55:12Z</time>
      </trkpt>
      <trkpt lat="45.01782" lon="4.92013">
        <ele>134.58299255371</ele>
        <time>2009-09-23T11:55:17Z</time>
      </trkpt>
      <trkpt lat="45.0177" lon="4.92057">
        <ele>132.45599365234</ele>
        <time>2009-09-23T11:55:21Z</time>
      </trkpt>
      <trkpt lat="45.01776" lon="4.92141">
        <ele>131.52299499512</ele>
        <time>2009-09-23T11:55:28Z</time>
      </trkpt>
      <trkpt lat="45.01781" lon="4.92207">
        <ele>131.17700195312</ele>
        <time>2009-09-23T11:55:34Z</time>
      </trkpt>
      <trkpt lat="45.01775" lon="4.92355">
        <ele>132.09899902344</ele>
        <time>2009-09-23T11:55:47Z</time>
      </trkpt>
      <trkpt lat="45.01777" lon="4.92578">
        <ele>133.14999389648</ele>
        <time>2009-09-23T11:56:07Z</time>
      </trkpt>
      <trkpt lat="45.01783" lon="4.92699">
        <ele>131.76699829102</ele>
        <time>2009-09-23T11:56:18Z</time>
      </trkpt>
      <trkpt lat="45.01783" lon="4.92731">
        <ele>133.05999755859</ele>
        <time>2009-09-23T11:56:21Z</time>
      </trkpt>
      <trkpt lat="45.01802" lon="4.92877">
        <ele>133.48899841309</ele>
        <time>2009-09-23T11:56:35Z</time>
      </trkpt>
      <trkpt lat="45.01834" lon="4.92976">
        <ele>134.01600646973</ele>
        <time>2009-09-23T11:56:47Z</time>
      </trkpt>
      <trkpt lat="45.01846" lon="4.93013">
        <ele>133.64199829102</ele>
        <time>2009-09-23T11:56:52Z</time>
      </trkpt>
      <trkpt lat="45.01856" lon="4.93051">
        <ele>134.21099853516</ele>
        <time>2009-09-23T11:56:57Z</time>
      </trkpt>
      <trkpt lat="45.01863" lon="4.93074">
        <ele>133.74099731445</ele>
        <time>2009-09-23T11:57:00Z</time>
      </trkpt>
      <trkpt lat="45.01867" lon="4.93104">
        <ele>134.23699951172</ele>
        <time>2009-09-23T11:57:04Z</time>
      </trkpt>
      <trkpt lat="45.01891" lon="4.93217">
        <ele>134.44500732422</ele>
        <time>2009-09-23T11:57:19Z</time>
      </trkpt>
      <trkpt lat="45.01897" lon="4.93249">
        <ele>134.67799377441</ele>
        <time>2009-09-23T11:57:23Z</time>
      </trkpt>
      <trkpt lat="45.01943" lon="4.93378">
        <ele>135.41499328613</ele>
        <time>2009-09-23T11:57:40Z</time>
      </trkpt>
      <trkpt lat="45.01973" lon="4.93468">
        <ele>135.60499572754</ele>
        <time>2009-09-23T11:57:51Z</time>
      </trkpt>
      <trkpt lat="45.01988" lon="4.9354">
        <ele>136.23500061035</ele>
        <time>2009-09-23T11:58:00Z</time>
      </trkpt>
      <trkpt lat="45.01958" lon="4.93583">
        <ele>134.88499450684</ele>
        <time>2009-09-23T11:58:07Z</time>
      </trkpt>
      <trkpt lat="45.01845" lon="4.93684">
        <ele>133.95399475098</ele>
        <time>2009-09-23T11:58:22Z</time>
      </trkpt>
      <trkpt lat="45.0172" lon="4.93793">
        <ele>131.4880065918</ele>
        <time>2009-09-23T11:58:37Z</time>
      </trkpt>
      <trkpt lat="45.0164" lon="4.93864">
        <ele>131.59899902344</ele>
        <time>2009-09-23T11:58:47Z</time>
      </trkpt>
      <trkpt lat="45.01608" lon="4.93891">
        <ele>131.69799804688</ele>
        <time>2009-09-23T11:58:51Z</time>
      </trkpt>
      <trkpt lat="45.01569" lon="4.93917">
        <ele>133.48300170898</ele>
        <time>2009-09-23T11:58:56Z</time>
      </trkpt>
      <trkpt lat="45.01549" lon="4.93921">
        <ele>134.77299499512</ele>
        <time>2009-09-23T11:58:59Z</time>
      </trkpt>
      <trkpt lat="45.01538" lon="4.93909">
        <ele>134.10899353027</ele>
        <time>2009-09-23T11:59:01Z</time>
      </trkpt>
      <trkpt lat="45.01498" lon="4.93784">
        <ele>132.9049987793</ele>
        <time>2009-09-23T11:59:14Z</time>
      </trkpt>
      <trkpt lat="45.01488" lon="4.93735">
        <ele>133.13200378418</ele>
        <time>2009-09-23T11:59:19Z</time>
      </trkpt>
      <trkpt lat="45.01476" lon="4.9367">
        <ele>132.43699645996</ele>
        <time>2009-09-23T11:59:26Z</time>
      </trkpt>
      <trkpt lat="45.01474" lon="4.9364">
        <ele>132.56799316406</ele>
        <time>2009-09-23T11:59:29Z</time>
      </trkpt>
      <trkpt lat="45.01445" lon="4.93525">
        <ele>135.05400085449</ele>
        <time>2009-09-23T11:59:40Z</time>
      </trkpt>
      <trkpt lat="45.01435" lon="4.93504">
        <ele>135.17599487305</ele>
        <time>2009-09-23T11:59:42Z</time>
      </trkpt>
      <trkpt lat="45.01393" lon="4.93389">
        <ele>137.98500061035</ele>
        <time>2009-09-23T11:59:53Z</time>
      </trkpt>
      <trkpt lat="45.01331" lon="4.93267">
        <ele>143.46699523926</ele>
        <time>2009-09-23T12:00:09Z</time>
      </trkpt>
      <trkpt lat="45.01322" lon="4.93256">
        <ele>144.33299255371</ele>
        <time>2009-09-23T12:00:11Z</time>
      </trkpt>
      <trkpt lat="45.01308" lon="4.93241">
        <ele>145.0059967041</ele>
        <time>2009-09-23T12:00:14Z</time>
      </trkpt>
      <trkpt lat="45.01205" lon="4.93185">
        <ele>147.83999633789</ele>
        <time>2009-09-23T12:00:31Z</time>
      </trkpt>
      <trkpt lat="45.01106" lon="4.93096">
        <ele>147.66000366211</ele>
        <time>2009-09-23T12:00:47Z</time>
      </trkpt>
      <trkpt lat="45.01027" lon="4.93008">
        <ele>146.98300170898</ele>
        <time>2009-09-23T12:01:00Z</time>
      </trkpt>
      <trkpt lat="45.00925" lon="4.929">
        <ele>146.27499389648</ele>
        <time>2009-09-23T12:01:15Z</time>
      </trkpt>
      <trkpt lat="45.00792" lon="4.92779">
        <ele>146.40299987793</ele>
        <time>2009-09-23T12:01:33Z</time>
      </trkpt>
      <trkpt lat="45.00763" lon="4.92738">
        <ele>146.14999389648</ele>
        <time>2009-09-23T12:01:38Z</time>
      </trkpt>
      <trkpt lat="45.00732" lon="4.92737">
        <ele>146.12100219727</ele>
        <time>2009-09-23T12:01:43Z</time>
      </trkpt>
      <trkpt lat="45.00728" lon="4.92759">
        <ele>144.81100463867</ele>
        <time>2009-09-23T12:01:45Z</time>
      </trkpt>
      <trkpt lat="45.00688" lon="4.92938">
        <ele>148.41000366211</ele>
        <time>2009-09-23T12:02:02Z</time>
      </trkpt>
      <trkpt lat="45.00672" lon="4.93089">
        <ele>152.38800048828</ele>
        <time>2009-09-23T12:02:18Z</time>
      </trkpt>
      <trkpt lat="45.00663" lon="4.93171">
        <ele>155.16400146484</ele>
        <time>2009-09-23T12:02:28Z</time>
      </trkpt>
      <trkpt lat="45.00651" lon="4.93213">
        <ele>157.64199829102</ele>
        <time>2009-09-23T12:02:34Z</time>
      </trkpt>
      <trkpt lat="45.00642" lon="4.93229">
        <ele>159.10899353027</ele>
        <time>2009-09-23T12:02:37Z</time>
      </trkpt>
      <trkpt lat="45.00623" lon="4.93259">
        <ele>161.18800354004</ele>
        <time>2009-09-23T12:02:43Z</time>
      </trkpt>
      <trkpt lat="45.00616" lon="4.93266">
        <ele>162.08500671387</ele>
        <time>2009-09-23T12:02:45Z</time>
      </trkpt>
      <trkpt lat="45.00555" lon="4.93302">
        <ele>166.13200378418</ele>
        <time>2009-09-23T12:03:01Z</time>
      </trkpt>
      <trkpt lat="45.00477" lon="4.93327">
        <ele>171.19999694824</ele>
        <time>2009-09-23T12:03:20Z</time>
      </trkpt>
      <trkpt lat="45.0041" lon="4.93321">
        <ele>175.82400512695</ele>
        <time>2009-09-23T12:03:38Z</time>
      </trkpt>
      <trkpt lat="45.00364" lon="4.93338">
        <ele>178.8869934082</ele>
        <time>2009-09-23T12:03:51Z</time>
      </trkpt>
      <trkpt lat="45.00311" lon="4.93399">
        <ele>182.93200683594</ele>
        <time>2009-09-23T12:04:08Z</time>
      </trkpt>
      <trkpt lat="45.00261" lon="4.93409">
        <ele>186.13400268555</ele>
        <time>2009-09-23T12:04:21Z</time>
      </trkpt>
      <trkpt lat="45.00203" lon="4.93422">
        <ele>189.13200378418</ele>
        <time>2009-09-23T12:04:36Z</time>
      </trkpt>
      <trkpt lat="45.00127" lon="4.9345">
        <ele>190.94299316406</ele>
        <time>2009-09-23T12:04:53Z</time>
      </trkpt>
      <trkpt lat="45.00029" lon="4.93518">
        <ele>190.97900390625</ele>
        <time>2009-09-23T12:05:09Z</time>
      </trkpt>
      <trkpt lat="44.99875" lon="4.93624">
        <ele>191.77499389648</ele>
        <time>2009-09-23T12:05:29Z</time>
      </trkpt>
      <trkpt lat="44.99693" lon="4.93739">
        <ele>192.52600097656</ele>
        <time>2009-09-23T12:05:50Z</time>
      </trkpt>
      <trkpt lat="44.99497" lon="4.93851">
        <ele>192.12100219727</ele>
        <time>2009-09-23T12:06:11Z</time>
      </trkpt>
      <trkpt lat="44.99369" lon="4.93951">
        <ele>192.70599365234</ele>
        <time>2009-09-23T12:06:26Z</time>
      </trkpt>
      <trkpt lat="44.99243" lon="4.94159">
        <ele>193.55499267578</ele>
        <time>2009-09-23T12:06:47Z</time>
      </trkpt>
      <trkpt lat="44.99237" lon="4.94168">
        <ele>193.49699401856</ele>
        <time>2009-09-23T12:06:48Z</time>
      </trkpt>
      <trkpt lat="44.99206" lon="4.94195">
        <ele>193.69200134277</ele>
        <time>2009-09-23T12:06:52Z</time>
      </trkpt>
      <trkpt lat="44.99144" lon="4.94226">
        <ele>193.35200500488</ele>
        <time>2009-09-23T12:06:59Z</time>
      </trkpt>
      <trkpt lat="44.99106" lon="4.94284">
        <ele>193.01100158691</ele>
        <time>2009-09-23T12:07:05Z</time>
      </trkpt>
      <trkpt lat="44.99042" lon="4.9449">
        <ele>192.56199645996</ele>
        <time>2009-09-23T12:07:22Z</time>
      </trkpt>
      <trkpt lat="44.98947" lon="4.94589">
        <ele>189.91400146484</ele>
        <time>2009-09-23T12:07:34Z</time>
      </trkpt>
      <trkpt lat="44.98819" lon="4.94716">
        <ele>189.11000061035</ele>
        <time>2009-09-23T12:07:49Z</time>
      </trkpt>
      <trkpt lat="44.98753" lon="4.94725">
        <ele>189.38999938965</ele>
        <time>2009-09-23T12:07:56Z</time>
      </trkpt>
      <trkpt lat="44.9869" lon="4.94699">
        <ele>189.10099792481</ele>
        <time>2009-09-23T12:08:03Z</time>
      </trkpt>
      <trkpt lat="44.98643" lon="4.94732">
        <ele>189.38200378418</ele>
        <time>2009-09-23T12:08:09Z</time>
      </trkpt>
      <trkpt lat="44.98637" lon="4.94742">
        <ele>189.37300109863</ele>
        <time>2009-09-23T12:08:10Z</time>
      </trkpt>
      <trkpt lat="44.98581" lon="4.9488">
        <ele>191.92100524902</ele>
        <time>2009-09-23T12:08:25Z</time>
      </trkpt>
      <trkpt lat="44.98523" lon="4.95006">
        <ele>191.84899902344</ele>
        <time>2009-09-23T12:08:39Z</time>
      </trkpt>
      <trkpt lat="44.98413" lon="4.95115">
        <ele>191.86599731445</ele>
        <time>2009-09-23T12:08:55Z</time>
      </trkpt>
      <trkpt lat="44.9837" lon="4.95192">
        <ele>191.13999938965</ele>
        <time>2009-09-23T12:09:03Z</time>
      </trkpt>
      <trkpt lat="44.98332" lon="4.95224">
        <ele>191.30099487305</ele>
        <time>2009-09-23T12:09:08Z</time>
      </trkpt>
      <trkpt lat="44.98166" lon="4.95283">
        <ele>191.94200134277</ele>
        <time>2009-09-23T12:09:28Z</time>
      </trkpt>
      <trkpt lat="44.98123" lon="4.95305">
        <ele>191.91299438477</ele>
        <time>2009-09-23T12:09:33Z</time>
      </trkpt>
      <trkpt lat="44.98075" lon="4.95378">
        <ele>190.88499450684</ele>
        <time>2009-09-23T12:09:41Z</time>
      </trkpt>
      <trkpt lat="44.98012" lon="4.95603">
        <ele>190.40699768066</ele>
        <time>2009-09-23T12:10:00Z</time>
      </trkpt>
      <trkpt lat="44.97972" lon="4.95684">
        <ele>188.97900390625</ele>
        <time>2009-09-23T12:10:08Z</time>
      </trkpt>
      <trkpt lat="44.97882" lon="4.95765">
        <ele>182.5890045166</ele>
        <time>2009-09-23T12:10:18Z</time>
      </trkpt>
      <trkpt lat="44.97824" lon="4.9581">
        <ele>177.60800170898</ele>
        <time>2009-09-23T12:10:23Z</time>
      </trkpt>
      <trkpt lat="44.97769" lon="4.95929">
        <ele>168.90400695801</ele>
        <time>2009-09-23T12:10:30Z</time>
      </trkpt>
      <trkpt lat="44.97767" lon="4.9595">
        <ele>168.125</ele>
        <time>2009-09-23T12:10:31Z</time>
      </trkpt>
      <trkpt lat="44.97754" lon="4.96117">
        <ele>158.13800048828</ele>
        <time>2009-09-23T12:10:39Z</time>
      </trkpt>
      <trkpt lat="44.97742" lon="4.96156">
        <ele>156.42100524902</ele>
        <time>2009-09-23T12:10:41Z</time>
      </trkpt>
      <trkpt lat="44.97726" lon="4.9619">
        <ele>155.00900268555</ele>
        <time>2009-09-23T12:10:43Z</time>
      </trkpt>
      <trkpt lat="44.97663" lon="4.96307">
        <ele>159.64900207519</ele>
        <time>2009-09-23T12:10:52Z</time>
      </trkpt>
      <trkpt lat="44.97643" lon="4.96348">
        <ele>162.2380065918</ele>
        <time>2009-09-23T12:10:58Z</time>
      </trkpt>
      <trkpt lat="44.97624" lon="4.96354">
        <ele>162.31300354004</ele>
        <time>2009-09-23T12:11:01Z</time>
      </trkpt>
      <trkpt lat="44.97592" lon="4.96338">
        <ele>162.24600219727</ele>
        <time>2009-09-23T12:11:06Z</time>
      </trkpt>
      <trkpt lat="44.97515" lon="4.96209">
        <ele>163.08799743652</ele>
        <time>2009-09-23T12:11:21Z</time>
      </trkpt>
      <trkpt lat="44.97499" lon="4.96182">
        <ele>163.03999328613</ele>
        <time>2009-09-23T12:11:24Z</time>
      </trkpt>
      <trkpt lat="44.97448" lon="4.96101">
        <ele>162.89999389648</ele>
        <time>2009-09-23T12:11:33Z</time>
      </trkpt>
      <trkpt lat="44.97418" lon="4.96053">
        <ele>162.52400207519</ele>
        <time>2009-09-23T12:11:38Z</time>
      </trkpt>
      <trkpt lat="44.97391" lon="4.96059">
        <ele>161.53799438477</ele>
        <time>2009-09-23T12:11:43Z</time>
      </trkpt>
      <trkpt lat="44.9738" lon="4.96089">
        <ele>160.4109954834</ele>
        <time>2009-09-23T12:11:46Z</time>
      </trkpt>
      <trkpt lat="44.97361" lon="4.96131">
        <ele>158.72200012207</ele>
        <time>2009-09-23T12:11:50Z</time>
      </trkpt>
      <trkpt lat="44.97306" lon="4.96158">
        <ele>158.01400756836</ele>
        <time>2009-09-23T12:11:57Z</time>
      </trkpt>
      <trkpt lat="44.97297" lon="4.96153">
        <ele>157.67300415039</ele>
        <time>2009-09-23T12:11:58Z</time>
      </trkpt>
      <trkpt lat="44.97269" lon="4.96139">
        <ele>157.03999328613</ele>
        <time>2009-09-23T12:12:01Z</time>
      </trkpt>
      <trkpt lat="44.97236" lon="4.96114">
        <ele>156.33700561523</ele>
        <time>2009-09-23T12:12:05Z</time>
      </trkpt>
      <trkpt lat="44.97179" lon="4.96126">
        <ele>156.67500305176</ele>
        <time>2009-09-23T12:12:12Z</time>
      </trkpt>
      <trkpt lat="44.97173" lon="4.96134">
        <ele>156.68299865723</ele>
        <time>2009-09-23T12:12:13Z</time>
      </trkpt>
      <trkpt lat="44.97156" lon="4.9616">
        <ele>155.65299987793</ele>
        <time>2009-09-23T12:12:16Z</time>
      </trkpt>
      <trkpt lat="44.97099" lon="4.9617">
        <ele>155.07400512695</ele>
        <time>2009-09-23T12:12:23Z</time>
      </trkpt>
      <trkpt lat="44.97078" lon="4.96133">
        <ele>155.22799682617</ele>
        <time>2009-09-23T12:12:27Z</time>
      </trkpt>
      <trkpt lat="44.97031" lon="4.96008">
        <ele>157.15899658203</ele>
        <time>2009-09-23T12:12:41Z</time>
      </trkpt>
      <trkpt lat="44.97012" lon="4.95987">
        <ele>158.16900634766</ele>
        <time>2009-09-23T12:12:48Z</time>
      </trkpt>
      <trkpt lat="44.97002" lon="4.95999">
        <ele>158.13299560547</ele>
        <time>2009-09-23T12:12:52Z</time>
      </trkpt>
      <trkpt lat="44.96968" lon="4.9606">
        <ele>159.69900512695</ele>
        <time>2009-09-23T12:13:02Z</time>
      </trkpt>
      <trkpt lat="44.96925" lon="4.96139">
        <ele>160.88200378418</ele>
        <time>2009-09-23T12:13:14Z</time>
      </trkpt>
      <trkpt lat="44.96893" lon="4.96205">
        <ele>162.45100402832</ele>
        <time>2009-09-23T12:13:23Z</time>
      </trkpt>
      <trkpt lat="44.96849" lon="4.96296">
        <ele>162.36399841309</ele>
        <time>2009-09-23T12:13:36Z</time>
      </trkpt>
      <trkpt lat="44.96781" lon="4.96415">
        <ele>161.41700744629</ele>
        <time>2009-09-23T12:13:50Z</time>
      </trkpt>
      <trkpt lat="44.96669" lon="4.96579">
        <ele>161.55799865723</ele>
        <time>2009-09-23T12:14:10Z</time>
      </trkpt>
      <trkpt lat="44.9661" lon="4.96662">
        <ele>161.47599792481</ele>
        <time>2009-09-23T12:14:20Z</time>
      </trkpt>
      <trkpt lat="44.96571" lon="4.96691">
        <ele>161.18499755859</ele>
        <time>2009-09-23T12:14:25Z</time>
      </trkpt>
      <trkpt lat="44.96467" lon="4.96758">
        <ele>161.30099487305</ele>
        <time>2009-09-23T12:14:38Z</time>
      </trkpt>
      <trkpt lat="44.96326" lon="4.96853">
        <ele>161.82699584961</ele>
        <time>2009-09-23T12:14:56Z</time>
      </trkpt>
      <trkpt lat="44.96297" lon="4.9688">
        <ele>161.78399658203</ele>
        <time>2009-09-23T12:15:00Z</time>
      </trkpt>
      <trkpt lat="44.96279" lon="4.96915">
        <ele>161.70700073242</ele>
        <time>2009-09-23T12:15:04Z</time>
      </trkpt>
      <trkpt lat="44.96184" lon="4.97038">
        <ele>162.42799377441</ele>
        <time>2009-09-23T12:15:19Z</time>
      </trkpt>
      <trkpt lat="44.96117" lon="4.97088">
        <ele>163.7619934082</ele>
        <time>2009-09-23T12:15:28Z</time>
      </trkpt>
      <trkpt lat="44.96064" lon="4.97102">
        <ele>164.91900634766</ele>
        <time>2009-09-23T12:15:35Z</time>
      </trkpt>
      <trkpt lat="44.96058" lon="4.9711">
        <ele>164.70700073242</ele>
        <time>2009-09-23T12:15:36Z</time>
      </trkpt>
      <trkpt lat="44.96024" lon="4.9714">
        <ele>164.56700134277</ele>
        <time>2009-09-23T12:15:41Z</time>
      </trkpt>
      <trkpt lat="44.95848" lon="4.97204">
        <ele>163.62199401856</ele>
        <time>2009-09-23T12:16:01Z</time>
      </trkpt>
      <trkpt lat="44.95685" lon="4.97264">
        <ele>162.64599609375</ele>
        <time>2009-09-23T12:16:19Z</time>
      </trkpt>
      <trkpt lat="44.95537" lon="4.97317">
        <ele>162.92399597168</ele>
        <time>2009-09-23T12:16:36Z</time>
      </trkpt>
      <trkpt lat="44.95464" lon="4.97346">
        <ele>162.04899597168</ele>
        <time>2009-09-23T12:16:44Z</time>
      </trkpt>
      <trkpt lat="44.95423" lon="4.97398">
        <ele>161.62300109863</ele>
        <time>2009-09-23T12:16:50Z</time>
      </trkpt>
      <trkpt lat="44.95364" lon="4.97565">
        <ele>163.74899291992</ele>
        <time>2009-09-23T12:17:05Z</time>
      </trkpt>
      <trkpt lat="44.95331" lon="4.97668">
        <ele>163.61599731445</ele>
        <time>2009-09-23T12:17:14Z</time>
      </trkpt>
      <trkpt lat="44.95298" lon="4.97713">
        <ele>163.08500671387</ele>
        <time>2009-09-23T12:17:19Z</time>
      </trkpt>
      <trkpt lat="44.95207" lon="4.97764">
        <ele>162.26699829102</ele>
        <time>2009-09-23T12:17:29Z</time>
      </trkpt>
      <trkpt lat="44.95165" lon="4.97825">
        <ele>160.49000549316</ele>
        <time>2009-09-23T12:17:35Z</time>
      </trkpt>
      <trkpt lat="44.9509" lon="4.98098">
        <ele>162.99099731445</ele>
        <time>2009-09-23T12:17:56Z</time>
      </trkpt>
      <trkpt lat="44.9504" lon="4.98246">
        <ele>163.21699523926</ele>
        <time>2009-09-23T12:18:09Z</time>
      </trkpt>
      <trkpt lat="44.95024" lon="4.9829">
        <ele>163.98500061035</ele>
        <time>2009-09-23T12:18:14Z</time>
      </trkpt>
      <trkpt lat="44.94992" lon="4.98277">
        <ele>163.41400146484</ele>
        <time>2009-09-23T12:18:20Z</time>
      </trkpt>
      <trkpt lat="44.94889" lon="4.98213">
        <ele>162.58200073242</ele>
        <time>2009-09-23T12:18:35Z</time>
      </trkpt>
      <trkpt lat="44.94777" lon="4.98182">
        <ele>162.49800109863</ele>
        <time>2009-09-23T12:18:49Z</time>
      </trkpt>
      <trkpt lat="44.94763" lon="4.98192">
        <ele>161.85699462891</ele>
        <time>2009-09-23T12:18:51Z</time>
      </trkpt>
      <trkpt lat="44.94761" lon="4.98225">
        <ele>162.66700744629</ele>
        <time>2009-09-23T12:18:54Z</time>
      </trkpt>
      <trkpt lat="44.94783" lon="4.98334">
        <ele>162.02000427246</ele>
        <time>2009-09-23T12:19:04Z</time>
      </trkpt>
      <trkpt lat="44.9478" lon="4.98483">
        <ele>163.30000305176</ele>
        <time>2009-09-23T12:19:18Z</time>
      </trkpt>
      <trkpt lat="44.94779" lon="4.9868">
        <ele>163.39999389648</ele>
        <time>2009-09-23T12:19:36Z</time>
      </trkpt>
      <trkpt lat="44.94777" lon="4.98816">
        <ele>162.94000244141</ele>
        <time>2009-09-23T12:19:47Z</time>
      </trkpt>
      <trkpt lat="44.9477" lon="4.98948">
        <ele>162.95399475098</ele>
        <time>2009-09-23T12:19:58Z</time>
      </trkpt>
      <trkpt lat="44.94753" lon="4.99003">
        <ele>163.78100585938</ele>
        <time>2009-09-23T12:20:03Z</time>
      </trkpt>
      <trkpt lat="44.94639" lon="4.99192">
        <ele>165.55799865723</ele>
        <time>2009-09-23T12:20:23Z</time>
      </trkpt>
      <trkpt lat="44.94562" lon="4.9933">
        <ele>167.34800720215</ele>
        <time>2009-09-23T12:20:38Z</time>
      </trkpt>
      <trkpt lat="44.94508" lon="4.99492">
        <ele>171.57099914551</ele>
        <time>2009-09-23T12:20:55Z</time>
      </trkpt>
      <trkpt lat="44.94494" lon="4.99548">
        <ele>174.27900695801</ele>
        <time>2009-09-23T12:21:03Z</time>
      </trkpt>
      <trkpt lat="44.94471" lon="4.99673">
        <ele>176.92300415039</ele>
        <time>2009-09-23T12:21:20Z</time>
      </trkpt>
      <trkpt lat="44.94448" lon="4.99798">
        <ele>173.41000366211</ele>
        <time>2009-09-23T12:21:32Z</time>
      </trkpt>
      <trkpt lat="44.94413" lon="4.9995">
        <ele>172.75799560547</ele>
        <time>2009-09-23T12:21:45Z</time>
      </trkpt>
      <trkpt lat="44.94389" lon="5.00046">
        <ele>172.82400512695</ele>
        <time>2009-09-23T12:21:54Z</time>
      </trkpt>
      <trkpt lat="44.94374" lon="5.001">
        <ele>174.32800292969</ele>
        <time>2009-09-23T12:21:59Z</time>
      </trkpt>
      <trkpt lat="44.94367" lon="5.0012">
        <ele>174.46200561523</ele>
        <time>2009-09-23T12:22:01Z</time>
      </trkpt>
      <trkpt lat="44.94294" lon="5.00218">
        <ele>175.51499938965</ele>
        <time>2009-09-23T12:22:14Z</time>
      </trkpt>
      <trkpt lat="44.9421" lon="5.00333">
        <ele>176.88999938965</ele>
        <time>2009-09-23T12:22:29Z</time>
      </trkpt>
      <trkpt lat="44.94156" lon="5.00397">
        <ele>178.04299926758</ele>
        <time>2009-09-23T12:22:38Z</time>
      </trkpt>
      <trkpt lat="44.94113" lon="5.00515">
        <ele>179.19999694824</ele>
        <time>2009-09-23T12:22:51Z</time>
      </trkpt>
      <trkpt lat="44.94064" lon="5.00686">
        <ele>180.84800720215</ele>
        <time>2009-09-23T12:23:08Z</time>
      </trkpt>
      <trkpt lat="44.9405" lon="5.00736">
        <ele>182.62300109863</ele>
        <time>2009-09-23T12:23:13Z</time>
      </trkpt>
      <trkpt lat="44.9399" lon="5.00944">
        <ele>184.3630065918</ele>
        <time>2009-09-23T12:23:34Z</time>
      </trkpt>
      <trkpt lat="44.93916" lon="5.012">
        <ele>187.38299560547</ele>
        <time>2009-09-23T12:24:01Z</time>
      </trkpt>
      <trkpt lat="44.9387" lon="5.01398">
        <ele>189.44500732422</ele>
        <time>2009-09-23T12:24:22Z</time>
      </trkpt>
      <trkpt lat="44.93827" lon="5.01574">
        <ele>190.61399841309</ele>
        <time>2009-09-23T12:24:40Z</time>
      </trkpt>
      <trkpt lat="44.93812" lon="5.0172">
        <ele>191.60000610352</ele>
        <time>2009-09-23T12:24:54Z</time>
      </trkpt>
      <trkpt lat="44.93805" lon="5.01942">
        <ele>193.84800720215</ele>
        <time>2009-09-23T12:25:15Z</time>
      </trkpt>
      <trkpt lat="44.93828" lon="5.02069">
        <ele>194.60499572754</ele>
        <time>2009-09-23T12:25:28Z</time>
      </trkpt>
      <trkpt lat="44.93842" lon="5.02124">
        <ele>194.94099426269</ele>
        <time>2009-09-23T12:25:34Z</time>
      </trkpt>
      <trkpt lat="44.93832" lon="5.02189">
        <ele>195.72599792481</ele>
        <time>2009-09-23T12:25:41Z</time>
      </trkpt>
      <trkpt lat="44.93765" lon="5.02272">
        <ele>197.72900390625</ele>
        <time>2009-09-23T12:25:55Z</time>
      </trkpt>
      <trkpt lat="44.93658" lon="5.02344">
        <ele>199.70500183106</ele>
        <time>2009-09-23T12:26:12Z</time>
      </trkpt>
      <trkpt lat="44.93616" lon="5.02369">
        <ele>199.97099304199</ele>
        <time>2009-09-23T12:26:19Z</time>
      </trkpt>
      <trkpt lat="44.93592" lon="5.02376">
        <ele>200.74200439453</ele>
        <time>2009-09-23T12:26:24Z</time>
      </trkpt>
      <trkpt lat="44.93586" lon="5.02378">
        <ele>200.59100341797</ele>
        <time>2009-09-23T12:26:26Z</time>
      </trkpt>
      <trkpt lat="44.93575" lon="5.02426">
        <ele>200.70500183106</ele>
        <time>2009-09-23T12:26:33Z</time>
      </trkpt>
      <trkpt lat="44.93534" lon="5.02559">
        <ele>202.20899963379</ele>
        <time>2009-09-23T12:26:50Z</time>
      </trkpt>
      <trkpt lat="44.93525" lon="5.02579">
        <ele>203.06599426269</ele>
        <time>2009-09-23T12:26:53Z</time>
      </trkpt>
      <trkpt lat="44.93516" lon="5.02613">
        <ele>202.64900207519</ele>
        <time>2009-09-23T12:26:57Z</time>
      </trkpt>
      <trkpt lat="44.93487" lon="5.02703">
        <ele>204.02799987793</ele>
        <time>2009-09-23T12:27:07Z</time>
      </trkpt>
      <trkpt lat="44.93463" lon="5.02779">
        <ele>205.48199462891</ele>
        <time>2009-09-23T12:27:16Z</time>
      </trkpt>
      <trkpt lat="44.93423" lon="5.0293">
        <ele>206.75900268555</ele>
        <time>2009-09-23T12:27:33Z</time>
      </trkpt>
      <trkpt lat="44.93374" lon="5.03127">
        <ele>209.19900512695</ele>
        <time>2009-09-23T12:27:54Z</time>
      </trkpt>
      <trkpt lat="44.93323" lon="5.03345">
        <ele>213.37100219727</ele>
        <time>2009-09-23T12:28:18Z</time>
      </trkpt>
      <trkpt lat="44.93303" lon="5.03525">
        <ele>216.50399780273</ele>
        <time>2009-09-23T12:28:38Z</time>
      </trkpt>
      <trkpt lat="44.93254" lon="5.03654">
        <ele>218.91499328613</ele>
        <time>2009-09-23T12:28:54Z</time>
      </trkpt>
      <trkpt lat="44.93204" lon="5.03833">
        <ele>221.44400024414</ele>
        <time>2009-09-23T12:29:13Z</time>
      </trkpt>
      <trkpt lat="44.93147" lon="5.03968">
        <ele>222.74499511719</ele>
        <time>2009-09-23T12:29:29Z</time>
      </trkpt>
      <trkpt lat="44.93056" lon="5.04117">
        <ele>225.89999389648</ele>
        <time>2009-09-23T12:29:49Z</time>
      </trkpt>
      <trkpt lat="44.92968" lon="5.04246">
        <ele>229.15699768066</ele>
        <time>2009-09-23T12:30:08Z</time>
      </trkpt>
      <trkpt lat="44.92881" lon="5.04328">
        <ele>232.57400512695</ele>
        <time>2009-09-23T12:30:25Z</time>
      </trkpt>
      <trkpt lat="44.92754" lon="5.04407">
        <ele>236.07699584961</ele>
        <time>2009-09-23T12:30:46Z</time>
      </trkpt>
      <trkpt lat="44.92657" lon="5.04497">
        <ele>238.27299499512</ele>
        <time>2009-09-23T12:31:02Z</time>
      </trkpt>
      <trkpt lat="44.92631" lon="5.04533">
        <ele>239.63900756836</ele>
        <time>2009-09-23T12:31:07Z</time>
      </trkpt>
      <trkpt lat="44.92539" lon="5.04704">
        <ele>242.98599243164</ele>
        <time>2009-09-23T12:31:28Z</time>
      </trkpt>
      <trkpt lat="44.92453" lon="5.04839">
        <ele>246.32499694824</ele>
        <time>2009-09-23T12:31:48Z</time>
      </trkpt>
      <trkpt lat="44.92371" lon="5.05011">
        <ele>249.48899841309</ele>
        <time>2009-09-23T12:32:11Z</time>
      </trkpt>
      <trkpt lat="44.92295" lon="5.05143">
        <ele>252.03300476074</ele>
        <time>2009-09-23T12:32:29Z</time>
      </trkpt>
      <trkpt lat="44.9218" lon="5.05304">
        <ele>254.68899536133</ele>
        <time>2009-09-23T12:32:53Z</time>
      </trkpt>
      <trkpt lat="44.92141" lon="5.05353">
        <ele>255.93600463867</ele>
        <time>2009-09-23T12:33:02Z</time>
      </trkpt>
      <trkpt lat="44.92126" lon="5.05368">
        <ele>256.2380065918</ele>
        <time>2009-09-23T12:33:06Z</time>
      </trkpt>
      <trkpt lat="44.92087" lon="5.05447">
        <ele>258.36099243164</ele>
        <time>2009-09-23T12:33:18Z</time>
      </trkpt>
      <trkpt lat="44.92025" lon="5.05542">
        <ele>260.25</ele>
        <time>2009-09-23T12:33:33Z</time>
      </trkpt>
      <trkpt lat="44.91899" lon="5.05619">
        <ele>262.43099975586</ele>
        <time>2009-09-23T12:33:53Z</time>
      </trkpt>
      <trkpt lat="44.91856" lon="5.05632">
        <ele>263.02899169922</ele>
        <time>2009-09-23T12:33:59Z</time>
      </trkpt>
      <trkpt lat="44.9171" lon="5.05594">
        <ele>263.07699584961</ele>
        <time>2009-09-23T12:34:17Z</time>
      </trkpt>
      <trkpt lat="44.9152" lon="5.05523">
        <ele>262.18399047852</ele>
        <time>2009-09-23T12:34:37Z</time>
      </trkpt>
      <trkpt lat="44.91346" lon="5.05457">
        <ele>260.90200805664</ele>
        <time>2009-09-23T12:34:54Z</time>
      </trkpt>
      <trkpt lat="44.91316" lon="5.05446">
        <ele>261.08700561523</ele>
        <time>2009-09-23T12:34:57Z</time>
      </trkpt>
      <trkpt lat="44.91264" lon="5.05469">
        <ele>262.11401367188</ele>
        <time>2009-09-23T12:35:03Z</time>
      </trkpt>
      <trkpt lat="44.91256" lon="5.05491">
        <ele>262.30200195312</ele>
        <time>2009-09-23T12:35:05Z</time>
      </trkpt>
      <trkpt lat="44.9124" lon="5.0556">
        <ele>263.88400268555</ele>
        <time>2009-09-23T12:35:11Z</time>
      </trkpt>
      <trkpt lat="44.91187" lon="5.05618">
        <ele>265.51901245117</ele>
        <time>2009-09-23T12:35:19Z</time>
      </trkpt>
      <trkpt lat="44.9114" lon="5.05607">
        <ele>265.02301025391</ele>
        <time>2009-09-23T12:35:24Z</time>
      </trkpt>
      <trkpt lat="44.91054" lon="5.05555">
        <ele>262.69100952148</ele>
        <time>2009-09-23T12:35:34Z</time>
      </trkpt>
      <trkpt lat="44.91038" lon="5.05573">
        <ele>261.26699829102</ele>
        <time>2009-09-23T12:35:39Z</time>
      </trkpt>
      <trkpt lat="44.91029" lon="5.05728">
        <ele>263.37701416016</ele>
        <time>2009-09-23T12:35:55Z</time>
      </trkpt>
      <trkpt lat="44.91026" lon="5.05896">
        <ele>266.77899169922</ele>
        <time>2009-09-23T12:36:13Z</time>
      </trkpt>
      <trkpt lat="44.91034" lon="5.06056">
        <ele>270.10101318359</ele>
        <time>2009-09-23T12:36:33Z</time>
      </trkpt>
      <trkpt lat="44.91045" lon="5.06235">
        <ele>274.21701049805</ele>
        <time>2009-09-23T12:36:56Z</time>
      </trkpt>
      <trkpt lat="44.91056" lon="5.06428">
        <ele>277.60198974609</ele>
        <time>2009-09-23T12:37:21Z</time>
      </trkpt>
      <trkpt lat="44.91065" lon="5.06578">
        <ele>280.91198730469</ele>
        <time>2009-09-23T12:37:40Z</time>
      </trkpt>
      <trkpt lat="44.91077" lon="5.06764">
        <ele>283.25201416016</ele>
        <time>2009-09-23T12:38:02Z</time>
      </trkpt>
      <trkpt lat="44.91086" lon="5.06934">
        <ele>285.47399902344</ele>
        <time>2009-09-23T12:38:23Z</time>
      </trkpt>
      <trkpt lat="44.91085" lon="5.07085">
        <ele>288.8330078125</ele>
        <time>2009-09-23T12:38:42Z</time>
      </trkpt>
      <trkpt lat="44.91063" lon="5.0717">
        <ele>292.44000244141</ele>
        <time>2009-09-23T12:38:54Z</time>
      </trkpt>
      <trkpt lat="44.91052" lon="5.07205">
        <ele>293.64498901367</ele>
        <time>2009-09-23T12:38:59Z</time>
      </trkpt>
      <trkpt lat="44.91052" lon="5.07323">
        <ele>295.98199462891</ele>
        <time>2009-09-23T12:39:14Z</time>
      </trkpt>
      <trkpt lat="44.91082" lon="5.07493">
        <ele>300.22299194336</ele>
        <time>2009-09-23T12:39:36Z</time>
      </trkpt>
      <trkpt lat="44.91109" lon="5.07661">
        <ele>303.91400146484</ele>
        <time>2009-09-23T12:39:58Z</time>
      </trkpt>
      <trkpt lat="44.91137" lon="5.07852">
        <ele>307.26000976562</ele>
        <time>2009-09-23T12:40:22Z</time>
      </trkpt>
      <trkpt lat="44.91141" lon="5.08006">
        <ele>309.49200439453</ele>
        <time>2009-09-23T12:40:40Z</time>
      </trkpt>
      <trkpt lat="44.91139" lon="5.08147">
        <ele>312.29800415039</ele>
        <time>2009-09-23T12:40:58Z</time>
      </trkpt>
      <trkpt lat="44.91135" lon="5.08277">
        <ele>314.9280090332</ele>
        <time>2009-09-23T12:41:15Z</time>
      </trkpt>
      <trkpt lat="44.91132" lon="5.08393">
        <ele>318.00100708008</ele>
        <time>2009-09-23T12:41:30Z</time>
      </trkpt>
      <trkpt lat="44.91128" lon="5.08566">
        <ele>322.31100463867</ele>
        <time>2009-09-23T12:41:52Z</time>
      </trkpt>
      <trkpt lat="44.91148" lon="5.08711">
        <ele>325.19198608398</ele>
        <time>2009-09-23T12:42:11Z</time>
      </trkpt>
      <trkpt lat="44.91154" lon="5.08741">
        <ele>326.62399291992</ele>
        <time>2009-09-23T12:42:15Z</time>
      </trkpt>
      <trkpt lat="44.91182" lon="5.0888">
        <ele>329.74499511719</ele>
        <time>2009-09-23T12:42:33Z</time>
      </trkpt>
      <trkpt lat="44.91229" lon="5.09036">
        <ele>332.58200073242</ele>
        <time>2009-09-23T12:42:53Z</time>
      </trkpt>
      <trkpt lat="44.91243" lon="5.09069">
        <ele>333.89801025391</ele>
        <time>2009-09-23T12:42:58Z</time>
      </trkpt>
      <trkpt lat="44.9125" lon="5.09089">
        <ele>334.48300170898</ele>
        <time>2009-09-23T12:43:01Z</time>
      </trkpt>
      <trkpt lat="44.91282" lon="5.09168">
        <ele>336.62298583984</ele>
        <time>2009-09-23T12:43:13Z</time>
      </trkpt>
      <trkpt lat="44.91335" lon="5.09325">
        <ele>340.26998901367</ele>
        <time>2009-09-23T12:43:36Z</time>
      </trkpt>
      <trkpt lat="44.91358" lon="5.09434">
        <ele>344.07598876953</ele>
        <time>2009-09-23T12:43:53Z</time>
      </trkpt>
      <trkpt lat="44.91365" lon="5.09466">
        <ele>344.69400024414</ele>
        <time>2009-09-23T12:43:58Z</time>
      </trkpt>
      <trkpt lat="44.91381" lon="5.09542">
        <ele>347.69198608398</ele>
        <time>2009-09-23T12:44:11Z</time>
      </trkpt>
      <trkpt lat="44.91401" lon="5.09636">
        <ele>350.11199951172</ele>
        <time>2009-09-23T12:44:28Z</time>
      </trkpt>
      <trkpt lat="44.91434" lon="5.09741">
        <ele>353.08200073242</ele>
        <time>2009-09-23T12:44:46Z</time>
      </trkpt>
      <trkpt lat="44.91459" lon="5.09864">
        <ele>355.28399658203</ele>
        <time>2009-09-23T12:45:03Z</time>
      </trkpt>
      <trkpt lat="44.91445" lon="5.09964">
        <ele>357.44400024414</ele>
        <time>2009-09-23T12:45:17Z</time>
      </trkpt>
      <trkpt lat="44.91421" lon="5.10081">
        <ele>361.10699462891</ele>
        <time>2009-09-23T12:45:34Z</time>
      </trkpt>
      <trkpt lat="44.91401" lon="5.10183">
        <ele>364.08499145508</ele>
        <time>2009-09-23T12:45:50Z</time>
      </trkpt>
      <trkpt lat="44.91397" lon="5.10204">
        <ele>365.32901000977</ele>
        <time>2009-09-23T12:45:53Z</time>
      </trkpt>
      <trkpt lat="44.91383" lon="5.10259">
        <ele>366.99600219727</ele>
        <time>2009-09-23T12:46:01Z</time>
      </trkpt>
      <trkpt lat="44.9138" lon="5.10273">
        <ele>367.40600585938</ele>
        <time>2009-09-23T12:46:03Z</time>
      </trkpt>
      <trkpt lat="44.91375" lon="5.10298">
        <ele>368.73001098633</ele>
        <time>2009-09-23T12:46:07Z</time>
      </trkpt>
      <trkpt lat="44.91359" lon="5.10373">
        <ele>372.16799926758</ele>
        <time>2009-09-23T12:46:19Z</time>
      </trkpt>
      <trkpt lat="44.91356" lon="5.10391">
        <ele>373.22100830078</ele>
        <time>2009-09-23T12:46:22Z</time>
      </trkpt>
      <trkpt lat="44.91346" lon="5.10434">
        <ele>374.57598876953</ele>
        <time>2009-09-23T12:46:29Z</time>
      </trkpt>
      <trkpt lat="44.91341" lon="5.10457">
        <ele>375.80599975586</ele>
        <time>2009-09-23T12:46:34Z</time>
      </trkpt>
      <trkpt lat="44.91342" lon="5.10459">
        <ele>375.72100830078</ele>
        <time>2009-09-23T12:46:38Z</time>
      </trkpt>
      <trkpt lat="44.91348" lon="5.10465">
        <ele>377.24700927734</ele>
        <time>2009-09-23T12:48:20Z</time>
      </trkpt>
      <trkpt lat="44.91348" lon="5.10469">
        <ele>377.29699707031</ele>
        <time>2009-09-23T12:48:24Z</time>
      </trkpt>
      <trkpt lat="44.91327" lon="5.10502">
        <ele>378.98098754883</ele>
        <time>2009-09-23T12:49:41Z</time>
      </trkpt>
      <trkpt lat="44.91325" lon="5.10513">
        <ele>379.49700927734</ele>
        <time>2009-09-23T12:49:43Z</time>
      </trkpt>
      <trkpt lat="44.91318" lon="5.10551">
        <ele>381.62701416016</ele>
        <time>2009-09-23T12:49:50Z</time>
      </trkpt>
      <trkpt lat="44.91319" lon="5.10579">
        <ele>382.46899414062</ele>
        <time>2009-09-23T12:49:55Z</time>
      </trkpt>
      <trkpt lat="44.91325" lon="5.10615">
        <ele>382.90701293945</ele>
        <time>2009-09-23T12:50:01Z</time>
      </trkpt>
      <trkpt lat="44.91327" lon="5.1064">
        <ele>383.29098510742</ele>
        <time>2009-09-23T12:50:05Z</time>
      </trkpt>
      <trkpt lat="44.91329" lon="5.10653">
        <ele>383.71099853516</ele>
        <time>2009-09-23T12:50:07Z</time>
      </trkpt>
      <trkpt lat="44.9133" lon="5.10697">
        <ele>383.92700195312</ele>
        <time>2009-09-23T12:50:14Z</time>
      </trkpt>
      <trkpt lat="44.91331" lon="5.10732">
        <ele>384.98699951172</ele>
        <time>2009-09-23T12:50:19Z</time>
      </trkpt>
      <trkpt lat="44.91332" lon="5.10767">
        <ele>385.48300170898</ele>
        <time>2009-09-23T12:50:24Z</time>
      </trkpt>
      <trkpt lat="44.91319" lon="5.10843">
        <ele>385.86801147461</ele>
        <time>2009-09-23T12:50:34Z</time>
      </trkpt>
      <trkpt lat="44.91302" lon="5.10861">
        <ele>386.13299560547</ele>
        <time>2009-09-23T12:50:37Z</time>
      </trkpt>
      <trkpt lat="44.9127" lon="5.1089">
        <ele>386.23901367188</ele>
        <time>2009-09-23T12:50:43Z</time>
      </trkpt>
      <trkpt lat="44.91253" lon="5.10899">
        <ele>387.69799804688</ele>
        <time>2009-09-23T12:50:46Z</time>
      </trkpt>
      <trkpt lat="44.91239" lon="5.10907">
        <ele>388.92001342773</ele>
        <time>2009-09-23T12:50:49Z</time>
      </trkpt>
      <trkpt lat="44.91196" lon="5.10944">
        <ele>392.125</ele>
        <time>2009-09-23T12:51:01Z</time>
      </trkpt>
      <trkpt lat="44.91193" lon="5.10947">
        <ele>392.48599243164</ele>
        <time>2009-09-23T12:51:02Z</time>
      </trkpt>
      <trkpt lat="44.91143" lon="5.10985">
        <ele>396.69900512695</ele>
        <time>2009-09-23T12:51:17Z</time>
      </trkpt>
      <trkpt lat="44.91103" lon="5.11032">
        <ele>400.53298950195</ele>
        <time>2009-09-23T12:51:31Z</time>
      </trkpt>
      <trkpt lat="44.91088" lon="5.11049">
        <ele>401.45999145508</ele>
        <time>2009-09-23T12:51:36Z</time>
      </trkpt>
      <trkpt lat="44.91037" lon="5.11106">
        <ele>405.29400634766</ele>
        <time>2009-09-23T12:51:51Z</time>
      </trkpt>
      <trkpt lat="44.90992" lon="5.11148">
        <ele>407.58801269531</ele>
        <time>2009-09-23T12:52:03Z</time>
      </trkpt>
      <trkpt lat="44.90926" lon="5.11194">
        <ele>409.43200683594</ele>
        <time>2009-09-23T12:52:17Z</time>
      </trkpt>
      <trkpt lat="44.90886" lon="5.11226">
        <ele>411.72799682617</ele>
        <time>2009-09-23T12:52:25Z</time>
      </trkpt>
      <trkpt lat="44.90875" lon="5.11234">
        <ele>412.18301391602</ele>
        <time>2009-09-23T12:52:27Z</time>
      </trkpt>
      <trkpt lat="44.90796" lon="5.1125">
        <ele>414.8330078125</ele>
        <time>2009-09-23T12:52:40Z</time>
      </trkpt>
      <trkpt lat="44.90785" lon="5.11256">
        <ele>415.11700439453</ele>
        <time>2009-09-23T12:52:42Z</time>
      </trkpt>
      <trkpt lat="44.90775" lon="5.11259">
        <ele>415.26699829102</ele>
        <time>2009-09-23T12:52:44Z</time>
      </trkpt>
      <trkpt lat="44.90751" lon="5.11265">
        <ele>416.10000610352</ele>
        <time>2009-09-23T12:52:48Z</time>
      </trkpt>
      <trkpt lat="44.90728" lon="5.11265">
        <ele>417.5710144043</ele>
        <time>2009-09-23T12:52:52Z</time>
      </trkpt>
      <trkpt lat="44.90652" lon="5.11252">
        <ele>424.28900146484</ele>
        <time>2009-09-23T12:53:10Z</time>
      </trkpt>
      <trkpt lat="44.90611" lon="5.11252">
        <ele>427.65600585938</ele>
        <time>2009-09-23T12:53:24Z</time>
      </trkpt>
      <trkpt lat="44.90548" lon="5.11241">
        <ele>432.5830078125</ele>
        <time>2009-09-23T12:53:41Z</time>
      </trkpt>
      <trkpt lat="44.90539" lon="5.11239">
        <ele>433.47900390625</ele>
        <time>2009-09-23T12:53:43Z</time>
      </trkpt>
      <trkpt lat="44.90447" lon="5.11206">
        <ele>439.39199829102</ele>
        <time>2009-09-23T12:54:04Z</time>
      </trkpt>
      <trkpt lat="44.90377" lon="5.11179">
        <ele>442.33801269531</ele>
        <time>2009-09-23T12:54:19Z</time>
      </trkpt>
      <trkpt lat="44.90286" lon="5.11168">
        <ele>446.38198852539</ele>
        <time>2009-09-23T12:54:39Z</time>
      </trkpt>
      <trkpt lat="44.90195" lon="5.11186">
        <ele>452.11599731445</ele>
        <time>2009-09-23T12:55:00Z</time>
      </trkpt>
      <trkpt lat="44.90129" lon="5.1123">
        <ele>456.04998779297</ele>
        <time>2009-09-23T12:55:17Z</time>
      </trkpt>
      <trkpt lat="44.90054" lon="5.11294">
        <ele>460.70300292969</ele>
        <time>2009-09-23T12:55:35Z</time>
      </trkpt>
      <trkpt lat="44.8998" lon="5.1133">
        <ele>465.52700805664</ele>
        <time>2009-09-23T12:55:52Z</time>
      </trkpt>
      <trkpt lat="44.89936" lon="5.1137">
        <ele>468.98400878906</ele>
        <time>2009-09-23T12:56:05Z</time>
      </trkpt>
      <trkpt lat="44.89923" lon="5.11385">
        <ele>470.08499145508</ele>
        <time>2009-09-23T12:56:09Z</time>
      </trkpt>
      <trkpt lat="44.89885" lon="5.11424">
        <ele>473.25399780273</ele>
        <time>2009-09-23T12:56:21Z</time>
      </trkpt>
      <trkpt lat="44.89846" lon="5.11446">
        <ele>475.7799987793</ele>
        <time>2009-09-23T12:56:31Z</time>
      </trkpt>
      <trkpt lat="44.89804" lon="5.11485">
        <ele>479.3039855957</ele>
        <time>2009-09-23T12:56:44Z</time>
      </trkpt>
      <trkpt lat="44.89787" lon="5.11493">
        <ele>480.68200683594</ele>
        <time>2009-09-23T12:56:49Z</time>
      </trkpt>
      <trkpt lat="44.89775" lon="5.11539">
        <ele>481.56698608398</ele>
        <time>2009-09-23T12:56:58Z</time>
      </trkpt>
      <trkpt lat="44.89782" lon="5.11571">
        <ele>482.39199829102</ele>
        <time>2009-09-23T12:57:03Z</time>
      </trkpt>
      <trkpt lat="44.89785" lon="5.1159">
        <ele>483.03100585938</ele>
        <time>2009-09-23T12:57:06Z</time>
      </trkpt>
      <trkpt lat="44.89783" lon="5.11688">
        <ele>487.10598754883</ele>
        <time>2009-09-23T12:57:23Z</time>
      </trkpt>
      <trkpt lat="44.89782" lon="5.1173">
        <ele>489.91000366211</ele>
        <time>2009-09-23T12:57:31Z</time>
      </trkpt>
      <trkpt lat="44.89747" lon="5.11764">
        <ele>493.05200195312</ele>
        <time>2009-09-23T12:57:43Z</time>
      </trkpt>
      <trkpt lat="44.89708" lon="5.11781">
        <ele>495.7919921875</ele>
        <time>2009-09-23T12:57:56Z</time>
      </trkpt>
      <trkpt lat="44.89672" lon="5.11793">
        <ele>498.42001342773</ele>
        <time>2009-09-23T12:58:07Z</time>
      </trkpt>
      <trkpt lat="44.89627" lon="5.11833">
        <ele>502.13900756836</ele>
        <time>2009-09-23T12:58:21Z</time>
      </trkpt>
      <trkpt lat="44.89562" lon="5.11862">
        <ele>506.31799316406</ele>
        <time>2009-09-23T12:58:37Z</time>
      </trkpt>
      <trkpt lat="44.89513" lon="5.11852">
        <ele>509.3039855957</ele>
        <time>2009-09-23T12:58:50Z</time>
      </trkpt>
      <trkpt lat="44.8947" lon="5.11826">
        <ele>512.56701660156</ele>
        <time>2009-09-23T12:59:03Z</time>
      </trkpt>
      <trkpt lat="44.89424" lon="5.11802">
        <ele>516.04602050781</ele>
        <time>2009-09-23T12:59:16Z</time>
      </trkpt>
      <trkpt lat="44.89388" lon="5.11789">
        <ele>518.44201660156</ele>
        <time>2009-09-23T12:59:26Z</time>
      </trkpt>
      <trkpt lat="44.89329" lon="5.11792">
        <ele>521.97100830078</ele>
        <time>2009-09-23T12:59:40Z</time>
      </trkpt>
      <trkpt lat="44.89305" lon="5.1183">
        <ele>524.98602294922</ele>
        <time>2009-09-23T12:59:51Z</time>
      </trkpt>
      <trkpt lat="44.893" lon="5.11889">
        <ele>528.58099365234</ele>
        <time>2009-09-23T13:00:05Z</time>
      </trkpt>
      <trkpt lat="44.89311" lon="5.11943">
        <ele>530.78900146484</ele>
        <time>2009-09-23T13:00:17Z</time>
      </trkpt>
      <trkpt lat="44.89351" lon="5.11964">
        <ele>533.63397216797</ele>
        <time>2009-09-23T13:00:28Z</time>
      </trkpt>
      <trkpt lat="44.89361" lon="5.11993">
        <ele>536.25</ele>
        <time>2009-09-23T13:00:37Z</time>
      </trkpt>
      <trkpt lat="44.89362" lon="5.12014">
        <ele>537.57598876953</ele>
        <time>2009-09-23T13:00:43Z</time>
      </trkpt>
      <trkpt lat="44.89393" lon="5.12043">
        <ele>540.19000244141</ele>
        <time>2009-09-23T13:00:56Z</time>
      </trkpt>
      <trkpt lat="44.89428" lon="5.12095">
        <ele>544.42700195312</ele>
        <time>2009-09-23T13:01:11Z</time>
      </trkpt>
      <trkpt lat="44.89453" lon="5.12158">
        <ele>548.16400146484</ele>
        <time>2009-09-23T13:01:26Z</time>
      </trkpt>
      <trkpt lat="44.89469" lon="5.12196">
        <ele>550.56799316406</ele>
        <time>2009-09-23T13:01:35Z</time>
      </trkpt>
      <trkpt lat="44.89457" lon="5.12203">
        <ele>552.21899414062</ele>
        <time>2009-09-23T13:01:41Z</time>
      </trkpt>
      <trkpt lat="44.89418" lon="5.12143">
        <ele>556.19097900391</ele>
        <time>2009-09-23T13:01:57Z</time>
      </trkpt>
      <trkpt lat="44.89377" lon="5.12115">
        <ele>560.20501708984</ele>
        <time>2009-09-23T13:02:12Z</time>
      </trkpt>
      <trkpt lat="44.89331" lon="5.12119">
        <ele>563.7080078125</ele>
        <time>2009-09-23T13:02:27Z</time>
      </trkpt>
      <trkpt lat="44.89296" lon="5.12104">
        <ele>566.65002441406</ele>
        <time>2009-09-23T13:02:38Z</time>
      </trkpt>
      <trkpt lat="44.89254" lon="5.12093">
        <ele>570.34698486328</ele>
        <time>2009-09-23T13:02:52Z</time>
      </trkpt>
      <trkpt lat="44.89215" lon="5.12088">
        <ele>572.97900390625</ele>
        <time>2009-09-23T13:03:04Z</time>
      </trkpt>
      <trkpt lat="44.89192" lon="5.12069">
        <ele>575.35400390625</ele>
        <time>2009-09-23T13:03:11Z</time>
      </trkpt>
      <trkpt lat="44.89183" lon="5.12084">
        <ele>576.60900878906</ele>
        <time>2009-09-23T13:03:20Z</time>
      </trkpt>
      <trkpt lat="44.89182" lon="5.12101">
        <ele>578.20697021484</ele>
        <time>2009-09-23T13:03:27Z</time>
      </trkpt>
      <trkpt lat="44.8918" lon="5.12105">
        <ele>579.14801025391</ele>
        <time>2009-09-23T13:03:30Z</time>
      </trkpt>
      <trkpt lat="44.89189" lon="5.12113">
        <ele>579.96697998047</ele>
        <time>2009-09-23T13:03:35Z</time>
      </trkpt>
      <trkpt lat="44.8924" lon="5.12131">
        <ele>582.71099853516</ele>
        <time>2009-09-23T13:03:46Z</time>
      </trkpt>
      <trkpt lat="44.89286" lon="5.12176">
        <ele>586.72497558594</ele>
        <time>2009-09-23T13:04:00Z</time>
      </trkpt>
      <trkpt lat="44.89325" lon="5.12224">
        <ele>590.96899414062</ele>
        <time>2009-09-23T13:04:16Z</time>
      </trkpt>
      <trkpt lat="44.89359" lon="5.12276">
        <ele>594.79602050781</ele>
        <time>2009-09-23T13:04:32Z</time>
      </trkpt>
      <trkpt lat="44.8937" lon="5.12313">
        <ele>596.85498046875</ele>
        <time>2009-09-23T13:04:41Z</time>
      </trkpt>
      <trkpt lat="44.89371" lon="5.12374">
        <ele>600.36999511719</ele>
        <time>2009-09-23T13:04:56Z</time>
      </trkpt>
      <trkpt lat="44.89374" lon="5.12402">
        <ele>602.22399902344</ele>
        <time>2009-09-23T13:05:03Z</time>
      </trkpt>
      <trkpt lat="44.89383" lon="5.12437">
        <ele>604.65698242188</ele>
        <time>2009-09-23T13:05:15Z</time>
      </trkpt>
      <trkpt lat="44.89408" lon="5.12454">
        <ele>606.88500976562</ele>
        <time>2009-09-23T13:05:25Z</time>
      </trkpt>
      <trkpt lat="44.89447" lon="5.12494">
        <ele>609.73101806641</ele>
        <time>2009-09-23T13:05:38Z</time>
      </trkpt>
      <trkpt lat="44.89462" lon="5.12549">
        <ele>612.26898193359</ele>
        <time>2009-09-23T13:05:52Z</time>
      </trkpt>
      <trkpt lat="44.8945" lon="5.12603">
        <ele>615.75299072266</ele>
        <time>2009-09-23T13:06:04Z</time>
      </trkpt>
      <trkpt lat="44.89415" lon="5.1266">
        <ele>620.15802001953</ele>
        <time>2009-09-23T13:06:20Z</time>
      </trkpt>
      <trkpt lat="44.89388" lon="5.12712">
        <ele>623.69299316406</ele>
        <time>2009-09-23T13:06:34Z</time>
      </trkpt>
      <trkpt lat="44.89378" lon="5.12767">
        <ele>626.71099853516</ele>
        <time>2009-09-23T13:06:45Z</time>
      </trkpt>
      <trkpt lat="44.89372" lon="5.12805">
        <ele>628.23602294922</ele>
        <time>2009-09-23T13:06:53Z</time>
      </trkpt>
      <trkpt lat="44.89413" lon="5.12851">
        <ele>631.71600341797</ele>
        <time>2009-09-23T13:07:06Z</time>
      </trkpt>
      <trkpt lat="44.89446" lon="5.12884">
        <ele>634.49401855469</ele>
        <time>2009-09-23T13:07:18Z</time>
      </trkpt>
      <trkpt lat="44.89455" lon="5.12943">
        <ele>638.10900878906</ele>
        <time>2009-09-23T13:07:31Z</time>
      </trkpt>
      <trkpt lat="44.89453" lon="5.12956">
        <ele>638.85302734375</ele>
        <time>2009-09-23T13:07:34Z</time>
      </trkpt>
      <trkpt lat="44.89437" lon="5.12999">
        <ele>641.47399902344</ele>
        <time>2009-09-23T13:07:47Z</time>
      </trkpt>
      <trkpt lat="44.89436" lon="5.13038">
        <ele>644.79797363281</ele>
        <time>2009-09-23T13:07:58Z</time>
      </trkpt>
      <trkpt lat="44.89437" lon="5.13044">
        <ele>645.39001464844</ele>
        <time>2009-09-23T13:08:01Z</time>
      </trkpt>
      <trkpt lat="44.89452" lon="5.13053">
        <ele>646.62298583984</ele>
        <time>2009-09-23T13:08:06Z</time>
      </trkpt>
      <trkpt lat="44.89478" lon="5.13088">
        <ele>649.1259765625</ele>
        <time>2009-09-23T13:08:17Z</time>
      </trkpt>
      <trkpt lat="44.89472" lon="5.13137">
        <ele>651.65698242188</ele>
        <time>2009-09-23T13:08:28Z</time>
      </trkpt>
      <trkpt lat="44.8946" lon="5.1318">
        <ele>654.62799072266</ele>
        <time>2009-09-23T13:08:39Z</time>
      </trkpt>
      <trkpt lat="44.8945" lon="5.13232">
        <ele>657.37298583984</ele>
        <time>2009-09-23T13:08:51Z</time>
      </trkpt>
      <trkpt lat="44.89451" lon="5.13276">
        <ele>660.06201171875</ele>
        <time>2009-09-23T13:09:01Z</time>
      </trkpt>
      <trkpt lat="44.89439" lon="5.13318">
        <ele>662.92102050781</ele>
        <time>2009-09-23T13:09:13Z</time>
      </trkpt>
      <trkpt lat="44.89418" lon="5.13354">
        <ele>665.79797363281</ele>
        <time>2009-09-23T13:09:24Z</time>
      </trkpt>
      <trkpt lat="44.8941" lon="5.13395">
        <ele>668.55798339844</ele>
        <time>2009-09-23T13:09:34Z</time>
      </trkpt>
      <trkpt lat="44.89406" lon="5.13445">
        <ele>671.53497314453</ele>
        <time>2009-09-23T13:09:46Z</time>
      </trkpt>
      <trkpt lat="44.89397" lon="5.13491">
        <ele>674.60302734375</ele>
        <time>2009-09-23T13:09:57Z</time>
      </trkpt>
      <trkpt lat="44.894" lon="5.13502">
        <ele>674.95300292969</ele>
        <time>2009-09-23T13:09:59Z</time>
      </trkpt>
      <trkpt lat="44.89497" lon="5.13662">
        <ele>681.35601806641</ele>
        <time>2009-09-23T13:10:25Z</time>
      </trkpt>
      <trkpt lat="44.89496" lon="5.13705">
        <ele>683.76098632812</ele>
        <time>2009-09-23T13:10:35Z</time>
      </trkpt>
      <trkpt lat="44.89469" lon="5.13751">
        <ele>686.80499267578</ele>
        <time>2009-09-23T13:10:48Z</time>
      </trkpt>
      <trkpt lat="44.89459" lon="5.13803">
        <ele>689.87799072266</ele>
        <time>2009-09-23T13:11:01Z</time>
      </trkpt>
      <trkpt lat="44.8945" lon="5.13816">
        <ele>690.88500976562</ele>
        <time>2009-09-23T13:11:05Z</time>
      </trkpt>
      <trkpt lat="44.89433" lon="5.13833">
        <ele>692.52301025391</ele>
        <time>2009-09-23T13:11:11Z</time>
      </trkpt>
      <trkpt lat="44.89425" lon="5.13871">
        <ele>694.69000244141</ele>
        <time>2009-09-23T13:11:20Z</time>
      </trkpt>
      <trkpt lat="44.89441" lon="5.13919">
        <ele>697.19201660156</ele>
        <time>2009-09-23T13:11:30Z</time>
      </trkpt>
      <trkpt lat="44.89441" lon="5.13922">
        <ele>697.69201660156</ele>
        <time>2009-09-23T13:11:32Z</time>
      </trkpt>
      <trkpt lat="44.89415" lon="5.13879">
        <ele>699.54400634766</ele>
        <time>2009-09-23T13:11:42Z</time>
      </trkpt>
      <trkpt lat="44.89417" lon="5.13848">
        <ele>700.84600830078</ele>
        <time>2009-09-23T13:11:49Z</time>
      </trkpt>
      <trkpt lat="44.89413" lon="5.1383">
        <ele>701.75799560547</ele>
        <time>2009-09-23T13:11:53Z</time>
      </trkpt>
      <trkpt lat="44.89418" lon="5.13777">
        <ele>704.57098388672</ele>
        <time>2009-09-23T13:12:05Z</time>
      </trkpt>
      <trkpt lat="44.89432" lon="5.1374">
        <ele>707.23797607422</ele>
        <time>2009-09-23T13:12:15Z</time>
      </trkpt>
      <trkpt lat="44.89425" lon="5.13714">
        <ele>708.88098144531</ele>
        <time>2009-09-23T13:12:21Z</time>
      </trkpt>
      <trkpt lat="44.89425" lon="5.13664">
        <ele>711.70001220703</ele>
        <time>2009-09-23T13:12:32Z</time>
      </trkpt>
      <trkpt lat="44.89418" lon="5.13651">
        <ele>712.25598144531</ele>
        <time>2009-09-23T13:12:35Z</time>
      </trkpt>
      <trkpt lat="44.8941" lon="5.13623">
        <ele>713.958984375</ele>
        <time>2009-09-23T13:12:41Z</time>
      </trkpt>
      <trkpt lat="44.89395" lon="5.13607">
        <ele>714.69097900391</ele>
        <time>2009-09-23T13:12:44Z</time>
      </trkpt>
      <trkpt lat="44.89368" lon="5.13558">
        <ele>717.35797119141</ele>
        <time>2009-09-23T13:12:53Z</time>
      </trkpt>
      <trkpt lat="44.89376" lon="5.13541">
        <ele>718.54998779297</ele>
        <time>2009-09-23T13:12:58Z</time>
      </trkpt>
      <trkpt lat="44.89395" lon="5.13519">
        <ele>720.20397949219</ele>
        <time>2009-09-23T13:13:04Z</time>
      </trkpt>
      <trkpt lat="44.89408" lon="5.1347">
        <ele>723.26300048828</ele>
        <time>2009-09-23T13:13:16Z</time>
      </trkpt>
      <trkpt lat="44.89395" lon="5.13422">
        <ele>726.40301513672</ele>
        <time>2009-09-23T13:13:28Z</time>
      </trkpt>
      <trkpt lat="44.89383" lon="5.13377">
        <ele>728.99298095703</ele>
        <time>2009-09-23T13:13:39Z</time>
      </trkpt>
      <trkpt lat="44.8936" lon="5.13321">
        <ele>732.36199951172</ele>
        <time>2009-09-23T13:13:52Z</time>
      </trkpt>
      <trkpt lat="44.8933" lon="5.13266">
        <ele>735.64501953125</ele>
        <time>2009-09-23T13:14:05Z</time>
      </trkpt>
      <trkpt lat="44.89327" lon="5.13223">
        <ele>738.30798339844</ele>
        <time>2009-09-23T13:14:15Z</time>
      </trkpt>
      <trkpt lat="44.89314" lon="5.13192">
        <ele>740.05902099609</ele>
        <time>2009-09-23T13:14:22Z</time>
      </trkpt>
      <trkpt lat="44.89299" lon="5.13151">
        <ele>742.51300048828</ele>
        <time>2009-09-23T13:14:33Z</time>
      </trkpt>
      <trkpt lat="44.89285" lon="5.13115">
        <ele>745.27197265625</ele>
        <time>2009-09-23T13:14:44Z</time>
      </trkpt>
      <trkpt lat="44.89267" lon="5.1307">
        <ele>748.26702880859</ele>
        <time>2009-09-23T13:14:56Z</time>
      </trkpt>
      <trkpt lat="44.89265" lon="5.13039">
        <ele>749.85302734375</ele>
        <time>2009-09-23T13:15:04Z</time>
      </trkpt>
      <trkpt lat="44.89262" lon="5.13024">
        <ele>750.37799072266</ele>
        <time>2009-09-23T13:15:08Z</time>
      </trkpt>
      <trkpt lat="44.89228" lon="5.12989">
        <ele>753.76702880859</ele>
        <time>2009-09-23T13:15:21Z</time>
      </trkpt>
      <trkpt lat="44.89181" lon="5.12961">
        <ele>756.94201660156</ele>
        <time>2009-09-23T13:15:36Z</time>
      </trkpt>
      <trkpt lat="44.89154" lon="5.12939">
        <ele>759.97802734375</ele>
        <time>2009-09-23T13:15:49Z</time>
      </trkpt>
      <trkpt lat="44.89141" lon="5.1291">
        <ele>761.94299316406</ele>
        <time>2009-09-23T13:15:57Z</time>
      </trkpt>
      <trkpt lat="44.89144" lon="5.12874">
        <ele>764.25897216797</ele>
        <time>2009-09-23T13:16:07Z</time>
      </trkpt>
      <trkpt lat="44.89142" lon="5.12838">
        <ele>766.32800292969</ele>
        <time>2009-09-23T13:16:16Z</time>
      </trkpt>
      <trkpt lat="44.89146" lon="5.12821">
        <ele>767.04901123047</ele>
        <time>2009-09-23T13:16:21Z</time>
      </trkpt>
      <trkpt lat="44.89153" lon="5.12764">
        <ele>769.98400878906</ele>
        <time>2009-09-23T13:16:35Z</time>
      </trkpt>
      <trkpt lat="44.89149" lon="5.12703">
        <ele>773.94897460938</ele>
        <time>2009-09-23T13:16:50Z</time>
      </trkpt>
      <trkpt lat="44.89123" lon="5.12665">
        <ele>776.11798095703</ele>
        <time>2009-09-23T13:17:01Z</time>
      </trkpt>
      <trkpt lat="44.89077" lon="5.12617">
        <ele>779.63299560547</ele>
        <time>2009-09-23T13:17:16Z</time>
      </trkpt>
      <trkpt lat="44.89037" lon="5.12579">
        <ele>783.23901367188</ele>
        <time>2009-09-23T13:17:31Z</time>
      </trkpt>
      <trkpt lat="44.88984" lon="5.12549">
        <ele>787.25</ele>
        <time>2009-09-23T13:17:48Z</time>
      </trkpt>
      <trkpt lat="44.88926" lon="5.12535">
        <ele>791.59698486328</ele>
        <time>2009-09-23T13:18:07Z</time>
      </trkpt>
      <trkpt lat="44.88903" lon="5.12491">
        <ele>794.84301757812</ele>
        <time>2009-09-23T13:18:21Z</time>
      </trkpt>
      <trkpt lat="44.88892" lon="5.12465">
        <ele>796.92199707031</ele>
        <time>2009-09-23T13:18:29Z</time>
      </trkpt>
      <trkpt lat="44.88869" lon="5.12409">
        <ele>800.27099609375</ele>
        <time>2009-09-23T13:18:44Z</time>
      </trkpt>
      <trkpt lat="44.8886" lon="5.12347">
        <ele>804.01898193359</ele>
        <time>2009-09-23T13:18:58Z</time>
      </trkpt>
      <trkpt lat="44.88851" lon="5.12285">
        <ele>807.27899169922</ele>
        <time>2009-09-23T13:19:13Z</time>
      </trkpt>
      <trkpt lat="44.88848" lon="5.12278">
        <ele>807.58001708984</ele>
        <time>2009-09-23T13:19:15Z</time>
      </trkpt>
      <trkpt lat="44.88839" lon="5.12286">
        <ele>808.71697998047</ele>
        <time>2009-09-23T13:19:21Z</time>
      </trkpt>
      <trkpt lat="44.88843" lon="5.12335">
        <ele>810.71398925781</ele>
        <time>2009-09-23T13:19:33Z</time>
      </trkpt>
      <trkpt lat="44.88847" lon="5.12405">
        <ele>815.27001953125</ele>
        <time>2009-09-23T13:19:48Z</time>
      </trkpt>
      <trkpt lat="44.88848" lon="5.12444">
        <ele>817.17700195312</ele>
        <time>2009-09-23T13:19:57Z</time>
      </trkpt>
      <trkpt lat="44.88857" lon="5.12477">
        <ele>819.14001464844</ele>
        <time>2009-09-23T13:20:05Z</time>
      </trkpt>
      <trkpt lat="44.88881" lon="5.12539">
        <ele>823.06597900391</ele>
        <time>2009-09-23T13:20:21Z</time>
      </trkpt>
      <trkpt lat="44.88895" lon="5.12579">
        <ele>825.75402832031</ele>
        <time>2009-09-23T13:20:32Z</time>
      </trkpt>
      <trkpt lat="44.88919" lon="5.12601">
        <ele>827.86700439453</ele>
        <time>2009-09-23T13:20:43Z</time>
      </trkpt>
      <trkpt lat="44.88945" lon="5.12618">
        <ele>829.73699951172</ele>
        <time>2009-09-23T13:20:55Z</time>
      </trkpt>
      <trkpt lat="44.88975" lon="5.12672">
        <ele>834.08197021484</ele>
        <time>2009-09-23T13:21:10Z</time>
      </trkpt>
      <trkpt lat="44.89015" lon="5.12757">
        <ele>839.16101074219</ele>
        <time>2009-09-23T13:21:30Z</time>
      </trkpt>
      <trkpt lat="44.89021" lon="5.12812">
        <ele>842.13299560547</ele>
        <time>2009-09-23T13:21:42Z</time>
      </trkpt>
      <trkpt lat="44.89012" lon="5.12877">
        <ele>846.17401123047</ele>
        <time>2009-09-23T13:21:56Z</time>
      </trkpt>
      <trkpt lat="44.89008" lon="5.12946">
        <ele>850.14599609375</ele>
        <time>2009-09-23T13:22:11Z</time>
      </trkpt>
      <trkpt lat="44.89004" lon="5.13015">
        <ele>854.36700439453</ele>
        <time>2009-09-23T13:22:27Z</time>
      </trkpt>
      <trkpt lat="44.89009" lon="5.13083">
        <ele>858.23699951172</ele>
        <time>2009-09-23T13:22:43Z</time>
      </trkpt>
      <trkpt lat="44.89025" lon="5.13136">
        <ele>861.44799804688</ele>
        <time>2009-09-23T13:22:57Z</time>
      </trkpt>
      <trkpt lat="44.89032" lon="5.13178">
        <ele>865.64001464844</ele>
        <time>2009-09-23T13:23:10Z</time>
      </trkpt>
      <trkpt lat="44.89036" lon="5.13237">
        <ele>868.46502685547</ele>
        <time>2009-09-23T13:23:23Z</time>
      </trkpt>
      <trkpt lat="44.89034" lon="5.13242">
        <ele>868.46697998047</ele>
        <time>2009-09-23T13:23:24Z</time>
      </trkpt>
      <trkpt lat="44.89005" lon="5.13245">
        <ele>870.29699707031</ele>
        <time>2009-09-23T13:23:33Z</time>
      </trkpt>
      <trkpt lat="44.89" lon="5.13238">
        <ele>870.93499755859</ele>
        <time>2009-09-23T13:23:35Z</time>
      </trkpt>
      <trkpt lat="44.88993" lon="5.13173">
        <ele>874.26300048828</ele>
        <time>2009-09-23T13:23:50Z</time>
      </trkpt>
      <trkpt lat="44.88969" lon="5.13109">
        <ele>877.8759765625</ele>
        <time>2009-09-23T13:24:06Z</time>
      </trkpt>
      <trkpt lat="44.88927" lon="5.13072">
        <ele>882.01599121094</ele>
        <time>2009-09-23T13:24:22Z</time>
      </trkpt>
      <trkpt lat="44.8888" lon="5.13069">
        <ele>885.18298339844</ele>
        <time>2009-09-23T13:24:37Z</time>
      </trkpt>
      <trkpt lat="44.88836" lon="5.13062">
        <ele>889.11700439453</ele>
        <time>2009-09-23T13:24:53Z</time>
      </trkpt>
      <trkpt lat="44.88831" lon="5.13065">
        <ele>889.67901611328</ele>
        <time>2009-09-23T13:24:55Z</time>
      </trkpt>
      <trkpt lat="44.88838" lon="5.13091">
        <ele>890.38897705078</ele>
        <time>2009-09-23T13:25:04Z</time>
      </trkpt>
      <trkpt lat="44.88841" lon="5.13091">
        <ele>890.42602539062</ele>
        <time>2009-09-23T13:25:05Z</time>
      </trkpt>
      <trkpt lat="44.88879" lon="5.13105">
        <ele>893.93902587891</ele>
        <time>2009-09-23T13:25:19Z</time>
      </trkpt>
      <trkpt lat="44.88929" lon="5.13155">
        <ele>897.041015625</ele>
        <time>2009-09-23T13:25:38Z</time>
      </trkpt>
      <trkpt lat="44.88945" lon="5.1321">
        <ele>900.25897216797</ele>
        <time>2009-09-23T13:25:52Z</time>
      </trkpt>
      <trkpt lat="44.88946" lon="5.1327">
        <ele>904.29797363281</ele>
        <time>2009-09-23T13:26:06Z</time>
      </trkpt>
      <trkpt lat="44.88973" lon="5.13328">
        <ele>908.44299316406</ele>
        <time>2009-09-23T13:26:22Z</time>
      </trkpt>
      <trkpt lat="44.88985" lon="5.13383">
        <ele>912.14898681641</ele>
        <time>2009-09-23T13:26:37Z</time>
      </trkpt>
      <trkpt lat="44.88953" lon="5.13413">
        <ele>915.49200439453</ele>
        <time>2009-09-23T13:26:52Z</time>
      </trkpt>
      <trkpt lat="44.88923" lon="5.13444">
        <ele>918.18798828125</ele>
        <time>2009-09-23T13:27:07Z</time>
      </trkpt>
      <trkpt lat="44.88898" lon="5.13483">
        <ele>920.70599365234</ele>
        <time>2009-09-23T13:27:21Z</time>
      </trkpt>
      <trkpt lat="44.88859" lon="5.13539">
        <ele>923.70001220703</ele>
        <time>2009-09-23T13:27:38Z</time>
      </trkpt>
      <trkpt lat="44.88805" lon="5.13609">
        <ele>927.29602050781</ele>
        <time>2009-09-23T13:27:59Z</time>
      </trkpt>
      <trkpt lat="44.88752" lon="5.13676">
        <ele>932.03900146484</ele>
        <time>2009-09-23T13:28:20Z</time>
      </trkpt>
      <trkpt lat="44.88714" lon="5.13728">
        <ele>935.61102294922</ele>
        <time>2009-09-23T13:28:35Z</time>
      </trkpt>
      <trkpt lat="44.88676" lon="5.13758">
        <ele>939.33099365234</ele>
        <time>2009-09-23T13:28:49Z</time>
      </trkpt>
      <trkpt lat="44.88635" lon="5.13778">
        <ele>943.36798095703</ele>
        <time>2009-09-23T13:29:05Z</time>
      </trkpt>
      <trkpt lat="44.88633" lon="5.13789">
        <ele>943.38000488281</ele>
        <time>2009-09-23T13:29:08Z</time>
      </trkpt>
      <trkpt lat="44.8865" lon="5.13802">
        <ele>944.06799316406</ele>
        <time>2009-09-23T13:29:15Z</time>
      </trkpt>
      <trkpt lat="44.8871" lon="5.1381">
        <ele>948.291015625</ele>
        <time>2009-09-23T13:29:34Z</time>
      </trkpt>
      <trkpt lat="44.88759" lon="5.1382">
        <ele>952.33599853516</ele>
        <time>2009-09-23T13:29:51Z</time>
      </trkpt>
      <trkpt lat="44.88801" lon="5.1385">
        <ele>955.31799316406</ele>
        <time>2009-09-23T13:30:06Z</time>
      </trkpt>
      <trkpt lat="44.88824" lon="5.13886">
        <ele>958.05999755859</ele>
        <time>2009-09-23T13:30:18Z</time>
      </trkpt>
      <trkpt lat="44.88863" lon="5.13936">
        <ele>962.04400634766</ele>
        <time>2009-09-23T13:30:35Z</time>
      </trkpt>
      <trkpt lat="44.88898" lon="5.13986">
        <ele>965.72497558594</ele>
        <time>2009-09-23T13:30:52Z</time>
      </trkpt>
      <trkpt lat="44.88914" lon="5.14043">
        <ele>970.34497070312</ele>
        <time>2009-09-23T13:31:08Z</time>
      </trkpt>
      <trkpt lat="44.88908" lon="5.141">
        <ele>973.35198974609</ele>
        <time>2009-09-23T13:31:23Z</time>
      </trkpt>
      <trkpt lat="44.88927" lon="5.14162">
        <ele>976.60400390625</ele>
        <time>2009-09-23T13:31:39Z</time>
      </trkpt>
      <trkpt lat="44.88931" lon="5.14218">
        <ele>979.83099365234</ele>
        <time>2009-09-23T13:31:54Z</time>
      </trkpt>
      <trkpt lat="44.88895" lon="5.14263">
        <ele>982.81799316406</ele>
        <time>2009-09-23T13:32:10Z</time>
      </trkpt>
      <trkpt lat="44.88839" lon="5.1431">
        <ele>986.88897705078</ele>
        <time>2009-09-23T13:32:30Z</time>
      </trkpt>
      <trkpt lat="44.88784" lon="5.14324">
        <ele>991.20599365234</ele>
        <time>2009-09-23T13:32:48Z</time>
      </trkpt>
      <trkpt lat="44.88726" lon="5.14313">
        <ele>996.00402832031</ele>
        <time>2009-09-23T13:33:06Z</time>
      </trkpt>
      <trkpt lat="44.88697" lon="5.14318">
        <ele>997.86901855469</ele>
        <time>2009-09-23T13:33:16Z</time>
      </trkpt>
      <trkpt lat="44.88692" lon="5.14316">
        <ele>997.94396972656</ele>
        <time>2009-09-23T13:33:18Z</time>
      </trkpt>
      <trkpt lat="44.88684" lon="5.14307">
        <ele>997.04400634766</ele>
        <time>2009-09-23T13:33:21Z</time>
      </trkpt>
      <trkpt lat="44.88671" lon="5.14288">
        <ele>995.85302734375</ele>
        <time>2009-09-23T13:33:25Z</time>
      </trkpt>
      <trkpt lat="44.88658" lon="5.1427">
        <ele>995.03302001953</ele>
        <time>2009-09-23T13:33:28Z</time>
      </trkpt>
      <trkpt lat="44.88647" lon="5.14261">
        <ele>993.43597412109</ele>
        <time>2009-09-23T13:33:30Z</time>
      </trkpt>
      <trkpt lat="44.88597" lon="5.14233">
        <ele>987.20098876953</ele>
        <time>2009-09-23T13:33:36Z</time>
      </trkpt>
      <trkpt lat="44.88554" lon="5.14222">
        <ele>983.91198730469</ele>
        <time>2009-09-23T13:33:40Z</time>
      </trkpt>
      <trkpt lat="44.88532" lon="5.14228">
        <ele>982.29901123047</ele>
        <time>2009-09-23T13:33:42Z</time>
      </trkpt>
      <trkpt lat="44.88521" lon="5.14232">
        <ele>982.00402832031</ele>
        <time>2009-09-23T13:33:43Z</time>
      </trkpt>
      <trkpt lat="44.88477" lon="5.14255">
        <ele>977.26000976562</ele>
        <time>2009-09-23T13:33:47Z</time>
      </trkpt>
      <trkpt lat="44.88439" lon="5.14274">
        <ele>972.58898925781</ele>
        <time>2009-09-23T13:33:50Z</time>
      </trkpt>
      <trkpt lat="44.88392" lon="5.14267">
        <ele>975.14300537109</ele>
        <time>2009-09-23T13:33:54Z</time>
      </trkpt>
      <trkpt lat="44.88323" lon="5.1424">
        <ele>983.70697021484</ele>
        <time>2009-09-23T13:34:04Z</time>
      </trkpt>
      <trkpt lat="44.88313" lon="5.14238">
        <ele>984.57897949219</ele>
        <time>2009-09-23T13:34:06Z</time>
      </trkpt>
      <trkpt lat="44.88294" lon="5.14226">
        <ele>986.27099609375</ele>
        <time>2009-09-23T13:34:10Z</time>
      </trkpt>
      <trkpt lat="44.88261" lon="5.14204">
        <ele>988.05102539062</ele>
        <time>2009-09-23T13:34:17Z</time>
      </trkpt>
      <trkpt lat="44.88251" lon="5.14199">
        <ele>987.62298583984</ele>
        <time>2009-09-23T13:34:19Z</time>
      </trkpt>
      <trkpt lat="44.88162" lon="5.14207">
        <ele>989.51599121094</ele>
        <time>2009-09-23T13:34:34Z</time>
      </trkpt>
      <trkpt lat="44.8814" lon="5.14213">
        <ele>989.01300048828</ele>
        <time>2009-09-23T13:34:38Z</time>
      </trkpt>
      <trkpt lat="44.88111" lon="5.14265">
        <ele>985.33898925781</ele>
        <time>2009-09-23T13:34:45Z</time>
      </trkpt>
      <trkpt lat="44.8813" lon="5.14327">
        <ele>979.98999023438</ele>
        <time>2009-09-23T13:34:50Z</time>
      </trkpt>
      <trkpt lat="44.88136" lon="5.14387">
        <ele>976.27502441406</ele>
        <time>2009-09-23T13:34:56Z</time>
      </trkpt>
      <trkpt lat="44.88095" lon="5.14385">
        <ele>969.83801269531</ele>
        <time>2009-09-23T13:35:00Z</time>
      </trkpt>
      <trkpt lat="44.88075" lon="5.14364">
        <ele>968.77398681641</ele>
        <time>2009-09-23T13:35:02Z</time>
      </trkpt>
      <trkpt lat="44.88065" lon="5.14356">
        <ele>967.77398681641</ele>
        <time>2009-09-23T13:35:03Z</time>
      </trkpt>
      <trkpt lat="44.88011" lon="5.1434">
        <ele>968.02197265625</ele>
        <time>2009-09-23T13:35:08Z</time>
      </trkpt>
      <trkpt lat="44.87992" lon="5.14358">
        <ele>967.76300048828</ele>
        <time>2009-09-23T13:35:10Z</time>
      </trkpt>
      <trkpt lat="44.87986" lon="5.14369">
        <ele>967.53997802734</ele>
        <time>2009-09-23T13:35:11Z</time>
      </trkpt>
      <trkpt lat="44.87931" lon="5.1443">
        <ele>969.56799316406</ele>
        <time>2009-09-23T13:35:19Z</time>
      </trkpt>
      <trkpt lat="44.87888" lon="5.14432">
        <ele>972.1240234375</ele>
        <time>2009-09-23T13:35:26Z</time>
      </trkpt>
      <trkpt lat="44.87844" lon="5.14411">
        <ele>974.85601806641</ele>
        <time>2009-09-23T13:35:35Z</time>
      </trkpt>
      <trkpt lat="44.87817" lon="5.14405">
        <ele>976.42102050781</ele>
        <time>2009-09-23T13:35:40Z</time>
      </trkpt>
      <trkpt lat="44.87792" lon="5.14405">
        <ele>978.54797363281</ele>
        <time>2009-09-23T13:35:45Z</time>
      </trkpt>
      <trkpt lat="44.87774" lon="5.14403">
        <ele>979.97802734375</ele>
        <time>2009-09-23T13:35:49Z</time>
      </trkpt>
      <trkpt lat="44.87754" lon="5.1439">
        <ele>982.65997314453</ele>
        <time>2009-09-23T13:35:55Z</time>
      </trkpt>
      <trkpt lat="44.87734" lon="5.14375">
        <ele>984.56097412109</ele>
        <time>2009-09-23T13:36:02Z</time>
      </trkpt>
      <trkpt lat="44.87693" lon="5.14367">
        <ele>988.00201416016</ele>
        <time>2009-09-23T13:36:14Z</time>
      </trkpt>
      <trkpt lat="44.87663" lon="5.1435">
        <ele>989.93298339844</ele>
        <time>2009-09-23T13:36:23Z</time>
      </trkpt>
      <trkpt lat="44.87635" lon="5.14297">
        <ele>990.00701904297</ele>
        <time>2009-09-23T13:36:35Z</time>
      </trkpt>
      <trkpt lat="44.87621" lon="5.14268">
        <ele>987.77099609375</ele>
        <time>2009-09-23T13:36:39Z</time>
      </trkpt>
      <trkpt lat="44.87608" lon="5.14216">
        <ele>984.80499267578</ele>
        <time>2009-09-23T13:36:44Z</time>
      </trkpt>
      <trkpt lat="44.87615" lon="5.1414">
        <ele>981.06701660156</ele>
        <time>2009-09-23T13:36:50Z</time>
      </trkpt>
      <trkpt lat="44.87603" lon="5.14044">
        <ele>971.56799316406</ele>
        <time>2009-09-23T13:36:56Z</time>
      </trkpt>
      <trkpt lat="44.87585" lon="5.14021">
        <ele>969.96301269531</ele>
        <time>2009-09-23T13:36:58Z</time>
      </trkpt>
      <trkpt lat="44.87573" lon="5.14017">
        <ele>968.85900878906</ele>
        <time>2009-09-23T13:36:59Z</time>
      </trkpt>
      <trkpt lat="44.8756" lon="5.14014">
        <ele>966.92901611328</ele>
        <time>2009-09-23T13:37:00Z</time>
      </trkpt>
      <trkpt lat="44.87534" lon="5.14012">
        <ele>962.70202636719</ele>
        <time>2009-09-23T13:37:02Z</time>
      </trkpt>
      <trkpt lat="44.87461" lon="5.14001">
        <ele>953.21600341797</ele>
        <time>2009-09-23T13:37:07Z</time>
      </trkpt>
      <trkpt lat="44.87382" lon="5.13934">
        <ele>944.50598144531</ele>
        <time>2009-09-23T13:37:13Z</time>
      </trkpt>
      <trkpt lat="44.87322" lon="5.13867">
        <ele>938.96801757812</ele>
        <time>2009-09-23T13:37:18Z</time>
      </trkpt>
      <trkpt lat="44.87234" lon="5.13853">
        <ele>928.77600097656</ele>
        <time>2009-09-23T13:37:24Z</time>
      </trkpt>
      <trkpt lat="44.8721" lon="5.1384">
        <ele>927.03802490234</ele>
        <time>2009-09-23T13:37:26Z</time>
      </trkpt>
      <trkpt lat="44.87163" lon="5.13773">
        <ele>923.42199707031</ele>
        <time>2009-09-23T13:37:31Z</time>
      </trkpt>
      <trkpt lat="44.87087" lon="5.13624">
        <ele>913.33898925781</ele>
        <time>2009-09-23T13:37:40Z</time>
      </trkpt>
      <trkpt lat="44.87066" lon="5.13597">
        <ele>912.416015625</ele>
        <time>2009-09-23T13:37:42Z</time>
      </trkpt>
      <trkpt lat="44.8704" lon="5.13583">
        <ele>911.90301513672</ele>
        <time>2009-09-23T13:37:44Z</time>
      </trkpt>
      <trkpt lat="44.86954" lon="5.1354">
        <ele>898.70501708984</ele>
        <time>2009-09-23T13:37:50Z</time>
      </trkpt>
      <trkpt lat="44.86889" lon="5.13508">
        <ele>887.20001220703</ele>
        <time>2009-09-23T13:37:54Z</time>
      </trkpt>
      <trkpt lat="44.8683" lon="5.13453">
        <ele>880.20300292969</ele>
        <time>2009-09-23T13:37:58Z</time>
      </trkpt>
      <trkpt lat="44.86818" lon="5.13436">
        <ele>878.94000244141</ele>
        <time>2009-09-23T13:37:59Z</time>
      </trkpt>
      <trkpt lat="44.86754" lon="5.13327">
        <ele>872.35302734375</ele>
        <time>2009-09-23T13:38:05Z</time>
      </trkpt>
      <trkpt lat="44.86691" lon="5.13262">
        <ele>869.71899414062</ele>
        <time>2009-09-23T13:38:10Z</time>
      </trkpt>
      <trkpt lat="44.86606" lon="5.13194">
        <ele>867.97497558594</ele>
        <time>2009-09-23T13:38:17Z</time>
      </trkpt>
      <trkpt lat="44.86532" lon="5.13095">
        <ele>863.18798828125</ele>
        <time>2009-09-23T13:38:25Z</time>
      </trkpt>
      <trkpt lat="44.86448" lon="5.13021">
        <ele>860.60601806641</ele>
        <time>2009-09-23T13:38:33Z</time>
      </trkpt>
      <trkpt lat="44.86401" lon="5.1295">
        <ele>862.94598388672</ele>
        <time>2009-09-23T13:38:40Z</time>
      </trkpt>
      <trkpt lat="44.86373" lon="5.12923">
        <ele>865.95599365234</ele>
        <time>2009-09-23T13:38:45Z</time>
      </trkpt>
      <trkpt lat="44.86327" lon="5.12897">
        <ele>866.45001220703</ele>
        <time>2009-09-23T13:38:52Z</time>
      </trkpt>
      <trkpt lat="44.86297" lon="5.12866">
        <ele>866.9580078125</ele>
        <time>2009-09-23T13:38:57Z</time>
      </trkpt>
      <trkpt lat="44.86272" lon="5.12847">
        <ele>867.98797607422</ele>
        <time>2009-09-23T13:39:01Z</time>
      </trkpt>
      <trkpt lat="44.86221" lon="5.12833">
        <ele>865.78698730469</ele>
        <time>2009-09-23T13:39:08Z</time>
      </trkpt>
      <trkpt lat="44.86196" lon="5.12829">
        <ele>864.52801513672</ele>
        <time>2009-09-23T13:39:11Z</time>
      </trkpt>
      <trkpt lat="44.86093" lon="5.12814">
        <ele>865.8740234375</ele>
        <time>2009-09-23T13:39:23Z</time>
      </trkpt>
      <trkpt lat="44.86051" lon="5.12809">
        <ele>870.25799560547</ele>
        <time>2009-09-23T13:39:31Z</time>
      </trkpt>
      <trkpt lat="44.86041" lon="5.12808">
        <ele>871.02398681641</ele>
        <time>2009-09-23T13:39:33Z</time>
      </trkpt>
      <trkpt lat="44.86003" lon="5.12798">
        <ele>872.95098876953</ele>
        <time>2009-09-23T13:39:41Z</time>
      </trkpt>
      <trkpt lat="44.85947" lon="5.12775">
        <ele>875.78302001953</ele>
        <time>2009-09-23T13:39:52Z</time>
      </trkpt>
      <trkpt lat="44.85897" lon="5.12751">
        <ele>876.91101074219</ele>
        <time>2009-09-23T13:40:02Z</time>
      </trkpt>
      <trkpt lat="44.85829" lon="5.12718">
        <ele>874.55999755859</ele>
        <time>2009-09-23T13:40:13Z</time>
      </trkpt>
      <trkpt lat="44.85792" lon="5.12715">
        <ele>870.90698242188</ele>
        <time>2009-09-23T13:40:17Z</time>
      </trkpt>
      <trkpt lat="44.8577" lon="5.12718">
        <ele>868.91198730469</ele>
        <time>2009-09-23T13:40:19Z</time>
      </trkpt>
      <trkpt lat="44.85748" lon="5.12715">
        <ele>868.041015625</ele>
        <time>2009-09-23T13:40:21Z</time>
      </trkpt>
      <trkpt lat="44.85726" lon="5.12708">
        <ele>867.73199462891</ele>
        <time>2009-09-23T13:40:23Z</time>
      </trkpt>
      <trkpt lat="44.85624" lon="5.12679">
        <ele>868.66900634766</ele>
        <time>2009-09-23T13:40:33Z</time>
      </trkpt>
      <trkpt lat="44.85526" lon="5.12659">
        <ele>870.73602294922</ele>
        <time>2009-09-23T13:40:44Z</time>
      </trkpt>
      <trkpt lat="44.85438" lon="5.12641">
        <ele>876.18597412109</ele>
        <time>2009-09-23T13:40:57Z</time>
      </trkpt>
      <trkpt lat="44.85429" lon="5.12638">
        <ele>877.42797851562</ele>
        <time>2009-09-23T13:41:00Z</time>
      </trkpt>
      <trkpt lat="44.85383" lon="5.12621">
        <ele>880.57598876953</ele>
        <time>2009-09-23T13:41:15Z</time>
      </trkpt>
      <trkpt lat="44.85357" lon="5.12614">
        <ele>881.83697509766</ele>
        <time>2009-09-23T13:41:22Z</time>
      </trkpt>
      <trkpt lat="44.8528" lon="5.12603">
        <ele>883.83099365234</ele>
        <time>2009-09-23T13:41:38Z</time>
      </trkpt>
      <trkpt lat="44.85271" lon="5.12602">
        <ele>884.85900878906</ele>
        <time>2009-09-23T13:41:40Z</time>
      </trkpt>
      <trkpt lat="44.85197" lon="5.12587">
        <ele>889.07202148438</ele>
        <time>2009-09-23T13:41:58Z</time>
      </trkpt>
      <trkpt lat="44.85142" lon="5.12612">
        <ele>893.56500244141</ele>
        <time>2009-09-23T13:42:12Z</time>
      </trkpt>
      <trkpt lat="44.85083" lon="5.12644">
        <ele>897.00897216797</ele>
        <time>2009-09-23T13:42:27Z</time>
      </trkpt>
      <trkpt lat="44.85058" lon="5.12655">
        <ele>898.04998779297</ele>
        <time>2009-09-23T13:42:33Z</time>
      </trkpt>
      <trkpt lat="44.85038" lon="5.12658">
        <ele>898.54901123047</ele>
        <time>2009-09-23T13:42:37Z</time>
      </trkpt>
      <trkpt lat="44.84979" lon="5.12621">
        <ele>900.15301513672</ele>
        <time>2009-09-23T13:42:50Z</time>
      </trkpt>
      <trkpt lat="44.84964" lon="5.12608">
        <ele>899.55499267578</ele>
        <time>2009-09-23T13:42:53Z</time>
      </trkpt>
      <trkpt lat="44.84932" lon="5.12556">
        <ele>898.26397705078</ele>
        <time>2009-09-23T13:43:00Z</time>
      </trkpt>
      <trkpt lat="44.84859" lon="5.12431">
        <ele>895.72100830078</ele>
        <time>2009-09-23T13:43:14Z</time>
      </trkpt>
      <trkpt lat="44.84831" lon="5.12395">
        <ele>893.93499755859</ele>
        <time>2009-09-23T13:43:18Z</time>
      </trkpt>
      <trkpt lat="44.8476" lon="5.12332">
        <ele>893.70397949219</ele>
        <time>2009-09-23T13:43:27Z</time>
      </trkpt>
      <trkpt lat="44.84665" lon="5.12278">
        <ele>895.44702148438</ele>
        <time>2009-09-23T13:43:39Z</time>
      </trkpt>
      <trkpt lat="44.84616" lon="5.12246">
        <ele>896.71997070312</ele>
        <time>2009-09-23T13:43:45Z</time>
      </trkpt>
      <trkpt lat="44.84593" lon="5.12178">
        <ele>896.11999511719</ele>
        <time>2009-09-23T13:43:52Z</time>
      </trkpt>
      <trkpt lat="44.84581" lon="5.12092">
        <ele>894.4580078125</ele>
        <time>2009-09-23T13:43:59Z</time>
      </trkpt>
      <trkpt lat="44.84558" lon="5.12039">
        <ele>896.05102539062</ele>
        <time>2009-09-23T13:44:04Z</time>
      </trkpt>
      <trkpt lat="44.84506" lon="5.11949">
        <ele>892.85400390625</ele>
        <time>2009-09-23T13:44:14Z</time>
      </trkpt>
      <trkpt lat="44.8444" lon="5.11808">
        <ele>881.68902587891</ele>
        <time>2009-09-23T13:44:24Z</time>
      </trkpt>
      <trkpt lat="44.84414" lon="5.11739">
        <ele>876.21002197266</ele>
        <time>2009-09-23T13:44:28Z</time>
      </trkpt>
      <trkpt lat="44.84385" lon="5.11647">
        <ele>870.12298583984</ele>
        <time>2009-09-23T13:44:33Z</time>
      </trkpt>
      <trkpt lat="44.84359" lon="5.11595">
        <ele>865.19702148438</ele>
        <time>2009-09-23T13:44:36Z</time>
      </trkpt>
      <trkpt lat="44.84349" lon="5.1158">
        <ele>864.14697265625</ele>
        <time>2009-09-23T13:44:37Z</time>
      </trkpt>
      <trkpt lat="44.843" lon="5.11529">
        <ele>861.44396972656</ele>
        <time>2009-09-23T13:44:41Z</time>
      </trkpt>
      <trkpt lat="44.84274" lon="5.11507">
        <ele>858.88397216797</ele>
        <time>2009-09-23T13:44:43Z</time>
      </trkpt>
      <trkpt lat="44.84261" lon="5.11494">
        <ele>857.6669921875</ele>
        <time>2009-09-23T13:44:44Z</time>
      </trkpt>
      <trkpt lat="44.8422" lon="5.11432">
        <ele>854.18402099609</ele>
        <time>2009-09-23T13:44:48Z</time>
      </trkpt>
      <trkpt lat="44.84161" lon="5.11336">
        <ele>850.15698242188</ele>
        <time>2009-09-23T13:44:54Z</time>
      </trkpt>
      <trkpt lat="44.84104" lon="5.11282">
        <ele>848.72998046875</ele>
        <time>2009-09-23T13:44:59Z</time>
      </trkpt>
      <trkpt lat="44.84009" lon="5.11229">
        <ele>848.28002929688</ele>
        <time>2009-09-23T13:45:07Z</time>
      </trkpt>
      <trkpt lat="44.83973" lon="5.11189">
        <ele>847.98699951172</ele>
        <time>2009-09-23T13:45:11Z</time>
      </trkpt>
      <trkpt lat="44.83959" lon="5.11165">
        <ele>847.85101318359</ele>
        <time>2009-09-23T13:45:13Z</time>
      </trkpt>
      <trkpt lat="44.83942" lon="5.11128">
        <ele>847.64898681641</ele>
        <time>2009-09-23T13:45:16Z</time>
      </trkpt>
      <trkpt lat="44.83933" lon="5.11092">
        <ele>849.11499023438</ele>
        <time>2009-09-23T13:45:19Z</time>
      </trkpt>
      <trkpt lat="44.83931" lon="5.11081">
        <ele>850.36297607422</ele>
        <time>2009-09-23T13:45:20Z</time>
      </trkpt>
      <trkpt lat="44.83928" lon="5.11054">
        <ele>851.70599365234</ele>
        <time>2009-09-23T13:45:23Z</time>
      </trkpt>
      <trkpt lat="44.83924" lon="5.1103">
        <ele>853.06201171875</ele>
        <time>2009-09-23T13:45:26Z</time>
      </trkpt>
      <trkpt lat="44.83913" lon="5.11004">
        <ele>853.10601806641</ele>
        <time>2009-09-23T13:45:30Z</time>
      </trkpt>
      <trkpt lat="44.83844" lon="5.10909">
        <ele>851.52398681641</ele>
        <time>2009-09-23T13:45:44Z</time>
      </trkpt>
      <trkpt lat="44.8381" lon="5.10863">
        <ele>850.42498779297</ele>
        <time>2009-09-23T13:45:50Z</time>
      </trkpt>
      <trkpt lat="44.83804" lon="5.10855">
        <ele>849.97497558594</ele>
        <time>2009-09-23T13:45:51Z</time>
      </trkpt>
      <trkpt lat="44.83766" lon="5.10821">
        <ele>849.24298095703</ele>
        <time>2009-09-23T13:45:56Z</time>
      </trkpt>
      <trkpt lat="44.83683" lon="5.10736">
        <ele>848.78100585938</ele>
        <time>2009-09-23T13:46:08Z</time>
      </trkpt>
      <trkpt lat="44.83621" lon="5.10677">
        <ele>844.66998291016</ele>
        <time>2009-09-23T13:46:17Z</time>
      </trkpt>
      <trkpt lat="44.83614" lon="5.10672">
        <ele>844.44598388672</ele>
        <time>2009-09-23T13:46:18Z</time>
      </trkpt>
      <trkpt lat="44.83604" lon="5.1066">
        <ele>843.95098876953</ele>
        <time>2009-09-23T13:46:20Z</time>
      </trkpt>
      <trkpt lat="44.83598" lon="5.10649">
        <ele>843.51599121094</ele>
        <time>2009-09-23T13:46:25Z</time>
      </trkpt>
      <trkpt lat="44.83599" lon="5.10649">
        <ele>843.62097167969</ele>
        <time>2009-09-23T13:47:50Z</time>
      </trkpt>
      <trkpt lat="44.83598" lon="5.10644">
        <ele>843.32501220703</ele>
        <time>2009-09-23T13:47:52Z</time>
      </trkpt>
      <trkpt lat="44.83589" lon="5.10649">
        <ele>843.45001220703</ele>
        <time>2009-09-23T13:48:00Z</time>
      </trkpt>
      <trkpt lat="44.83593" lon="5.10653">
        <ele>843.67199707031</ele>
        <time>2009-09-23T13:48:02Z</time>
      </trkpt>
      <trkpt lat="44.83633" lon="5.10693">
        <ele>846.33898925781</ele>
        <time>2009-09-23T13:48:16Z</time>
      </trkpt>
      <trkpt lat="44.83641" lon="5.107">
        <ele>846.98797607422</ele>
        <time>2009-09-23T13:48:22Z</time>
      </trkpt>
      <trkpt lat="44.83669" lon="5.10726">
        <ele>848.64697265625</ele>
        <time>2009-09-23T13:48:33Z</time>
      </trkpt>
      <trkpt lat="44.83689" lon="5.10747">
        <ele>849.83099365234</ele>
        <time>2009-09-23T13:48:39Z</time>
      </trkpt>
      <trkpt lat="44.83711" lon="5.10768">
        <ele>851.00897216797</ele>
        <time>2009-09-23T13:48:45Z</time>
      </trkpt>
      <trkpt lat="44.83729" lon="5.10784">
        <ele>850.91302490234</ele>
        <time>2009-09-23T13:48:50Z</time>
      </trkpt>
      <trkpt lat="44.83788" lon="5.10845">
        <ele>850.75402832031</ele>
        <time>2009-09-23T13:49:04Z</time>
      </trkpt>
      <trkpt lat="44.83844" lon="5.10917">
        <ele>852.41998291016</ele>
        <time>2009-09-23T13:49:18Z</time>
      </trkpt>
      <trkpt lat="44.83921" lon="5.11022">
        <ele>853.7919921875</ele>
        <time>2009-09-23T13:49:37Z</time>
      </trkpt>
      <trkpt lat="44.83931" lon="5.11053">
        <ele>853.07501220703</ele>
        <time>2009-09-23T13:49:41Z</time>
      </trkpt>
      <trkpt lat="44.83938" lon="5.11106">
        <ele>849.66497802734</ele>
        <time>2009-09-23T13:49:46Z</time>
      </trkpt>
      <trkpt lat="44.83956" lon="5.11164">
        <ele>847.6669921875</ele>
        <time>2009-09-23T13:49:51Z</time>
      </trkpt>
      <trkpt lat="44.84004" lon="5.11236">
        <ele>848.08801269531</ele>
        <time>2009-09-23T13:50:00Z</time>
      </trkpt>
      <trkpt lat="44.84092" lon="5.11287">
        <ele>849.33197021484</ele>
        <time>2009-09-23T13:50:16Z</time>
      </trkpt>
      <trkpt lat="44.84141" lon="5.11317">
        <ele>850.60998535156</ele>
        <time>2009-09-23T13:50:26Z</time>
      </trkpt>
      <trkpt lat="44.84191" lon="5.11393">
        <ele>853.78900146484</ele>
        <time>2009-09-23T13:50:41Z</time>
      </trkpt>
      <trkpt lat="44.8425" lon="5.1149">
        <ele>859.03002929688</ele>
        <time>2009-09-23T13:51:02Z</time>
      </trkpt>
      <trkpt lat="44.84274" lon="5.11516">
        <ele>861.28399658203</ele>
        <time>2009-09-23T13:51:14Z</time>
      </trkpt>
      <trkpt lat="44.84309" lon="5.11547">
        <ele>864.29699707031</ele>
        <time>2009-09-23T13:51:27Z</time>
      </trkpt>
      <trkpt lat="44.84358" lon="5.11598">
        <ele>868.06896972656</ele>
        <time>2009-09-23T13:51:44Z</time>
      </trkpt>
      <trkpt lat="44.84394" lon="5.11679">
        <ele>873.94897460938</ele>
        <time>2009-09-23T13:52:03Z</time>
      </trkpt>
      <trkpt lat="44.84397" lon="5.11687">
        <ele>875.01300048828</ele>
        <time>2009-09-23T13:52:05Z</time>
      </trkpt>
      <trkpt lat="44.84422" lon="5.11771">
        <ele>880.29302978516</ele>
        <time>2009-09-23T13:52:24Z</time>
      </trkpt>
      <trkpt lat="44.84454" lon="5.11845">
        <ele>885.41101074219</ele>
        <time>2009-09-23T13:52:43Z</time>
      </trkpt>
      <trkpt lat="44.84484" lon="5.11908">
        <ele>890.27398681641</ele>
        <time>2009-09-23T13:53:01Z</time>
      </trkpt>
      <trkpt lat="44.84512" lon="5.11966">
        <ele>895.05401611328</ele>
        <time>2009-09-23T13:53:18Z</time>
      </trkpt>
      <trkpt lat="44.84541" lon="5.12016">
        <ele>898.19201660156</ele>
        <time>2009-09-23T13:53:33Z</time>
      </trkpt>
      <trkpt lat="44.84578" lon="5.12086">
        <ele>896.89300537109</ele>
        <time>2009-09-23T13:53:46Z</time>
      </trkpt>
      <trkpt lat="44.84595" lon="5.12179">
        <ele>898.01702880859</ele>
        <time>2009-09-23T13:53:58Z</time>
      </trkpt>
      <trkpt lat="44.84594" lon="5.12187">
        <ele>898.21697998047</ele>
        <time>2009-09-23T13:53:59Z</time>
      </trkpt>
      <trkpt lat="44.84604" lon="5.12235">
        <ele>898.52697753906</ele>
        <time>2009-09-23T13:54:06Z</time>
      </trkpt>
      <trkpt lat="44.84621" lon="5.12257">
        <ele>897.61798095703</ele>
        <time>2009-09-23T13:54:10Z</time>
      </trkpt>
      <trkpt lat="44.847" lon="5.12304">
        <ele>896.04699707031</ele>
        <time>2009-09-23T13:54:23Z</time>
      </trkpt>
      <trkpt lat="44.84798" lon="5.12371">
        <ele>894.19799804688</ele>
        <time>2009-09-23T13:54:38Z</time>
      </trkpt>
      <trkpt lat="44.84845" lon="5.12413">
        <ele>895.28698730469</ele>
        <time>2009-09-23T13:54:46Z</time>
      </trkpt>
      <trkpt lat="44.84863" lon="5.12438">
        <ele>896.60601806641</ele>
        <time>2009-09-23T13:54:50Z</time>
      </trkpt>
      <trkpt lat="44.84919" lon="5.12538">
        <ele>899.60498046875</ele>
        <time>2009-09-23T13:55:05Z</time>
      </trkpt>
      <trkpt lat="44.84951" lon="5.12597">
        <ele>900.05499267578</ele>
        <time>2009-09-23T13:55:13Z</time>
      </trkpt>
      <trkpt lat="44.8502" lon="5.12659">
        <ele>900.166015625</ele>
        <time>2009-09-23T13:55:26Z</time>
      </trkpt>
      <trkpt lat="44.85027" lon="5.12662">
        <ele>899.70397949219</ele>
        <time>2009-09-23T13:55:27Z</time>
      </trkpt>
      <trkpt lat="44.85057" lon="5.12663">
        <ele>898.02398681641</ele>
        <time>2009-09-23T13:55:31Z</time>
      </trkpt>
      <trkpt lat="44.85162" lon="5.12608">
        <ele>892.56097412109</ele>
        <time>2009-09-23T13:55:45Z</time>
      </trkpt>
      <trkpt lat="44.85179" lon="5.12598">
        <ele>891.00799560547</ele>
        <time>2009-09-23T13:55:47Z</time>
      </trkpt>
      <trkpt lat="44.85207" lon="5.12594">
        <ele>889.76501464844</ele>
        <time>2009-09-23T13:55:50Z</time>
      </trkpt>
      <trkpt lat="44.85226" lon="5.12597">
        <ele>888.67700195312</ele>
        <time>2009-09-23T13:55:52Z</time>
      </trkpt>
      <trkpt lat="44.85275" lon="5.12607">
        <ele>886.51397705078</ele>
        <time>2009-09-23T13:55:57Z</time>
      </trkpt>
      <trkpt lat="44.85338" lon="5.12616">
        <ele>883.39898681641</ele>
        <time>2009-09-23T13:56:03Z</time>
      </trkpt>
      <trkpt lat="44.85358" lon="5.1262">
        <ele>883.03198242188</ele>
        <time>2009-09-23T13:56:05Z</time>
      </trkpt>
      <trkpt lat="44.85395" lon="5.1263">
        <ele>880.96002197266</ele>
        <time>2009-09-23T13:56:09Z</time>
      </trkpt>
      <trkpt lat="44.85464" lon="5.12654">
        <ele>874.59802246094</ele>
        <time>2009-09-23T13:56:16Z</time>
      </trkpt>
      <trkpt lat="44.85578" lon="5.12673">
        <ele>871.46301269531</ele>
        <time>2009-09-23T13:56:27Z</time>
      </trkpt>
      <trkpt lat="44.85621" lon="5.12683">
        <ele>870.53497314453</ele>
        <time>2009-09-23T13:56:32Z</time>
      </trkpt>
      <trkpt lat="44.85671" lon="5.12693">
        <ele>869.94299316406</ele>
        <time>2009-09-23T13:56:38Z</time>
      </trkpt>
      <trkpt lat="44.85696" lon="5.12699">
        <ele>869.79699707031</ele>
        <time>2009-09-23T13:56:41Z</time>
      </trkpt>
      <trkpt lat="44.85763" lon="5.12724">
        <ele>870.42498779297</ele>
        <time>2009-09-23T13:56:50Z</time>
      </trkpt>
      <trkpt lat="44.85798" lon="5.12721">
        <ele>872.70397949219</ele>
        <time>2009-09-23T13:56:56Z</time>
      </trkpt>
      <trkpt lat="44.85803" lon="5.12721">
        <ele>872.79602050781</ele>
        <time>2009-09-23T13:56:57Z</time>
      </trkpt>
      <trkpt lat="44.85815" lon="5.1272">
        <ele>874.53302001953</ele>
        <time>2009-09-23T13:57:00Z</time>
      </trkpt>
      <trkpt lat="44.85832" lon="5.12722">
        <ele>876.22802734375</ele>
        <time>2009-09-23T13:57:05Z</time>
      </trkpt>
      <trkpt lat="44.85856" lon="5.12732">
        <ele>877.9169921875</ele>
        <time>2009-09-23T13:57:12Z</time>
      </trkpt>
      <trkpt lat="44.85892" lon="5.12751">
        <ele>879.13598632812</ele>
        <time>2009-09-23T13:57:21Z</time>
      </trkpt>
      <trkpt lat="44.85961" lon="5.12787">
        <ele>877.10797119141</ele>
        <time>2009-09-23T13:57:34Z</time>
      </trkpt>
      <trkpt lat="44.86043" lon="5.12814">
        <ele>873.30999755859</ele>
        <time>2009-09-23T13:57:45Z</time>
      </trkpt>
      <trkpt lat="44.86111" lon="5.12824">
        <ele>866.67700195312</ele>
        <time>2009-09-23T13:57:52Z</time>
      </trkpt>
      <trkpt lat="44.86174" lon="5.12834">
        <ele>865.27197265625</ele>
        <time>2009-09-23T13:57:58Z</time>
      </trkpt>
      <trkpt lat="44.8625" lon="5.12846">
        <ele>869.02301025391</ele>
        <time>2009-09-23T13:58:07Z</time>
      </trkpt>
      <trkpt lat="44.863" lon="5.12872">
        <ele>869.46997070312</ele>
        <time>2009-09-23T13:58:14Z</time>
      </trkpt>
      <trkpt lat="44.86333" lon="5.12906">
        <ele>868.40002441406</ele>
        <time>2009-09-23T13:58:19Z</time>
      </trkpt>
      <trkpt lat="44.86391" lon="5.12942">
        <ele>868.22302246094</ele>
        <time>2009-09-23T13:58:27Z</time>
      </trkpt>
      <trkpt lat="44.86415" lon="5.12973">
        <ele>865.68298339844</ele>
        <time>2009-09-23T13:58:31Z</time>
      </trkpt>
      <trkpt lat="44.86488" lon="5.13058">
        <ele>864.65802001953</ele>
        <time>2009-09-23T13:58:42Z</time>
      </trkpt>
      <trkpt lat="44.86526" lon="5.13089">
        <ele>866.47198486328</ele>
        <time>2009-09-23T13:58:48Z</time>
      </trkpt>
      <trkpt lat="44.86549" lon="5.13119">
        <ele>867.14801025391</ele>
        <time>2009-09-23T13:58:53Z</time>
      </trkpt>
      <trkpt lat="44.86599" lon="5.13191">
        <ele>870.90997314453</ele>
        <time>2009-09-23T13:59:07Z</time>
      </trkpt>
      <trkpt lat="44.86612" lon="5.13206">
        <ele>872.36297607422</ele>
        <time>2009-09-23T13:59:10Z</time>
      </trkpt>
      <trkpt lat="44.86671" lon="5.13253">
        <ele>873.92199707031</ele>
        <time>2009-09-23T13:59:24Z</time>
      </trkpt>
      <trkpt lat="44.86711" lon="5.13285">
        <ele>874.88299560547</ele>
        <time>2009-09-23T13:59:33Z</time>
      </trkpt>
      <trkpt lat="44.86761" lon="5.13336">
        <ele>878.42999267578</ele>
        <time>2009-09-23T13:59:48Z</time>
      </trkpt>
      <trkpt lat="44.86802" lon="5.13405">
        <ele>882.47998046875</ele>
        <time>2009-09-23T14:00:08Z</time>
      </trkpt>
      <trkpt lat="44.86835" lon="5.1346">
        <ele>886.58697509766</ele>
        <time>2009-09-23T14:00:25Z</time>
      </trkpt>
      <trkpt lat="44.86877" lon="5.13506">
        <ele>891.45001220703</ele>
        <time>2009-09-23T14:00:44Z</time>
      </trkpt>
      <trkpt lat="44.86904" lon="5.13522">
        <ele>895.71600341797</ele>
        <time>2009-09-23T14:00:59Z</time>
      </trkpt>
      <trkpt lat="44.86929" lon="5.13533">
        <ele>897.9580078125</ele>
        <time>2009-09-23T14:01:13Z</time>
      </trkpt>
      <trkpt lat="44.86949" lon="5.13542">
        <ele>902.69799804688</ele>
        <time>2009-09-23T14:01:25Z</time>
      </trkpt>
      <trkpt lat="44.86965" lon="5.1355">
        <ele>904.99700927734</ele>
        <time>2009-09-23T14:01:34Z</time>
      </trkpt>
      <trkpt lat="44.86987" lon="5.13564">
        <ele>908.98297119141</ele>
        <time>2009-09-23T14:01:49Z</time>
      </trkpt>
      <trkpt lat="44.87011" lon="5.13578">
        <ele>912.82202148438</ele>
        <time>2009-09-23T14:02:04Z</time>
      </trkpt>
      <trkpt lat="44.87037" lon="5.13589">
        <ele>915.79302978516</ele>
        <time>2009-09-23T14:02:17Z</time>
      </trkpt>
      <trkpt lat="44.8708" lon="5.1362">
        <ele>918.40197753906</ele>
        <time>2009-09-23T14:02:34Z</time>
      </trkpt>
      <trkpt lat="44.87111" lon="5.13671">
        <ele>920.42102050781</ele>
        <time>2009-09-23T14:02:49Z</time>
      </trkpt>
      <trkpt lat="44.87138" lon="5.13717">
        <ele>924.38598632812</ele>
        <time>2009-09-23T14:03:04Z</time>
      </trkpt>
      <trkpt lat="44.87158" lon="5.1376">
        <ele>927.22900390625</ele>
        <time>2009-09-23T14:03:17Z</time>
      </trkpt>
      <trkpt lat="44.87167" lon="5.13779">
        <ele>928.59301757812</ele>
        <time>2009-09-23T14:03:23Z</time>
      </trkpt>
      <trkpt lat="44.8717" lon="5.13785">
        <ele>929.43200683594</ele>
        <time>2009-09-23T14:03:25Z</time>
      </trkpt>
      <trkpt lat="44.87194" lon="5.13821">
        <ele>931.9169921875</ele>
        <time>2009-09-23T14:03:37Z</time>
      </trkpt>
      <trkpt lat="44.87213" lon="5.13844">
        <ele>933.49700927734</ele>
        <time>2009-09-23T14:03:45Z</time>
      </trkpt>
      <trkpt lat="44.87254" lon="5.13859">
        <ele>936.13299560547</ele>
        <time>2009-09-23T14:03:59Z</time>
      </trkpt>
      <trkpt lat="44.87276" lon="5.13858">
        <ele>939.31701660156</ele>
        <time>2009-09-23T14:04:10Z</time>
      </trkpt>
      <trkpt lat="44.873" lon="5.13862">
        <ele>942.39099121094</ele>
        <time>2009-09-23T14:04:23Z</time>
      </trkpt>
      <trkpt lat="44.87327" lon="5.13878">
        <ele>946.13702392578</ele>
        <time>2009-09-23T14:04:37Z</time>
      </trkpt>
      <trkpt lat="44.87369" lon="5.13913">
        <ele>949.93701171875</ele>
        <time>2009-09-23T14:04:55Z</time>
      </trkpt>
      <trkpt lat="44.87396" lon="5.13963">
        <ele>953.08001708984</ele>
        <time>2009-09-23T14:05:11Z</time>
      </trkpt>
      <trkpt lat="44.87425" lon="5.13987">
        <ele>956.35699462891</ele>
        <time>2009-09-23T14:05:26Z</time>
      </trkpt>
      <trkpt lat="44.87474" lon="5.14008">
        <ele>960.80700683594</ele>
        <time>2009-09-23T14:05:46Z</time>
      </trkpt>
      <trkpt lat="44.87505" lon="5.14014">
        <ele>964.92999267578</ele>
        <time>2009-09-23T14:06:01Z</time>
      </trkpt>
      <trkpt lat="44.87535" lon="5.14017">
        <ele>969.67498779297</ele>
        <time>2009-09-23T14:06:17Z</time>
      </trkpt>
      <trkpt lat="44.87563" lon="5.1402">
        <ele>973.49597167969</ele>
        <time>2009-09-23T14:06:33Z</time>
      </trkpt>
      <trkpt lat="44.87594" lon="5.14034">
        <ele>977.39501953125</ele>
        <time>2009-09-23T14:06:49Z</time>
      </trkpt>
      <trkpt lat="44.87611" lon="5.14068">
        <ele>979.58599853516</ele>
        <time>2009-09-23T14:07:02Z</time>
      </trkpt>
      <trkpt lat="44.87617" lon="5.14108">
        <ele>983.61499023438</ele>
        <time>2009-09-23T14:07:18Z</time>
      </trkpt>
      <trkpt lat="44.87614" lon="5.14151">
        <ele>988.17901611328</ele>
        <time>2009-09-23T14:07:35Z</time>
      </trkpt>
      <trkpt lat="44.87611" lon="5.14194">
        <ele>990.87200927734</ele>
        <time>2009-09-23T14:07:50Z</time>
      </trkpt>
      <trkpt lat="44.87614" lon="5.14253">
        <ele>993.06201171875</ele>
        <time>2009-09-23T14:08:04Z</time>
      </trkpt>
      <trkpt lat="44.87637" lon="5.14305">
        <ele>995.90399169922</ele>
        <time>2009-09-23T14:08:19Z</time>
      </trkpt>
      <trkpt lat="44.87658" lon="5.14346">
        <ele>997.18200683594</ele>
        <time>2009-09-23T14:08:33Z</time>
      </trkpt>
      <trkpt lat="44.87664" lon="5.14352">
        <ele>996.70599365234</ele>
        <time>2009-09-23T14:08:35Z</time>
      </trkpt>
      <trkpt lat="44.87675" lon="5.14362">
        <ele>995.79498291016</ele>
        <time>2009-09-23T14:08:38Z</time>
      </trkpt>
      <trkpt lat="44.87725" lon="5.14377">
        <ele>992.82397460938</ele>
        <time>2009-09-23T14:08:46Z</time>
      </trkpt>
      <trkpt lat="44.87776" lon="5.14406">
        <ele>986.59497070312</ele>
        <time>2009-09-23T14:08:52Z</time>
      </trkpt>
      <trkpt lat="44.87798" lon="5.1441">
        <ele>984.31402587891</ele>
        <time>2009-09-23T14:08:54Z</time>
      </trkpt>
      <trkpt lat="44.8783" lon="5.14413">
        <ele>981.63800048828</ele>
        <time>2009-09-23T14:08:57Z</time>
      </trkpt>
      <trkpt lat="44.87853" lon="5.14419">
        <ele>980.95098876953</ele>
        <time>2009-09-23T14:08:59Z</time>
      </trkpt>
      <trkpt lat="44.87906" lon="5.14441">
        <ele>977.61499023438</ele>
        <time>2009-09-23T14:09:04Z</time>
      </trkpt>
      <trkpt lat="44.87957" lon="5.14423">
        <ele>975.16198730469</ele>
        <time>2009-09-23T14:09:09Z</time>
      </trkpt>
      <trkpt lat="44.87975" lon="5.14405">
        <ele>974.21099853516</ele>
        <time>2009-09-23T14:09:11Z</time>
      </trkpt>
      <trkpt lat="44.88002" lon="5.14365">
        <ele>974.6259765625</ele>
        <time>2009-09-23T14:09:15Z</time>
      </trkpt>
      <trkpt lat="44.88021" lon="5.14346">
        <ele>974.59100341797</ele>
        <time>2009-09-23T14:09:18Z</time>
      </trkpt>
      <trkpt lat="44.88028" lon="5.14345">
        <ele>974.83898925781</ele>
        <time>2009-09-23T14:09:19Z</time>
      </trkpt>
      <trkpt lat="44.88035" lon="5.14345">
        <ele>975.31701660156</ele>
        <time>2009-09-23T14:09:20Z</time>
      </trkpt>
      <trkpt lat="44.88047" lon="5.14347">
        <ele>975.22302246094</ele>
        <time>2009-09-23T14:09:22Z</time>
      </trkpt>
      <trkpt lat="44.8807" lon="5.1436">
        <ele>976.09497070312</ele>
        <time>2009-09-23T14:09:26Z</time>
      </trkpt>
      <trkpt lat="44.88115" lon="5.14403">
        <ele>979.78997802734</ele>
        <time>2009-09-23T14:09:38Z</time>
      </trkpt>
      <trkpt lat="44.88124" lon="5.14404">
        <ele>981.43597412109</ele>
        <time>2009-09-23T14:09:41Z</time>
      </trkpt>
      <trkpt lat="44.88136" lon="5.144">
        <ele>983.01800537109</ele>
        <time>2009-09-23T14:09:46Z</time>
      </trkpt>
      <trkpt lat="44.88141" lon="5.14395">
        <ele>983.87200927734</ele>
        <time>2009-09-23T14:09:49Z</time>
      </trkpt>
      <trkpt lat="44.88152" lon="5.14369">
        <ele>985.46301269531</ele>
        <time>2009-09-23T14:09:58Z</time>
      </trkpt>
      <trkpt lat="44.8815" lon="5.1435">
        <ele>987.01202392578</ele>
        <time>2009-09-23T14:10:03Z</time>
      </trkpt>
      <trkpt lat="44.88132" lon="5.14322">
        <ele>988.38397216797</ele>
        <time>2009-09-23T14:10:12Z</time>
      </trkpt>
      <trkpt lat="44.88117" lon="5.14281">
        <ele>991.21801757812</ele>
        <time>2009-09-23T14:10:25Z</time>
      </trkpt>
      <trkpt lat="44.88124" lon="5.14239">
        <ele>995.28601074219</ele>
        <time>2009-09-23T14:10:39Z</time>
      </trkpt>
      <trkpt lat="44.88146" lon="5.14217">
        <ele>996.76501464844</ele>
        <time>2009-09-23T14:10:51Z</time>
      </trkpt>
      <trkpt lat="44.88198" lon="5.14206">
        <ele>996.77001953125</ele>
        <time>2009-09-23T14:11:07Z</time>
      </trkpt>
      <trkpt lat="44.8821" lon="5.14204">
        <ele>996.58697509766</ele>
        <time>2009-09-23T14:11:10Z</time>
      </trkpt>
      <trkpt lat="44.88233" lon="5.14203">
        <ele>995.67700195312</ele>
        <time>2009-09-23T14:11:15Z</time>
      </trkpt>
      <trkpt lat="44.88248" lon="5.14204">
        <ele>995.48699951172</ele>
        <time>2009-09-23T14:11:18Z</time>
      </trkpt>
      <trkpt lat="44.88283" lon="5.14222">
        <ele>994.91998291016</ele>
        <time>2009-09-23T14:11:25Z</time>
      </trkpt>
      <trkpt lat="44.88299" lon="5.14234">
        <ele>994.23199462891</ele>
        <time>2009-09-23T14:11:28Z</time>
      </trkpt>
      <trkpt lat="44.88305" lon="5.14238">
        <ele>993.46502685547</ele>
        <time>2009-09-23T14:11:29Z</time>
      </trkpt>
      <trkpt lat="44.88351" lon="5.14253">
        <ele>988.39300537109</ele>
        <time>2009-09-23T14:11:35Z</time>
      </trkpt>
      <trkpt lat="44.88369" lon="5.14259">
        <ele>986.46801757812</ele>
        <time>2009-09-23T14:11:37Z</time>
      </trkpt>
      <trkpt lat="44.88399" lon="5.14275">
        <ele>982.60302734375</ele>
        <time>2009-09-23T14:11:40Z</time>
      </trkpt>
      <trkpt lat="44.88409" lon="5.1428">
        <ele>982.26202392578</ele>
        <time>2009-09-23T14:11:41Z</time>
      </trkpt>
      <trkpt lat="44.88461" lon="5.14272">
        <ele>983.1669921875</ele>
        <time>2009-09-23T14:11:46Z</time>
      </trkpt>
      <trkpt lat="44.88495" lon="5.14252">
        <ele>986.92498779297</ele>
        <time>2009-09-23T14:11:52Z</time>
      </trkpt>
      <trkpt lat="44.88506" lon="5.14246">
        <ele>988.20098876953</ele>
        <time>2009-09-23T14:11:56Z</time>
      </trkpt>
      <trkpt lat="44.88519" lon="5.14239">
        <ele>989.51000976562</ele>
        <time>2009-09-23T14:12:00Z</time>
      </trkpt>
      <trkpt lat="44.88541" lon="5.14232">
        <ele>990.63500976562</ele>
        <time>2009-09-23T14:12:06Z</time>
      </trkpt>
      <trkpt lat="44.88565" lon="5.14227">
        <ele>991.70202636719</ele>
        <time>2009-09-23T14:12:12Z</time>
      </trkpt>
      <trkpt lat="44.88586" lon="5.14229">
        <ele>993.87298583984</ele>
        <time>2009-09-23T14:12:18Z</time>
      </trkpt>
      <trkpt lat="44.88599" lon="5.14235">
        <ele>995.51300048828</ele>
        <time>2009-09-23T14:12:23Z</time>
      </trkpt>
      <trkpt lat="44.88624" lon="5.14255">
        <ele>997.79901123047</ele>
        <time>2009-09-23T14:12:35Z</time>
      </trkpt>
      <trkpt lat="44.88649" lon="5.14268">
        <ele>1001.0930175781</ele>
        <time>2009-09-23T14:12:47Z</time>
      </trkpt>
      <trkpt lat="44.88668" lon="5.14286">
        <ele>1003.2890014648</ele>
        <time>2009-09-23T14:12:57Z</time>
      </trkpt>
      <trkpt lat="44.88696" lon="5.14325">
        <ele>1005.3800048828</ele>
        <time>2009-09-23T14:13:10Z</time>
      </trkpt>
      <trkpt lat="44.88699" lon="5.14328">
        <ele>1005.6500244141</ele>
        <time>2009-09-23T14:13:11Z</time>
      </trkpt>
      <trkpt lat="44.88707" lon="5.14339">
        <ele>1006.0369873047</ele>
        <time>2009-09-23T14:13:14Z</time>
      </trkpt>
      <trkpt lat="44.88736" lon="5.14352">
        <ele>1007.3740234375</ele>
        <time>2009-09-23T14:13:21Z</time>
      </trkpt>
      <trkpt lat="44.8878" lon="5.14386">
        <ele>1011.6989746094</ele>
        <time>2009-09-23T14:13:33Z</time>
      </trkpt>
      <trkpt lat="44.88842" lon="5.14401">
        <ele>1016.5980224609</ele>
        <time>2009-09-23T14:13:49Z</time>
      </trkpt>
      <trkpt lat="44.88896" lon="5.144">
        <ele>1020.9970092773</ele>
        <time>2009-09-23T14:14:05Z</time>
      </trkpt>
      <trkpt lat="44.88949" lon="5.14437">
        <ele>1026.8620605469</ele>
        <time>2009-09-23T14:14:24Z</time>
      </trkpt>
      <trkpt lat="44.88992" lon="5.14477">
        <ele>1030.8499755859</ele>
        <time>2009-09-23T14:14:39Z</time>
      </trkpt>
      <trkpt lat="44.89024" lon="5.14498">
        <ele>1033.8139648438</ele>
        <time>2009-09-23T14:14:49Z</time>
      </trkpt>
      <trkpt lat="44.89028" lon="5.14519">
        <ele>1034.5350341797</ele>
        <time>2009-09-23T14:14:53Z</time>
      </trkpt>
      <trkpt lat="44.89021" lon="5.14631">
        <ele>1035.5329589844</ele>
        <time>2009-09-23T14:15:08Z</time>
      </trkpt>
      <trkpt lat="44.89016" lon="5.14681">
        <ele>1036.1090087891</ele>
        <time>2009-09-23T14:15:14Z</time>
      </trkpt>
      <trkpt lat="44.88986" lon="5.148">
        <ele>1037.5119628906</ele>
        <time>2009-09-23T14:15:28Z</time>
      </trkpt>
      <trkpt lat="44.88934" lon="5.14919">
        <ele>1037.1169433594</ele>
        <time>2009-09-23T14:15:42Z</time>
      </trkpt>
      <trkpt lat="44.88914" lon="5.15056">
        <ele>1041.0329589844</ele>
        <time>2009-09-23T14:15:56Z</time>
      </trkpt>
      <trkpt lat="44.88895" lon="5.15207">
        <ele>1046.7459716797</ele>
        <time>2009-09-23T14:16:15Z</time>
      </trkpt>
      <trkpt lat="44.88877" lon="5.15312">
        <ele>1052.1199951172</ele>
        <time>2009-09-23T14:16:32Z</time>
      </trkpt>
      <trkpt lat="44.88872" lon="5.15351">
        <ele>1054.3120117188</ele>
        <time>2009-09-23T14:16:38Z</time>
      </trkpt>
      <trkpt lat="44.88848" lon="5.15437">
        <ele>1059.3349609375</ele>
        <time>2009-09-23T14:16:55Z</time>
      </trkpt>
      <trkpt lat="44.88815" lon="5.15475">
        <ele>1062.8360595703</ele>
        <time>2009-09-23T14:17:09Z</time>
      </trkpt>
      <trkpt lat="44.88789" lon="5.1553">
        <ele>1066.8310546875</ele>
        <time>2009-09-23T14:17:24Z</time>
      </trkpt>
      <trkpt lat="44.88783" lon="5.15583">
        <ele>1070.0699462891</ele>
        <time>2009-09-23T14:17:36Z</time>
      </trkpt>
      <trkpt lat="44.88764" lon="5.1564">
        <ele>1073.7989501953</ele>
        <time>2009-09-23T14:17:51Z</time>
      </trkpt>
      <trkpt lat="44.88733" lon="5.1568">
        <ele>1077.3590087891</ele>
        <time>2009-09-23T14:18:07Z</time>
      </trkpt>
      <trkpt lat="44.88725" lon="5.15737">
        <ele>1080.6500244141</ele>
        <time>2009-09-23T14:18:21Z</time>
      </trkpt>
      <trkpt lat="44.88717" lon="5.15786">
        <ele>1083.6920166016</ele>
        <time>2009-09-23T14:18:33Z</time>
      </trkpt>
      <trkpt lat="44.88719" lon="5.15791">
        <ele>1083.7259521484</ele>
        <time>2009-09-23T14:18:38Z</time>
      </trkpt>
      <trkpt lat="44.88723" lon="5.15791">
        <ele>1083.1929931641</ele>
        <time>2009-09-23T14:18:54Z</time>
      </trkpt>
      <trkpt lat="44.88718" lon="5.15783">
        <ele>1084.6760253906</ele>
        <time>2009-09-23T14:19:28Z</time>
      </trkpt>
      <trkpt lat="44.88705" lon="5.15801">
        <ele>1085.9780273438</ele>
        <time>2009-09-23T14:19:35Z</time>
      </trkpt>
      <trkpt lat="44.88673" lon="5.15865">
        <ele>1087.1159667969</ele>
        <time>2009-09-23T14:19:48Z</time>
      </trkpt>
      <trkpt lat="44.8863" lon="5.15973">
        <ele>1084.8439941406</ele>
        <time>2009-09-23T14:20:02Z</time>
      </trkpt>
      <trkpt lat="44.88585" lon="5.16048">
        <ele>1081.8990478516</ele>
        <time>2009-09-23T14:20:11Z</time>
      </trkpt>
      <trkpt lat="44.88584" lon="5.16101">
        <ele>1079.6080322266</ele>
        <time>2009-09-23T14:20:16Z</time>
      </trkpt>
      <trkpt lat="44.88589" lon="5.16112">
        <ele>1078.6319580078</ele>
        <time>2009-09-23T14:20:17Z</time>
      </trkpt>
      <trkpt lat="44.88624" lon="5.16181">
        <ele>1073.6219482422</ele>
        <time>2009-09-23T14:20:23Z</time>
      </trkpt>
      <trkpt lat="44.88636" lon="5.16222">
        <ele>1071.0379638672</ele>
        <time>2009-09-23T14:20:26Z</time>
      </trkpt>
      <trkpt lat="44.88636" lon="5.16254">
        <ele>1069.2189941406</ele>
        <time>2009-09-23T14:20:28Z</time>
      </trkpt>
      <trkpt lat="44.88622" lon="5.16367">
        <ele>1062.1999511719</ele>
        <time>2009-09-23T14:20:35Z</time>
      </trkpt>
      <trkpt lat="44.88622" lon="5.16436">
        <ele>1059.3549804688</ele>
        <time>2009-09-23T14:20:39Z</time>
      </trkpt>
      <trkpt lat="44.88599" lon="5.16516">
        <ele>1053.6590576172</ele>
        <time>2009-09-23T14:20:44Z</time>
      </trkpt>
      <trkpt lat="44.88557" lon="5.16582">
        <ele>1048.33203125</ele>
        <time>2009-09-23T14:20:49Z</time>
      </trkpt>
      <trkpt lat="44.88531" lon="5.1668">
        <ele>1041.8470458984</ele>
        <time>2009-09-23T14:20:55Z</time>
      </trkpt>
      <trkpt lat="44.8854" lon="5.16731">
        <ele>1040.2270507812</ele>
        <time>2009-09-23T14:20:58Z</time>
      </trkpt>
      <trkpt lat="44.88554" lon="5.1676">
        <ele>1039.0699462891</ele>
        <time>2009-09-23T14:21:00Z</time>
      </trkpt>
      <trkpt lat="44.88586" lon="5.16811">
        <ele>1035.58203125</ele>
        <time>2009-09-23T14:21:04Z</time>
      </trkpt>
      <trkpt lat="44.88609" lon="5.16908">
        <ele>1029.2340087891</ele>
        <time>2009-09-23T14:21:10Z</time>
      </trkpt>
      <trkpt lat="44.88609" lon="5.17017">
        <ele>1024.0500488281</ele>
        <time>2009-09-23T14:21:16Z</time>
      </trkpt>
      <trkpt lat="44.88607" lon="5.17035">
        <ele>1023.4689941406</ele>
        <time>2009-09-23T14:21:17Z</time>
      </trkpt>
      <trkpt lat="44.88588" lon="5.17104">
        <ele>1020.3099975586</ele>
        <time>2009-09-23T14:21:21Z</time>
      </trkpt>
      <trkpt lat="44.88566" lon="5.1717">
        <ele>1018.4940185547</ele>
        <time>2009-09-23T14:21:25Z</time>
      </trkpt>
      <trkpt lat="44.88543" lon="5.17254">
        <ele>1015.8449707031</ele>
        <time>2009-09-23T14:21:30Z</time>
      </trkpt>
      <trkpt lat="44.88529" lon="5.17335">
        <ele>1016.2960205078</ele>
        <time>2009-09-23T14:21:35Z</time>
      </trkpt>
      <trkpt lat="44.88527" lon="5.17367">
        <ele>1016.7479858398</ele>
        <time>2009-09-23T14:21:37Z</time>
      </trkpt>
      <trkpt lat="44.8853" lon="5.17428">
        <ele>1015.4210205078</ele>
        <time>2009-09-23T14:21:41Z</time>
      </trkpt>
      <trkpt lat="44.88563" lon="5.17491">
        <ele>1011.0770263672</ele>
        <time>2009-09-23T14:21:46Z</time>
      </trkpt>
      <trkpt lat="44.88574" lon="5.17497">
        <ele>1009.7730102539</ele>
        <time>2009-09-23T14:21:47Z</time>
      </trkpt>
      <trkpt lat="44.88594" lon="5.17509">
        <ele>1009.0430297852</ele>
        <time>2009-09-23T14:21:49Z</time>
      </trkpt>
      <trkpt lat="44.88594" lon="5.17546">
        <ele>1005.3099975586</ele>
        <time>2009-09-23T14:21:53Z</time>
      </trkpt>
      <trkpt lat="44.88556" lon="5.17621">
        <ele>998.92999267578</ele>
        <time>2009-09-23T14:21:59Z</time>
      </trkpt>
      <trkpt lat="44.88551" lon="5.17656">
        <ele>997.47802734375</ele>
        <time>2009-09-23T14:22:01Z</time>
      </trkpt>
      <trkpt lat="44.88506" lon="5.17719">
        <ele>990.44000244141</ele>
        <time>2009-09-23T14:22:06Z</time>
      </trkpt>
      <trkpt lat="44.88493" lon="5.17724">
        <ele>990.15600585938</ele>
        <time>2009-09-23T14:22:07Z</time>
      </trkpt>
      <trkpt lat="44.88475" lon="5.17782">
        <ele>986.78198242188</ele>
        <time>2009-09-23T14:22:11Z</time>
      </trkpt>
      <trkpt lat="44.88515" lon="5.17845">
        <ele>983.85101318359</ele>
        <time>2009-09-23T14:22:16Z</time>
      </trkpt>
      <trkpt lat="44.88536" lon="5.17859">
        <ele>982.47399902344</ele>
        <time>2009-09-23T14:22:18Z</time>
      </trkpt>
      <trkpt lat="44.88569" lon="5.17874">
        <ele>980.50500488281</ele>
        <time>2009-09-23T14:22:21Z</time>
      </trkpt>
      <trkpt lat="44.88578" lon="5.17878">
        <ele>979.99102783203</ele>
        <time>2009-09-23T14:22:22Z</time>
      </trkpt>
      <trkpt lat="44.88596" lon="5.17902">
        <ele>978.47998046875</ele>
        <time>2009-09-23T14:22:26Z</time>
      </trkpt>
      <trkpt lat="44.8858" lon="5.1792">
        <ele>975.82598876953</ele>
        <time>2009-09-23T14:22:29Z</time>
      </trkpt>
      <trkpt lat="44.88512" lon="5.17962">
        <ele>969.51098632812</ele>
        <time>2009-09-23T14:22:36Z</time>
      </trkpt>
      <trkpt lat="44.88454" lon="5.17992">
        <ele>965.333984375</ele>
        <time>2009-09-23T14:22:41Z</time>
      </trkpt>
      <trkpt lat="44.88441" lon="5.17997">
        <ele>964.17199707031</ele>
        <time>2009-09-23T14:22:42Z</time>
      </trkpt>
      <trkpt lat="44.88351" lon="5.1803">
        <ele>958.59600830078</ele>
        <time>2009-09-23T14:22:49Z</time>
      </trkpt>
      <trkpt lat="44.88332" lon="5.18035">
        <ele>958.48400878906</ele>
        <time>2009-09-23T14:22:51Z</time>
      </trkpt>
      <trkpt lat="44.88324" lon="5.18055">
        <ele>957.79699707031</ele>
        <time>2009-09-23T14:22:55Z</time>
      </trkpt>
      <trkpt lat="44.88351" lon="5.18053">
        <ele>956.08502197266</ele>
        <time>2009-09-23T14:22:59Z</time>
      </trkpt>
      <trkpt lat="44.88367" lon="5.18053">
        <ele>955.14099121094</ele>
        <time>2009-09-23T14:23:01Z</time>
      </trkpt>
      <trkpt lat="44.88394" lon="5.18054">
        <ele>953.90600585938</ele>
        <time>2009-09-23T14:23:04Z</time>
      </trkpt>
      <trkpt lat="44.88506" lon="5.18067">
        <ele>949.21099853516</ele>
        <time>2009-09-23T14:23:15Z</time>
      </trkpt>
      <trkpt lat="44.88527" lon="5.18074">
        <ele>948.15802001953</ele>
        <time>2009-09-23T14:23:17Z</time>
      </trkpt>
      <trkpt lat="44.88579" lon="5.18101">
        <ele>944.94396972656</ele>
        <time>2009-09-23T14:23:22Z</time>
      </trkpt>
      <trkpt lat="44.88641" lon="5.18161">
        <ele>941.62200927734</ele>
        <time>2009-09-23T14:23:29Z</time>
      </trkpt>
      <trkpt lat="44.8867" lon="5.1822">
        <ele>942.63800048828</ele>
        <time>2009-09-23T14:23:34Z</time>
      </trkpt>
      <trkpt lat="44.88675" lon="5.18231">
        <ele>942.92401123047</ele>
        <time>2009-09-23T14:23:35Z</time>
      </trkpt>
      <trkpt lat="44.8869" lon="5.18262">
        <ele>943.94201660156</ele>
        <time>2009-09-23T14:23:38Z</time>
      </trkpt>
      <trkpt lat="44.88721" lon="5.183">
        <ele>943.75402832031</ele>
        <time>2009-09-23T14:23:43Z</time>
      </trkpt>
      <trkpt lat="44.8874" lon="5.18365">
        <ele>942.48999023438</ele>
        <time>2009-09-23T14:23:49Z</time>
      </trkpt>
      <trkpt lat="44.88716" lon="5.18451">
        <ele>940.22900390625</ele>
        <time>2009-09-23T14:23:56Z</time>
      </trkpt>
      <trkpt lat="44.88731" lon="5.18508">
        <ele>940.36401367188</ele>
        <time>2009-09-23T14:24:01Z</time>
      </trkpt>
      <trkpt lat="44.88739" lon="5.18515">
        <ele>940.01300048828</ele>
        <time>2009-09-23T14:24:02Z</time>
      </trkpt>
      <trkpt lat="44.88847" lon="5.18602">
        <ele>937.51202392578</ele>
        <time>2009-09-23T14:24:15Z</time>
      </trkpt>
      <trkpt lat="44.8894" lon="5.18681">
        <ele>937.18499755859</ele>
        <time>2009-09-23T14:24:27Z</time>
      </trkpt>
      <trkpt lat="44.89003" lon="5.18742">
        <ele>937.2509765625</ele>
        <time>2009-09-23T14:24:36Z</time>
      </trkpt>
      <trkpt lat="44.8907" lon="5.18803">
        <ele>936.62902832031</ele>
        <time>2009-09-23T14:24:45Z</time>
      </trkpt>
      <trkpt lat="44.89123" lon="5.18852">
        <ele>935.63897705078</ele>
        <time>2009-09-23T14:24:52Z</time>
      </trkpt>
      <trkpt lat="44.89181" lon="5.18907">
        <ele>936.96002197266</ele>
        <time>2009-09-23T14:25:00Z</time>
      </trkpt>
      <trkpt lat="44.89311" lon="5.19003">
        <ele>933.67797851562</ele>
        <time>2009-09-23T14:25:17Z</time>
      </trkpt>
      <trkpt lat="44.89492" lon="5.19103">
        <ele>932.38397216797</ele>
        <time>2009-09-23T14:25:40Z</time>
      </trkpt>
      <trkpt lat="44.89612" lon="5.19178">
        <ele>930.86401367188</ele>
        <time>2009-09-23T14:25:57Z</time>
      </trkpt>
      <trkpt lat="44.89771" lon="5.19278">
        <ele>929.82000732422</ele>
        <time>2009-09-23T14:26:19Z</time>
      </trkpt>
      <trkpt lat="44.89896" lon="5.19339">
        <ele>930.86499023438</ele>
        <time>2009-09-23T14:26:36Z</time>
      </trkpt>
      <trkpt lat="44.90033" lon="5.1938">
        <ele>928.77600097656</ele>
        <time>2009-09-23T14:26:54Z</time>
      </trkpt>
      <trkpt lat="44.90159" lon="5.19392">
        <ele>929.20697021484</ele>
        <time>2009-09-23T14:27:11Z</time>
      </trkpt>
      <trkpt lat="44.90273" lon="5.19363">
        <ele>928.54699707031</ele>
        <time>2009-09-23T14:27:26Z</time>
      </trkpt>
      <trkpt lat="44.90388" lon="5.19363">
        <ele>928.55499267578</ele>
        <time>2009-09-23T14:27:41Z</time>
      </trkpt>
      <trkpt lat="44.90517" lon="5.19333">
        <ele>925.98999023438</ele>
        <time>2009-09-23T14:27:58Z</time>
      </trkpt>
      <trkpt lat="44.90688" lon="5.19274">
        <ele>925.02801513672</ele>
        <time>2009-09-23T14:28:20Z</time>
      </trkpt>
      <trkpt lat="44.90812" lon="5.19246">
        <ele>924.22601318359</ele>
        <time>2009-09-23T14:28:36Z</time>
      </trkpt>
      <trkpt lat="44.90915" lon="5.19226">
        <ele>920.07000732422</ele>
        <time>2009-09-23T14:28:49Z</time>
      </trkpt>
      <trkpt lat="44.91003" lon="5.19214">
        <ele>917.77801513672</ele>
        <time>2009-09-23T14:29:00Z</time>
      </trkpt>
      <trkpt lat="44.91086" lon="5.19237">
        <ele>918.25</ele>
        <time>2009-09-23T14:29:11Z</time>
      </trkpt>
      <trkpt lat="44.91169" lon="5.19258">
        <ele>920.01202392578</ele>
        <time>2009-09-23T14:29:25Z</time>
      </trkpt>
      <trkpt lat="44.91222" lon="5.19259">
        <ele>922.64599609375</ele>
        <time>2009-09-23T14:29:36Z</time>
      </trkpt>
      <trkpt lat="44.91219" lon="5.19233">
        <ele>924.35900878906</ele>
        <time>2009-09-23T14:29:43Z</time>
      </trkpt>
      <trkpt lat="44.91207" lon="5.19218">
        <ele>925.93200683594</ele>
        <time>2009-09-23T14:29:48Z</time>
      </trkpt>
      <trkpt lat="44.91174" lon="5.19166">
        <ele>930.23797607422</ele>
        <time>2009-09-23T14:30:05Z</time>
      </trkpt>
      <trkpt lat="44.91139" lon="5.1911">
        <ele>934.54498291016</ele>
        <time>2009-09-23T14:30:24Z</time>
      </trkpt>
      <trkpt lat="44.91096" lon="5.19071">
        <ele>938.33599853516</ele>
        <time>2009-09-23T14:30:41Z</time>
      </trkpt>
      <trkpt lat="44.91038" lon="5.19051">
        <ele>942.84698486328</ele>
        <time>2009-09-23T14:31:01Z</time>
      </trkpt>
      <trkpt lat="44.90988" lon="5.1904">
        <ele>946.78900146484</ele>
        <time>2009-09-23T14:31:18Z</time>
      </trkpt>
      <trkpt lat="44.90935" lon="5.19032">
        <ele>950.71398925781</ele>
        <time>2009-09-23T14:31:35Z</time>
      </trkpt>
      <trkpt lat="44.90891" lon="5.19027">
        <ele>954.06500244141</ele>
        <time>2009-09-23T14:31:49Z</time>
      </trkpt>
      <trkpt lat="44.9086" lon="5.19026">
        <ele>956.73297119141</ele>
        <time>2009-09-23T14:31:59Z</time>
      </trkpt>
      <trkpt lat="44.90828" lon="5.19028">
        <ele>959.70098876953</ele>
        <time>2009-09-23T14:32:11Z</time>
      </trkpt>
      <trkpt lat="44.90791" lon="5.19034">
        <ele>962.41497802734</ele>
        <time>2009-09-23T14:32:23Z</time>
      </trkpt>
      <trkpt lat="44.90759" lon="5.19032">
        <ele>964.82501220703</ele>
        <time>2009-09-23T14:32:34Z</time>
      </trkpt>
      <trkpt lat="44.90725" lon="5.19035">
        <ele>967.10900878906</ele>
        <time>2009-09-23T14:32:46Z</time>
      </trkpt>
      <trkpt lat="44.90687" lon="5.19045">
        <ele>969.92102050781</ele>
        <time>2009-09-23T14:32:59Z</time>
      </trkpt>
      <trkpt lat="44.90655" lon="5.19042">
        <ele>972.19000244141</ele>
        <time>2009-09-23T14:33:11Z</time>
      </trkpt>
      <trkpt lat="44.9062" lon="5.19043">
        <ele>974.89398193359</ele>
        <time>2009-09-23T14:33:23Z</time>
      </trkpt>
      <trkpt lat="44.90627" lon="5.19039">
        <ele>976.70697021484</ele>
        <time>2009-09-23T14:33:31Z</time>
      </trkpt>
      <trkpt lat="44.90646" lon="5.19037">
        <ele>978.28900146484</ele>
        <time>2009-09-23T14:33:40Z</time>
      </trkpt>
      <trkpt lat="44.90681" lon="5.19019">
        <ele>980.90698242188</ele>
        <time>2009-09-23T14:33:53Z</time>
      </trkpt>
      <trkpt lat="44.90711" lon="5.19004">
        <ele>983.09997558594</ele>
        <time>2009-09-23T14:34:04Z</time>
      </trkpt>
      <trkpt lat="44.90738" lon="5.1898">
        <ele>985.35900878906</ele>
        <time>2009-09-23T14:34:15Z</time>
      </trkpt>
      <trkpt lat="44.90766" lon="5.18967">
        <ele>987.77502441406</ele>
        <time>2009-09-23T14:34:27Z</time>
      </trkpt>
      <trkpt lat="44.90791" lon="5.18955">
        <ele>990.29498291016</ele>
        <time>2009-09-23T14:34:37Z</time>
      </trkpt>
      <trkpt lat="44.90836" lon="5.1894">
        <ele>993.82501220703</ele>
        <time>2009-09-23T14:34:53Z</time>
      </trkpt>
      <trkpt lat="44.90874" lon="5.18922">
        <ele>996.17602539062</ele>
        <time>2009-09-23T14:35:07Z</time>
      </trkpt>
      <trkpt lat="44.9092" lon="5.18904">
        <ele>999.87701416016</ele>
        <time>2009-09-23T14:35:24Z</time>
      </trkpt>
      <trkpt lat="44.9096" lon="5.18892">
        <ele>1002.4569702148</ele>
        <time>2009-09-23T14:35:37Z</time>
      </trkpt>
      <trkpt lat="44.90985" lon="5.18882">
        <ele>1004.8989868164</ele>
        <time>2009-09-23T14:35:48Z</time>
      </trkpt>
      <trkpt lat="44.91014" lon="5.18869">
        <ele>1006.9439697266</ele>
        <time>2009-09-23T14:35:59Z</time>
      </trkpt>
      <trkpt lat="44.91019" lon="5.18866">
        <ele>1007.5590209961</ele>
        <time>2009-09-23T14:36:02Z</time>
      </trkpt>
      <trkpt lat="44.91037" lon="5.18858">
        <ele>1009.4050292969</ele>
        <time>2009-09-23T14:36:10Z</time>
      </trkpt>
      <trkpt lat="44.91058" lon="5.18847">
        <ele>1010.5330200195</ele>
        <time>2009-09-23T14:36:17Z</time>
      </trkpt>
      <trkpt lat="44.91087" lon="5.18829">
        <ele>1013.0050048828</ele>
        <time>2009-09-23T14:36:30Z</time>
      </trkpt>
      <trkpt lat="44.91114" lon="5.18812">
        <ele>1015.4710083008</ele>
        <time>2009-09-23T14:36:41Z</time>
      </trkpt>
      <trkpt lat="44.91111" lon="5.18785">
        <ele>1017.2869873047</ele>
        <time>2009-09-23T14:36:50Z</time>
      </trkpt>
      <trkpt lat="44.91086" lon="5.18766">
        <ele>1019.7340087891</ele>
        <time>2009-09-23T14:37:01Z</time>
      </trkpt>
      <trkpt lat="44.91067" lon="5.1873">
        <ele>1022.2199707031</ele>
        <time>2009-09-23T14:37:13Z</time>
      </trkpt>
      <trkpt lat="44.91049" lon="5.18689">
        <ele>1024.501953125</ele>
        <time>2009-09-23T14:37:25Z</time>
      </trkpt>
      <trkpt lat="44.91047" lon="5.18683">
        <ele>1024.8360595703</ele>
        <time>2009-09-23T14:37:27Z</time>
      </trkpt>
      <trkpt lat="44.91045" lon="5.18676">
        <ele>1025.2889404297</ele>
        <time>2009-09-23T14:37:30Z</time>
      </trkpt>
      <trkpt lat="44.91038" lon="5.18661">
        <ele>1026.4820556641</ele>
        <time>2009-09-23T14:37:35Z</time>
      </trkpt>
      <trkpt lat="44.91022" lon="5.18612">
        <ele>1029.2600097656</ele>
        <time>2009-09-23T14:37:48Z</time>
      </trkpt>
      <trkpt lat="44.91004" lon="5.18551">
        <ele>1032.626953125</ele>
        <time>2009-09-23T14:38:04Z</time>
      </trkpt>
      <trkpt lat="44.90987" lon="5.18499">
        <ele>1036.1760253906</ele>
        <time>2009-09-23T14:38:19Z</time>
      </trkpt>
      <trkpt lat="44.90952" lon="5.18449">
        <ele>1039.5930175781</ele>
        <time>2009-09-23T14:38:36Z</time>
      </trkpt>
      <trkpt lat="44.90941" lon="5.18399">
        <ele>1042.4639892578</ele>
        <time>2009-09-23T14:38:51Z</time>
      </trkpt>
      <trkpt lat="44.90975" lon="5.18385">
        <ele>1044.8489990234</ele>
        <time>2009-09-23T14:39:05Z</time>
      </trkpt>
      <trkpt lat="44.91021" lon="5.18392">
        <ele>1047.9460449219</ele>
        <time>2009-09-23T14:39:22Z</time>
      </trkpt>
      <trkpt lat="44.91067" lon="5.18429">
        <ele>1052.4520263672</ele>
        <time>2009-09-23T14:39:41Z</time>
      </trkpt>
      <trkpt lat="44.911" lon="5.18479">
        <ele>1056.0710449219</ele>
        <time>2009-09-23T14:39:58Z</time>
      </trkpt>
      <trkpt lat="44.91134" lon="5.18521">
        <ele>1059.1899414062</ele>
        <time>2009-09-23T14:40:16Z</time>
      </trkpt>
      <trkpt lat="44.91156" lon="5.18546">
        <ele>1061.458984375</ele>
        <time>2009-09-23T14:40:28Z</time>
      </trkpt>
      <trkpt lat="44.91203" lon="5.18574">
        <ele>1065.6860351562</ele>
        <time>2009-09-23T14:40:47Z</time>
      </trkpt>
      <trkpt lat="44.91242" lon="5.18564">
        <ele>1069.3690185547</ele>
        <time>2009-09-23T14:41:03Z</time>
      </trkpt>
      <trkpt lat="44.91275" lon="5.18517">
        <ele>1072.3000488281</ele>
        <time>2009-09-23T14:41:20Z</time>
      </trkpt>
      <trkpt lat="44.91305" lon="5.18473">
        <ele>1075.3020019531</ele>
        <time>2009-09-23T14:41:36Z</time>
      </trkpt>
      <trkpt lat="44.91331" lon="5.18431">
        <ele>1078.5610351562</ele>
        <time>2009-09-23T14:41:51Z</time>
      </trkpt>
      <trkpt lat="44.9136" lon="5.18385">
        <ele>1081.5610351562</ele>
        <time>2009-09-23T14:42:08Z</time>
      </trkpt>
      <trkpt lat="44.91378" lon="5.18345">
        <ele>1084.1340332031</ele>
        <time>2009-09-23T14:42:21Z</time>
      </trkpt>
      <trkpt lat="44.9139" lon="5.18288">
        <ele>1087.2939453125</ele>
        <time>2009-09-23T14:42:37Z</time>
      </trkpt>
      <trkpt lat="44.91404" lon="5.18229">
        <ele>1090.8809814453</ele>
        <time>2009-09-23T14:42:54Z</time>
      </trkpt>
      <trkpt lat="44.91427" lon="5.18235">
        <ele>1092.9659423828</ele>
        <time>2009-09-23T14:43:04Z</time>
      </trkpt>
      <trkpt lat="44.91453" lon="5.18264">
        <ele>1096.2669677734</ele>
        <time>2009-09-23T14:43:18Z</time>
      </trkpt>
      <trkpt lat="44.91475" lon="5.18261">
        <ele>1097.7800292969</ele>
        <time>2009-09-23T14:43:27Z</time>
      </trkpt>
      <trkpt lat="44.91514" lon="5.18231">
        <ele>1100.9329833984</ele>
        <time>2009-09-23T14:43:44Z</time>
      </trkpt>
      <trkpt lat="44.91561" lon="5.1819">
        <ele>1105.1490478516</ele>
        <time>2009-09-23T14:44:05Z</time>
      </trkpt>
      <trkpt lat="44.91584" lon="5.18202">
        <ele>1106.9439697266</ele>
        <time>2009-09-23T14:44:16Z</time>
      </trkpt>
      <trkpt lat="44.9159" lon="5.1826">
        <ele>1110.5620117188</ele>
        <time>2009-09-23T14:44:33Z</time>
      </trkpt>
      <trkpt lat="44.91599" lon="5.18312">
        <ele>1112.8830566406</ele>
        <time>2009-09-23T14:44:48Z</time>
      </trkpt>
      <trkpt lat="44.91617" lon="5.18367">
        <ele>1116.001953125</ele>
        <time>2009-09-23T14:45:05Z</time>
      </trkpt>
      <trkpt lat="44.9165" lon="5.184">
        <ele>1119.7590332031</ele>
        <time>2009-09-23T14:45:21Z</time>
      </trkpt>
      <trkpt lat="44.91687" lon="5.18413">
        <ele>1122.5500488281</ele>
        <time>2009-09-23T14:45:37Z</time>
      </trkpt>
      <trkpt lat="44.91719" lon="5.1842">
        <ele>1126.0030517578</ele>
        <time>2009-09-23T14:45:51Z</time>
      </trkpt>
      <trkpt lat="44.91758" lon="5.18443">
        <ele>1130.9470214844</ele>
        <time>2009-09-23T14:46:08Z</time>
      </trkpt>
      <trkpt lat="44.91759" lon="5.18444">
        <ele>1131.1459960938</ele>
        <time>2009-09-23T14:46:09Z</time>
      </trkpt>
      <trkpt lat="44.91758" lon="5.18425">
        <ele>1131.7490234375</ele>
        <time>2009-09-23T14:46:17Z</time>
      </trkpt>
      <trkpt lat="44.91756" lon="5.18423">
        <ele>1131.5649414062</ele>
        <time>2009-09-23T14:46:18Z</time>
      </trkpt>
      <trkpt lat="44.91711" lon="5.1839">
        <ele>1133.6070556641</ele>
        <time>2009-09-23T14:46:35Z</time>
      </trkpt>
      <trkpt lat="44.91683" lon="5.18377">
        <ele>1134.6610107422</ele>
        <time>2009-09-23T14:46:45Z</time>
      </trkpt>
      <trkpt lat="44.91691" lon="5.1837">
        <ele>1135.4110107422</ele>
        <time>2009-09-23T14:46:52Z</time>
      </trkpt>
      <trkpt lat="44.91716" lon="5.18381">
        <ele>1137.5340576172</ele>
        <time>2009-09-23T14:47:02Z</time>
      </trkpt>
      <trkpt lat="44.91756" lon="5.18399">
        <ele>1140.1429443359</ele>
        <time>2009-09-23T14:47:18Z</time>
      </trkpt>
      <trkpt lat="44.91786" lon="5.18415">
        <ele>1142.666015625</ele>
        <time>2009-09-23T14:47:31Z</time>
      </trkpt>
      <trkpt lat="44.9182" lon="5.18434">
        <ele>1145.6450195312</ele>
        <time>2009-09-23T14:47:46Z</time>
      </trkpt>
      <trkpt lat="44.91854" lon="5.18451">
        <ele>1146.8809814453</ele>
        <time>2009-09-23T14:48:01Z</time>
      </trkpt>
      <trkpt lat="44.91866" lon="5.18457">
        <ele>1145.3620605469</ele>
        <time>2009-09-23T14:48:05Z</time>
      </trkpt>
      <trkpt lat="44.91885" lon="5.18461">
        <ele>1143.9539794922</ele>
        <time>2009-09-23T14:48:09Z</time>
      </trkpt>
      <trkpt lat="44.91895" lon="5.18464">
        <ele>1143.6879882812</ele>
        <time>2009-09-23T14:48:14Z</time>
      </trkpt>
      <trkpt lat="44.91898" lon="5.18472">
        <ele>1142.9809570312</ele>
        <time>2009-09-23T14:51:09Z</time>
      </trkpt>
      <trkpt lat="44.91906" lon="5.18484">
        <ele>1141.9930419922</ele>
        <time>2009-09-23T14:51:13Z</time>
      </trkpt>
      <trkpt lat="44.91919" lon="5.18493">
        <ele>1140.7709960938</ele>
        <time>2009-09-23T14:51:16Z</time>
      </trkpt>
      <trkpt lat="44.91923" lon="5.18497">
        <ele>1140.2719726562</ele>
        <time>2009-09-23T14:51:17Z</time>
      </trkpt>
      <trkpt lat="44.91991" lon="5.18513">
        <ele>1133.5179443359</ele>
        <time>2009-09-23T14:51:27Z</time>
      </trkpt>
      <trkpt lat="44.92071" lon="5.1853">
        <ele>1127.6590576172</ele>
        <time>2009-09-23T14:51:35Z</time>
      </trkpt>
      <trkpt lat="44.92082" lon="5.1853">
        <ele>1126.5660400391</ele>
        <time>2009-09-23T14:51:36Z</time>
      </trkpt>
      <trkpt lat="44.9214" lon="5.18539">
        <ele>1121.6529541016</ele>
        <time>2009-09-23T14:51:41Z</time>
      </trkpt>
      <trkpt lat="44.92252" lon="5.18554">
        <ele>1111.4150390625</ele>
        <time>2009-09-23T14:51:50Z</time>
      </trkpt>
      <trkpt lat="44.924" lon="5.18555">
        <ele>1099.8879394531</ele>
        <time>2009-09-23T14:52:00Z</time>
      </trkpt>
      <trkpt lat="44.92443" lon="5.18564">
        <ele>1097.4969482422</ele>
        <time>2009-09-23T14:52:03Z</time>
      </trkpt>
      <trkpt lat="44.92517" lon="5.18566">
        <ele>1091.2709960938</ele>
        <time>2009-09-23T14:52:08Z</time>
      </trkpt>
      <trkpt lat="44.92559" lon="5.18581">
        <ele>1089.626953125</ele>
        <time>2009-09-23T14:52:11Z</time>
      </trkpt>
      <trkpt lat="44.92591" lon="5.18605">
        <ele>1089.7259521484</ele>
        <time>2009-09-23T14:52:15Z</time>
      </trkpt>
      <trkpt lat="44.92581" lon="5.18587">
        <ele>1088.2800292969</ele>
        <time>2009-09-23T14:52:19Z</time>
      </trkpt>
      <trkpt lat="44.92512" lon="5.1855">
        <ele>1081.8859863281</ele>
        <time>2009-09-23T14:52:28Z</time>
      </trkpt>
      <trkpt lat="44.92402" lon="5.18498">
        <ele>1072.166015625</ele>
        <time>2009-09-23T14:52:38Z</time>
      </trkpt>
      <trkpt lat="44.92271" lon="5.18453">
        <ele>1061.4859619141</ele>
        <time>2009-09-23T14:52:48Z</time>
      </trkpt>
      <trkpt lat="44.92234" lon="5.18443">
        <ele>1060.8549804688</ele>
        <time>2009-09-23T14:52:51Z</time>
      </trkpt>
      <trkpt lat="44.9223" lon="5.18427">
        <ele>1059.0360107422</ele>
        <time>2009-09-23T14:52:56Z</time>
      </trkpt>
      <trkpt lat="44.92245" lon="5.18434">
        <ele>1057.8759765625</ele>
        <time>2009-09-23T14:52:58Z</time>
      </trkpt>
      <trkpt lat="44.92262" lon="5.18437">
        <ele>1056.0009765625</ele>
        <time>2009-09-23T14:53:00Z</time>
      </trkpt>
      <trkpt lat="44.92293" lon="5.1844">
        <ele>1054.0329589844</ele>
        <time>2009-09-23T14:53:03Z</time>
      </trkpt>
      <trkpt lat="44.92361" lon="5.18443">
        <ele>1048.2170410156</ele>
        <time>2009-09-23T14:53:09Z</time>
      </trkpt>
      <trkpt lat="44.92437" lon="5.18451">
        <ele>1043.3199462891</ele>
        <time>2009-09-23T14:53:15Z</time>
      </trkpt>
      <trkpt lat="44.92529" lon="5.1847">
        <ele>1037.6169433594</ele>
        <time>2009-09-23T14:53:22Z</time>
      </trkpt>
      <trkpt lat="44.9262" lon="5.18498">
        <ele>1032.04296875</ele>
        <time>2009-09-23T14:53:29Z</time>
      </trkpt>
      <trkpt lat="44.92639" lon="5.18506">
        <ele>1032.0059814453</ele>
        <time>2009-09-23T14:53:31Z</time>
      </trkpt>
      <trkpt lat="44.92639" lon="5.1849">
        <ele>1030.8020019531</ele>
        <time>2009-09-23T14:53:36Z</time>
      </trkpt>
      <trkpt lat="44.92542" lon="5.18437">
        <ele>1021.4550170898</ele>
        <time>2009-09-23T14:53:47Z</time>
      </trkpt>
      <trkpt lat="44.92427" lon="5.18366">
        <ele>1011.3389892578</ele>
        <time>2009-09-23T14:53:57Z</time>
      </trkpt>
      <trkpt lat="44.92295" lon="5.18318">
        <ele>1001.242980957</ele>
        <time>2009-09-23T14:54:07Z</time>
      </trkpt>
      <trkpt lat="44.92188" lon="5.18275">
        <ele>993.86499023438</ele>
        <time>2009-09-23T14:54:15Z</time>
      </trkpt>
      <trkpt lat="44.92155" lon="5.18255">
        <ele>991.82598876953</ele>
        <time>2009-09-23T14:54:21Z</time>
      </trkpt>
      <trkpt lat="44.92182" lon="5.18257">
        <ele>989.48797607422</ele>
        <time>2009-09-23T14:54:25Z</time>
      </trkpt>
      <trkpt lat="44.92262" lon="5.18265">
        <ele>983.01098632812</ele>
        <time>2009-09-23T14:54:33Z</time>
      </trkpt>
      <trkpt lat="44.9232" lon="5.18273">
        <ele>978.67102050781</ele>
        <time>2009-09-23T14:54:38Z</time>
      </trkpt>
      <trkpt lat="44.92471" lon="5.18265">
        <ele>968.47497558594</ele>
        <time>2009-09-23T14:54:50Z</time>
      </trkpt>
      <trkpt lat="44.92484" lon="5.18267">
        <ele>967.30798339844</ele>
        <time>2009-09-23T14:54:51Z</time>
      </trkpt>
      <trkpt lat="44.92589" lon="5.18315">
        <ele>959.53198242188</ele>
        <time>2009-09-23T14:54:59Z</time>
      </trkpt>
      <trkpt lat="44.92657" lon="5.18334">
        <ele>955.36297607422</ele>
        <time>2009-09-23T14:55:04Z</time>
      </trkpt>
      <trkpt lat="44.92714" lon="5.18333">
        <ele>951.99200439453</ele>
        <time>2009-09-23T14:55:08Z</time>
      </trkpt>
      <trkpt lat="44.92747" lon="5.18335">
        <ele>951.59802246094</ele>
        <time>2009-09-23T14:55:11Z</time>
      </trkpt>
      <trkpt lat="44.92743" lon="5.18314">
        <ele>949.60797119141</ele>
        <time>2009-09-23T14:55:16Z</time>
      </trkpt>
      <trkpt lat="44.92736" lon="5.18314">
        <ele>948.84301757812</ele>
        <time>2009-09-23T14:55:17Z</time>
      </trkpt>
      <trkpt lat="44.92638" lon="5.1828">
        <ele>940.22198486328</ele>
        <time>2009-09-23T14:55:27Z</time>
      </trkpt>
      <trkpt lat="44.92582" lon="5.18243">
        <ele>936.66802978516</ele>
        <time>2009-09-23T14:55:32Z</time>
      </trkpt>
      <trkpt lat="44.9257" lon="5.18235">
        <ele>935.32000732422</ele>
        <time>2009-09-23T14:55:33Z</time>
      </trkpt>
      <trkpt lat="44.92507" lon="5.1817">
        <ele>929.17700195312</ele>
        <time>2009-09-23T14:55:39Z</time>
      </trkpt>
      <trkpt lat="44.92427" lon="5.18135">
        <ele>923.00701904297</ele>
        <time>2009-09-23T14:55:45Z</time>
      </trkpt>
      <trkpt lat="44.92331" lon="5.18116">
        <ele>915.20098876953</ele>
        <time>2009-09-23T14:55:52Z</time>
      </trkpt>
      <trkpt lat="44.92291" lon="5.1809">
        <ele>912.32000732422</ele>
        <time>2009-09-23T14:55:55Z</time>
      </trkpt>
      <trkpt lat="44.92278" lon="5.18084">
        <ele>911.63000488281</ele>
        <time>2009-09-23T14:55:56Z</time>
      </trkpt>
      <trkpt lat="44.92256" lon="5.18078">
        <ele>911.51397705078</ele>
        <time>2009-09-23T14:55:58Z</time>
      </trkpt>
      <trkpt lat="44.92254" lon="5.18059">
        <ele>909.15899658203</ele>
        <time>2009-09-23T14:56:03Z</time>
      </trkpt>
      <trkpt lat="44.92284" lon="5.1807">
        <ele>907.34100341797</ele>
        <time>2009-09-23T14:56:06Z</time>
      </trkpt>
      <trkpt lat="44.92362" lon="5.18084">
        <ele>900.76800537109</ele>
        <time>2009-09-23T14:56:13Z</time>
      </trkpt>
      <trkpt lat="44.92374" lon="5.18083">
        <ele>900.59600830078</ele>
        <time>2009-09-23T14:56:14Z</time>
      </trkpt>
      <trkpt lat="44.92435" lon="5.18074">
        <ele>896.26300048828</ele>
        <time>2009-09-23T14:56:19Z</time>
      </trkpt>
      <trkpt lat="44.9246" lon="5.18068">
        <ele>894.08697509766</ele>
        <time>2009-09-23T14:56:21Z</time>
      </trkpt>
      <trkpt lat="44.92508" lon="5.18038">
        <ele>890.32598876953</ele>
        <time>2009-09-23T14:56:25Z</time>
      </trkpt>
      <trkpt lat="44.92564" lon="5.1806">
        <ele>886.89001464844</ele>
        <time>2009-09-23T14:56:30Z</time>
      </trkpt>
      <trkpt lat="44.92571" lon="5.18073">
        <ele>885.88201904297</ele>
        <time>2009-09-23T14:56:31Z</time>
      </trkpt>
      <trkpt lat="44.92628" lon="5.18091">
        <ele>882.15502929688</ele>
        <time>2009-09-23T14:56:36Z</time>
      </trkpt>
      <trkpt lat="44.9269" lon="5.18098">
        <ele>878.90197753906</ele>
        <time>2009-09-23T14:56:41Z</time>
      </trkpt>
      <trkpt lat="44.92719" lon="5.18045">
        <ele>874.54602050781</ele>
        <time>2009-09-23T14:56:45Z</time>
      </trkpt>
      <trkpt lat="44.92732" lon="5.18013">
        <ele>873.17797851562</ele>
        <time>2009-09-23T14:56:47Z</time>
      </trkpt>
      <trkpt lat="44.92754" lon="5.17968">
        <ele>870.44702148438</ele>
        <time>2009-09-23T14:56:50Z</time>
      </trkpt>
      <trkpt lat="44.92767" lon="5.1784">
        <ele>864.76898193359</ele>
        <time>2009-09-23T14:56:57Z</time>
      </trkpt>
      <trkpt lat="44.9279" lon="5.17784">
        <ele>861.41900634766</ele>
        <time>2009-09-23T14:57:01Z</time>
      </trkpt>
      <trkpt lat="44.92789" lon="5.17722">
        <ele>857.75598144531</ele>
        <time>2009-09-23T14:57:05Z</time>
      </trkpt>
      <trkpt lat="44.92809" lon="5.17668">
        <ele>853.56896972656</ele>
        <time>2009-09-23T14:57:09Z</time>
      </trkpt>
      <trkpt lat="44.92832" lon="5.17655">
        <ele>852.11499023438</ele>
        <time>2009-09-23T14:57:11Z</time>
      </trkpt>
      <trkpt lat="44.92936" lon="5.17619">
        <ele>844.458984375</ele>
        <time>2009-09-23T14:57:19Z</time>
      </trkpt>
      <trkpt lat="44.92974" lon="5.17599">
        <ele>841.15899658203</ele>
        <time>2009-09-23T14:57:22Z</time>
      </trkpt>
      <trkpt lat="44.93037" lon="5.17554">
        <ele>836.0419921875</ele>
        <time>2009-09-23T14:57:27Z</time>
      </trkpt>
      <trkpt lat="44.93089" lon="5.17489">
        <ele>830.98901367188</ele>
        <time>2009-09-23T14:57:32Z</time>
      </trkpt>
      <trkpt lat="44.93098" lon="5.17474">
        <ele>830.39697265625</ele>
        <time>2009-09-23T14:57:33Z</time>
      </trkpt>
      <trkpt lat="44.93118" lon="5.17422">
        <ele>827.27001953125</ele>
        <time>2009-09-23T14:57:36Z</time>
      </trkpt>
      <trkpt lat="44.93188" lon="5.17367">
        <ele>821.97302246094</ele>
        <time>2009-09-23T14:57:42Z</time>
      </trkpt>
      <trkpt lat="44.9322" lon="5.1732">
        <ele>818.16497802734</ele>
        <time>2009-09-23T14:57:46Z</time>
      </trkpt>
      <trkpt lat="44.93227" lon="5.17283">
        <ele>817.44299316406</ele>
        <time>2009-09-23T14:57:48Z</time>
      </trkpt>
      <trkpt lat="44.93246" lon="5.17189">
        <ele>810.82202148438</ele>
        <time>2009-09-23T14:57:53Z</time>
      </trkpt>
      <trkpt lat="44.93288" lon="5.17091">
        <ele>805.24200439453</ele>
        <time>2009-09-23T14:57:59Z</time>
      </trkpt>
      <trkpt lat="44.93346" lon="5.17095">
        <ele>800.60302734375</ele>
        <time>2009-09-23T14:58:05Z</time>
      </trkpt>
      <trkpt lat="44.93379" lon="5.17066">
        <ele>797.85601806641</ele>
        <time>2009-09-23T14:58:09Z</time>
      </trkpt>
      <trkpt lat="44.93383" lon="5.17052">
        <ele>797.36199951172</ele>
        <time>2009-09-23T14:58:10Z</time>
      </trkpt>
      <trkpt lat="44.9342" lon="5.16885">
        <ele>789.32501220703</ele>
        <time>2009-09-23T14:58:21Z</time>
      </trkpt>
      <trkpt lat="44.93433" lon="5.16831">
        <ele>787.16198730469</ele>
        <time>2009-09-23T14:58:26Z</time>
      </trkpt>
      <trkpt lat="44.93419" lon="5.16744">
        <ele>783.10601806641</ele>
        <time>2009-09-23T14:58:35Z</time>
      </trkpt>
      <trkpt lat="44.93421" lon="5.16722">
        <ele>782.00799560547</ele>
        <time>2009-09-23T14:58:37Z</time>
      </trkpt>
      <trkpt lat="44.93432" lon="5.16661">
        <ele>779.43597412109</ele>
        <time>2009-09-23T14:58:42Z</time>
      </trkpt>
      <trkpt lat="44.93426" lon="5.16604">
        <ele>776.27600097656</ele>
        <time>2009-09-23T14:58:46Z</time>
      </trkpt>
      <trkpt lat="44.9346" lon="5.1653">
        <ele>772.52600097656</ele>
        <time>2009-09-23T14:58:52Z</time>
      </trkpt>
      <trkpt lat="44.93498" lon="5.16451">
        <ele>768.82202148438</ele>
        <time>2009-09-23T14:58:58Z</time>
      </trkpt>
      <trkpt lat="44.93501" lon="5.16368">
        <ele>765.37298583984</ele>
        <time>2009-09-23T14:59:03Z</time>
      </trkpt>
      <trkpt lat="44.93483" lon="5.16285">
        <ele>761.46398925781</ele>
        <time>2009-09-23T14:59:08Z</time>
      </trkpt>
      <trkpt lat="44.93502" lon="5.16231">
        <ele>757.83697509766</ele>
        <time>2009-09-23T14:59:13Z</time>
      </trkpt>
      <trkpt lat="44.93513" lon="5.16228">
        <ele>757.20397949219</ele>
        <time>2009-09-23T14:59:14Z</time>
      </trkpt>
      <trkpt lat="44.9356" lon="5.16199">
        <ele>754.89898681641</ele>
        <time>2009-09-23T14:59:19Z</time>
      </trkpt>
      <trkpt lat="44.93591" lon="5.16151">
        <ele>752.13201904297</ele>
        <time>2009-09-23T14:59:23Z</time>
      </trkpt>
      <trkpt lat="44.93646" lon="5.16127">
        <ele>749.18597412109</ele>
        <time>2009-09-23T14:59:28Z</time>
      </trkpt>
      <trkpt lat="44.93669" lon="5.16124">
        <ele>747.77001953125</ele>
        <time>2009-09-23T14:59:30Z</time>
      </trkpt>
      <trkpt lat="44.93713" lon="5.16097">
        <ele>745.46197509766</ele>
        <time>2009-09-23T14:59:34Z</time>
      </trkpt>
      <trkpt lat="44.93783" lon="5.1603">
        <ele>740.64300537109</ele>
        <time>2009-09-23T14:59:41Z</time>
      </trkpt>
      <trkpt lat="44.93826" lon="5.16053">
        <ele>737.875</ele>
        <time>2009-09-23T14:59:46Z</time>
      </trkpt>
      <trkpt lat="44.93829" lon="5.16067">
        <ele>737.12200927734</ele>
        <time>2009-09-23T14:59:47Z</time>
      </trkpt>
      <trkpt lat="44.93834" lon="5.16096">
        <ele>736.24298095703</ele>
        <time>2009-09-23T14:59:49Z</time>
      </trkpt>
      <trkpt lat="44.93843" lon="5.16189">
        <ele>732.82897949219</ele>
        <time>2009-09-23T14:59:55Z</time>
      </trkpt>
      <trkpt lat="44.93842" lon="5.16204">
        <ele>731.87701416016</ele>
        <time>2009-09-23T14:59:56Z</time>
      </trkpt>
      <trkpt lat="44.93834" lon="5.16249">
        <ele>731.04901123047</ele>
        <time>2009-09-23T14:59:59Z</time>
      </trkpt>
      <trkpt lat="44.93787" lon="5.16287">
        <ele>727.73699951172</ele>
        <time>2009-09-23T15:00:04Z</time>
      </trkpt>
      <trkpt lat="44.93776" lon="5.16283">
        <ele>727.7080078125</ele>
        <time>2009-09-23T15:00:05Z</time>
      </trkpt>
      <trkpt lat="44.9377" lon="5.16302">
        <ele>726.45501708984</ele>
        <time>2009-09-23T15:00:11Z</time>
      </trkpt>
      <trkpt lat="44.9383" lon="5.16296">
        <ele>722.78802490234</ele>
        <time>2009-09-23T15:00:18Z</time>
      </trkpt>
      <trkpt lat="44.9386" lon="5.16254">
        <ele>720.39898681641</ele>
        <time>2009-09-23T15:00:22Z</time>
      </trkpt>
      <trkpt lat="44.93872" lon="5.1623">
        <ele>719.37200927734</ele>
        <time>2009-09-23T15:00:24Z</time>
      </trkpt>
      <trkpt lat="44.9389" lon="5.16192">
        <ele>717.23498535156</ele>
        <time>2009-09-23T15:00:27Z</time>
      </trkpt>
      <trkpt lat="44.93892" lon="5.16153">
        <ele>716.31201171875</ele>
        <time>2009-09-23T15:00:29Z</time>
      </trkpt>
      <trkpt lat="44.93888" lon="5.16071">
        <ele>713.55102539062</ele>
        <time>2009-09-23T15:00:34Z</time>
      </trkpt>
      <trkpt lat="44.93878" lon="5.1599">
        <ele>710.47302246094</ele>
        <time>2009-09-23T15:00:39Z</time>
      </trkpt>
      <trkpt lat="44.93887" lon="5.15926">
        <ele>707.89398193359</ele>
        <time>2009-09-23T15:00:43Z</time>
      </trkpt>
      <trkpt lat="44.93863" lon="5.15866">
        <ele>704.73297119141</ele>
        <time>2009-09-23T15:00:48Z</time>
      </trkpt>
      <trkpt lat="44.93842" lon="5.15876">
        <ele>703.50299072266</ele>
        <time>2009-09-23T15:00:50Z</time>
      </trkpt>
      <trkpt lat="44.93826" lon="5.15888">
        <ele>703.34997558594</ele>
        <time>2009-09-23T15:00:52Z</time>
      </trkpt>
      <trkpt lat="44.93821" lon="5.15865">
        <ele>701.29602050781</ele>
        <time>2009-09-23T15:00:57Z</time>
      </trkpt>
      <trkpt lat="44.93873" lon="5.15847">
        <ele>697.35900878906</ele>
        <time>2009-09-23T15:01:03Z</time>
      </trkpt>
      <trkpt lat="44.93908" lon="5.1587">
        <ele>694.59997558594</ele>
        <time>2009-09-23T15:01:07Z</time>
      </trkpt>
      <trkpt lat="44.93911" lon="5.15899">
        <ele>693.39300537109</ele>
        <time>2009-09-23T15:01:09Z</time>
      </trkpt>
      <trkpt lat="44.93911" lon="5.15914">
        <ele>692.85198974609</ele>
        <time>2009-09-23T15:01:10Z</time>
      </trkpt>
      <trkpt lat="44.93909" lon="5.15943">
        <ele>691.87200927734</ele>
        <time>2009-09-23T15:01:12Z</time>
      </trkpt>
      <trkpt lat="44.93907" lon="5.15989">
        <ele>690.03302001953</ele>
        <time>2009-09-23T15:01:15Z</time>
      </trkpt>
      <trkpt lat="44.93913" lon="5.16034">
        <ele>688.31298828125</ele>
        <time>2009-09-23T15:01:18Z</time>
      </trkpt>
      <trkpt lat="44.93928" lon="5.16081">
        <ele>686.58001708984</ele>
        <time>2009-09-23T15:01:21Z</time>
      </trkpt>
      <trkpt lat="44.93941" lon="5.16139">
        <ele>684.34197998047</ele>
        <time>2009-09-23T15:01:25Z</time>
      </trkpt>
      <trkpt lat="44.93948" lon="5.16181">
        <ele>682.84802246094</ele>
        <time>2009-09-23T15:01:28Z</time>
      </trkpt>
      <trkpt lat="44.9395" lon="5.16193">
        <ele>682.67401123047</ele>
        <time>2009-09-23T15:01:29Z</time>
      </trkpt>
      <trkpt lat="44.93967" lon="5.16183">
        <ele>681.17901611328</ele>
        <time>2009-09-23T15:01:34Z</time>
      </trkpt>
      <trkpt lat="44.93964" lon="5.16173">
        <ele>680.91400146484</ele>
        <time>2009-09-23T15:01:35Z</time>
      </trkpt>
      <trkpt lat="44.93961" lon="5.16163">
        <ele>680.97497558594</ele>
        <time>2009-09-23T15:01:36Z</time>
      </trkpt>
      <trkpt lat="44.93945" lon="5.16071">
        <ele>676.32000732422</ele>
        <time>2009-09-23T15:01:43Z</time>
      </trkpt>
      <trkpt lat="44.9394" lon="5.16025">
        <ele>674.21301269531</ele>
        <time>2009-09-23T15:01:46Z</time>
      </trkpt>
      <trkpt lat="44.93937" lon="5.15995">
        <ele>672.75402832031</ele>
        <time>2009-09-23T15:01:48Z</time>
      </trkpt>
      <trkpt lat="44.93942" lon="5.15909">
        <ele>669.2509765625</ele>
        <time>2009-09-23T15:01:53Z</time>
      </trkpt>
      <trkpt lat="44.93946" lon="5.15839">
        <ele>666.041015625</ele>
        <time>2009-09-23T15:01:57Z</time>
      </trkpt>
      <trkpt lat="44.93914" lon="5.15774">
        <ele>662.29602050781</ele>
        <time>2009-09-23T15:02:02Z</time>
      </trkpt>
      <trkpt lat="44.93903" lon="5.15767">
        <ele>661.59600830078</ele>
        <time>2009-09-23T15:02:03Z</time>
      </trkpt>
      <trkpt lat="44.93869" lon="5.15745">
        <ele>658.95697021484</ele>
        <time>2009-09-23T15:02:06Z</time>
      </trkpt>
      <trkpt lat="44.93773" lon="5.1572">
        <ele>651.88000488281</ele>
        <time>2009-09-23T15:02:14Z</time>
      </trkpt>
      <trkpt lat="44.93721" lon="5.15753">
        <ele>648.01702880859</ele>
        <time>2009-09-23T15:02:19Z</time>
      </trkpt>
      <trkpt lat="44.93707" lon="5.15749">
        <ele>646.0419921875</ele>
        <time>2009-09-23T15:02:24Z</time>
      </trkpt>
      <trkpt lat="44.93711" lon="5.1574">
        <ele>645.47399902344</ele>
        <time>2009-09-23T15:02:25Z</time>
      </trkpt>
      <trkpt lat="44.93727" lon="5.15709">
        <ele>643.17401123047</ele>
        <time>2009-09-23T15:02:28Z</time>
      </trkpt>
      <trkpt lat="44.93787" lon="5.1568">
        <ele>638.31097412109</ele>
        <time>2009-09-23T15:02:34Z</time>
      </trkpt>
      <trkpt lat="44.93798" lon="5.15681">
        <ele>637.43701171875</ele>
        <time>2009-09-23T15:02:35Z</time>
      </trkpt>
      <trkpt lat="44.93932" lon="5.15691">
        <ele>625.49798583984</ele>
        <time>2009-09-23T15:02:46Z</time>
      </trkpt>
      <trkpt lat="44.94011" lon="5.15764">
        <ele>618.61901855469</ele>
        <time>2009-09-23T15:02:53Z</time>
      </trkpt>
      <trkpt lat="44.9404" lon="5.15853">
        <ele>614.19598388672</ele>
        <time>2009-09-23T15:02:58Z</time>
      </trkpt>
      <trkpt lat="44.94049" lon="5.15897">
        <ele>613.06201171875</ele>
        <time>2009-09-23T15:03:02Z</time>
      </trkpt>
      <trkpt lat="44.94057" lon="5.15877">
        <ele>611.86999511719</ele>
        <time>2009-09-23T15:03:05Z</time>
      </trkpt>
      <trkpt lat="44.94051" lon="5.15845">
        <ele>609.86102294922</ele>
        <time>2009-09-23T15:03:08Z</time>
      </trkpt>
      <trkpt lat="44.94044" lon="5.15794">
        <ele>608.28198242188</ele>
        <time>2009-09-23T15:03:12Z</time>
      </trkpt>
      <trkpt lat="44.94027" lon="5.15744">
        <ele>606.01300048828</ele>
        <time>2009-09-23T15:03:16Z</time>
      </trkpt>
      <trkpt lat="44.94022" lon="5.1573">
        <ele>605.74200439453</ele>
        <time>2009-09-23T15:03:17Z</time>
      </trkpt>
      <trkpt lat="44.93988" lon="5.1567">
        <ele>602.52398681641</ele>
        <time>2009-09-23T15:03:22Z</time>
      </trkpt>
      <trkpt lat="44.93953" lon="5.15633">
        <ele>599.59002685547</ele>
        <time>2009-09-23T15:03:26Z</time>
      </trkpt>
      <trkpt lat="44.93926" lon="5.15613">
        <ele>598.23297119141</ele>
        <time>2009-09-23T15:03:29Z</time>
      </trkpt>
      <trkpt lat="44.9393" lon="5.15596">
        <ele>596.25402832031</ele>
        <time>2009-09-23T15:03:34Z</time>
      </trkpt>
      <trkpt lat="44.93943" lon="5.15607">
        <ele>595.17797851562</ele>
        <time>2009-09-23T15:03:36Z</time>
      </trkpt>
      <trkpt lat="44.94019" lon="5.1568">
        <ele>591.85198974609</ele>
        <time>2009-09-23T15:03:47Z</time>
      </trkpt>
      <trkpt lat="44.94113" lon="5.15769">
        <ele>584.20397949219</ele>
        <time>2009-09-23T15:03:59Z</time>
      </trkpt>
      <trkpt lat="44.9413" lon="5.15779">
        <ele>582.84899902344</ele>
        <time>2009-09-23T15:04:06Z</time>
      </trkpt>
      <trkpt lat="44.9413" lon="5.15781">
        <ele>581.55200195312</ele>
        <time>2009-09-23T15:05:16Z</time>
      </trkpt>
      <trkpt lat="44.94133" lon="5.15784">
        <ele>581.31799316406</ele>
        <time>2009-09-23T15:05:17Z</time>
      </trkpt>
      <trkpt lat="44.94138" lon="5.15791">
        <ele>580.57501220703</ele>
        <time>2009-09-23T15:05:19Z</time>
      </trkpt>
      <trkpt lat="44.94145" lon="5.15802">
        <ele>579.42602539062</ele>
        <time>2009-09-23T15:05:21Z</time>
      </trkpt>
      <trkpt lat="44.94154" lon="5.15864">
        <ele>575.96002197266</ele>
        <time>2009-09-23T15:05:27Z</time>
      </trkpt>
      <trkpt lat="44.94151" lon="5.15916">
        <ele>572.69500732422</ele>
        <time>2009-09-23T15:05:31Z</time>
      </trkpt>
      <trkpt lat="44.94179" lon="5.16057">
        <ele>563.60998535156</ele>
        <time>2009-09-23T15:05:40Z</time>
      </trkpt>
      <trkpt lat="44.94183" lon="5.16139">
        <ele>561.11401367188</ele>
        <time>2009-09-23T15:05:45Z</time>
      </trkpt>
      <trkpt lat="44.94186" lon="5.16203">
        <ele>558.34100341797</ele>
        <time>2009-09-23T15:05:49Z</time>
      </trkpt>
      <trkpt lat="44.94214" lon="5.16228">
        <ele>556.69396972656</ele>
        <time>2009-09-23T15:05:53Z</time>
      </trkpt>
      <trkpt lat="44.94244" lon="5.16177">
        <ele>554.71502685547</ele>
        <time>2009-09-23T15:05:58Z</time>
      </trkpt>
      <trkpt lat="44.94265" lon="5.16122">
        <ele>552.31701660156</ele>
        <time>2009-09-23T15:06:02Z</time>
      </trkpt>
      <trkpt lat="44.94276" lon="5.16094">
        <ele>551.40197753906</ele>
        <time>2009-09-23T15:06:04Z</time>
      </trkpt>
      <trkpt lat="44.94296" lon="5.16016">
        <ele>548.82800292969</ele>
        <time>2009-09-23T15:06:09Z</time>
      </trkpt>
      <trkpt lat="44.94335" lon="5.1582">
        <ele>538.14697265625</ele>
        <time>2009-09-23T15:06:20Z</time>
      </trkpt>
      <trkpt lat="44.94354" lon="5.15729">
        <ele>532.97698974609</ele>
        <time>2009-09-23T15:06:25Z</time>
      </trkpt>
      <trkpt lat="44.94373" lon="5.15639">
        <ele>527.53002929688</ele>
        <time>2009-09-23T15:06:30Z</time>
      </trkpt>
      <trkpt lat="44.94416" lon="5.15447">
        <ele>517.15502929688</ele>
        <time>2009-09-23T15:06:41Z</time>
      </trkpt>
      <trkpt lat="44.94457" lon="5.15257">
        <ele>508.70999145508</ele>
        <time>2009-09-23T15:06:53Z</time>
      </trkpt>
      <trkpt lat="44.94468" lon="5.15159">
        <ele>505.03500366211</ele>
        <time>2009-09-23T15:06:59Z</time>
      </trkpt>
      <trkpt lat="44.94476" lon="5.15094">
        <ele>500.79400634766</ele>
        <time>2009-09-23T15:07:03Z</time>
      </trkpt>
      <trkpt lat="44.94484" lon="5.15064">
        <ele>500.08898925781</ele>
        <time>2009-09-23T15:07:05Z</time>
      </trkpt>
      <trkpt lat="44.94499" lon="5.1504">
        <ele>499.52200317383</ele>
        <time>2009-09-23T15:07:07Z</time>
      </trkpt>
      <trkpt lat="44.94573" lon="5.14929">
        <ele>494.60501098633</ele>
        <time>2009-09-23T15:07:16Z</time>
      </trkpt>
      <trkpt lat="44.94635" lon="5.14842">
        <ele>489.40200805664</ele>
        <time>2009-09-23T15:07:23Z</time>
      </trkpt>
      <trkpt lat="44.94684" lon="5.14823">
        <ele>485.44900512695</ele>
        <time>2009-09-23T15:07:27Z</time>
      </trkpt>
      <trkpt lat="44.94771" lon="5.14789">
        <ele>478.91799926758</ele>
        <time>2009-09-23T15:07:34Z</time>
      </trkpt>
      <trkpt lat="44.94821" lon="5.14735">
        <ele>474.69400024414</ele>
        <time>2009-09-23T15:07:39Z</time>
      </trkpt>
      <trkpt lat="44.94897" lon="5.14713">
        <ele>471.64599609375</ele>
        <time>2009-09-23T15:07:45Z</time>
      </trkpt>
      <trkpt lat="44.94908" lon="5.14707">
        <ele>471.22299194336</ele>
        <time>2009-09-23T15:07:46Z</time>
      </trkpt>
      <trkpt lat="44.9493" lon="5.14692">
        <ele>470.12899780273</ele>
        <time>2009-09-23T15:07:48Z</time>
      </trkpt>
      <trkpt lat="44.94991" lon="5.14634">
        <ele>465.60101318359</ele>
        <time>2009-09-23T15:07:54Z</time>
      </trkpt>
      <trkpt lat="44.95063" lon="5.14593">
        <ele>459.33700561523</ele>
        <time>2009-09-23T15:08:00Z</time>
      </trkpt>
      <trkpt lat="44.95112" lon="5.14566">
        <ele>455.3039855957</ele>
        <time>2009-09-23T15:08:04Z</time>
      </trkpt>
      <trkpt lat="44.95149" lon="5.14513">
        <ele>452.03601074219</ele>
        <time>2009-09-23T15:08:08Z</time>
      </trkpt>
      <trkpt lat="44.95157" lon="5.14498">
        <ele>452.0530090332</ele>
        <time>2009-09-23T15:08:09Z</time>
      </trkpt>
      <trkpt lat="44.95212" lon="5.14409">
        <ele>450.4469909668</ele>
        <time>2009-09-23T15:08:16Z</time>
      </trkpt>
      <trkpt lat="44.9526" lon="5.14384">
        <ele>450.71301269531</ele>
        <time>2009-09-23T15:08:21Z</time>
      </trkpt>
      <trkpt lat="44.95277" lon="5.14362">
        <ele>451.77600097656</ele>
        <time>2009-09-23T15:08:24Z</time>
      </trkpt>
      <trkpt lat="44.95288" lon="5.14352">
        <ele>452.84600830078</ele>
        <time>2009-09-23T15:08:26Z</time>
      </trkpt>
      <trkpt lat="44.95317" lon="5.14332">
        <ele>453.40200805664</ele>
        <time>2009-09-23T15:08:31Z</time>
      </trkpt>
      <trkpt lat="44.95322" lon="5.14327">
        <ele>453.86499023438</ele>
        <time>2009-09-23T15:08:32Z</time>
      </trkpt>
      <trkpt lat="44.95334" lon="5.14325">
        <ele>454.39999389648</ele>
        <time>2009-09-23T15:08:34Z</time>
      </trkpt>
      <trkpt lat="44.95362" lon="5.14315">
        <ele>454.46301269531</ele>
        <time>2009-09-23T15:08:39Z</time>
      </trkpt>
      <trkpt lat="44.9538" lon="5.14305">
        <ele>453.76800537109</ele>
        <time>2009-09-23T15:08:43Z</time>
      </trkpt>
      <trkpt lat="44.95407" lon="5.14293">
        <ele>453.52398681641</ele>
        <time>2009-09-23T15:08:49Z</time>
      </trkpt>
      <trkpt lat="44.9541" lon="5.14291">
        <ele>453.58200073242</ele>
        <time>2009-09-23T15:08:52Z</time>
      </trkpt>
      <trkpt lat="44.95417" lon="5.14296">
        <ele>453.24798583984</ele>
        <time>2009-09-23T15:10:05Z</time>
      </trkpt>
      <trkpt lat="44.95417" lon="5.14296">
        <ele>453.34600830078</ele>
        <time>2009-09-23T15:10:06Z</time>
      </trkpt>
      <trkpt lat="44.95433" lon="5.14278">
        <ele>452.66000366211</ele>
        <time>2009-09-23T15:10:25Z</time>
      </trkpt>
      <trkpt lat="44.95459" lon="5.14257">
        <ele>452.14999389648</ele>
        <time>2009-09-23T15:10:31Z</time>
      </trkpt>
      <trkpt lat="44.95478" lon="5.14241">
        <ele>451.84399414062</ele>
        <time>2009-09-23T15:10:35Z</time>
      </trkpt>
      <trkpt lat="44.95532" lon="5.14216">
        <ele>451.48300170898</ele>
        <time>2009-09-23T15:10:43Z</time>
      </trkpt>
      <trkpt lat="44.95568" lon="5.14192">
        <ele>451.11401367188</ele>
        <time>2009-09-23T15:10:48Z</time>
      </trkpt>
      <trkpt lat="44.956" lon="5.14137">
        <ele>449.99700927734</ele>
        <time>2009-09-23T15:10:55Z</time>
      </trkpt>
      <trkpt lat="44.95634" lon="5.14007">
        <ele>447.0710144043</ele>
        <time>2009-09-23T15:11:07Z</time>
      </trkpt>
      <trkpt lat="44.95636" lon="5.13996">
        <ele>446.94400024414</ele>
        <time>2009-09-23T15:11:08Z</time>
      </trkpt>
      <trkpt lat="44.95653" lon="5.13838">
        <ele>443.42498779297</ele>
        <time>2009-09-23T15:11:21Z</time>
      </trkpt>
      <trkpt lat="44.95653" lon="5.13774">
        <ele>441.85900878906</ele>
        <time>2009-09-23T15:11:26Z</time>
      </trkpt>
      <trkpt lat="44.95683" lon="5.13682">
        <ele>438.93099975586</ele>
        <time>2009-09-23T15:11:34Z</time>
      </trkpt>
      <trkpt lat="44.95761" lon="5.13544">
        <ele>435.60800170898</ele>
        <time>2009-09-23T15:11:49Z</time>
      </trkpt>
      <trkpt lat="44.95786" lon="5.13499">
        <ele>433.67401123047</ele>
        <time>2009-09-23T15:11:54Z</time>
      </trkpt>
      <trkpt lat="44.95795" lon="5.13483">
        <ele>432.95700073242</ele>
        <time>2009-09-23T15:11:56Z</time>
      </trkpt>
      <trkpt lat="44.9581" lon="5.13458">
        <ele>432.39801025391</ele>
        <time>2009-09-23T15:12:00Z</time>
      </trkpt>
      <trkpt lat="44.95822" lon="5.13437">
        <ele>431.21301269531</ele>
        <time>2009-09-23T15:12:09Z</time>
      </trkpt>
      <trkpt lat="44.95823" lon="5.13434">
        <ele>430.76501464844</ele>
        <time>2009-09-23T15:12:44Z</time>
      </trkpt>
      <trkpt lat="44.95824" lon="5.13432">
        <ele>430.57000732422</ele>
        <time>2009-09-23T15:12:45Z</time>
      </trkpt>
      <trkpt lat="44.95859" lon="5.13366">
        <ele>427.48300170898</ele>
        <time>2009-09-23T15:12:54Z</time>
      </trkpt>
      <trkpt lat="44.9587" lon="5.13347">
        <ele>426.73498535156</ele>
        <time>2009-09-23T15:12:56Z</time>
      </trkpt>
      <trkpt lat="44.95876" lon="5.13338">
        <ele>426.15200805664</ele>
        <time>2009-09-23T15:12:57Z</time>
      </trkpt>
      <trkpt lat="44.95913" lon="5.13263">
        <ele>423.22698974609</ele>
        <time>2009-09-23T15:13:04Z</time>
      </trkpt>
      <trkpt lat="44.9593" lon="5.13244">
        <ele>422.54098510742</ele>
        <time>2009-09-23T15:13:10Z</time>
      </trkpt>
      <trkpt lat="44.95949" lon="5.13217">
        <ele>420.89999389648</ele>
        <time>2009-09-23T15:13:16Z</time>
      </trkpt>
      <trkpt lat="44.95973" lon="5.13147">
        <ele>418.55099487305</ele>
        <time>2009-09-23T15:13:23Z</time>
      </trkpt>
      <trkpt lat="44.96018" lon="5.13073">
        <ele>415.00500488281</ele>
        <time>2009-09-23T15:13:30Z</time>
      </trkpt>
      <trkpt lat="44.96025" lon="5.13062">
        <ele>414.94100952148</ele>
        <time>2009-09-23T15:13:31Z</time>
      </trkpt>
      <trkpt lat="44.96066" lon="5.12996">
        <ele>412.11199951172</ele>
        <time>2009-09-23T15:13:37Z</time>
      </trkpt>
      <trkpt lat="44.96104" lon="5.12943">
        <ele>409.62200927734</ele>
        <time>2009-09-23T15:13:42Z</time>
      </trkpt>
      <trkpt lat="44.96145" lon="5.12895">
        <ele>407.28799438477</ele>
        <time>2009-09-23T15:13:47Z</time>
      </trkpt>
      <trkpt lat="44.9619" lon="5.1285">
        <ele>405.11401367188</ele>
        <time>2009-09-23T15:13:52Z</time>
      </trkpt>
      <trkpt lat="44.96225" lon="5.12809">
        <ele>402.55700683594</ele>
        <time>2009-09-23T15:13:56Z</time>
      </trkpt>
      <trkpt lat="44.96244" lon="5.12789">
        <ele>401.36401367188</ele>
        <time>2009-09-23T15:13:58Z</time>
      </trkpt>
      <trkpt lat="44.96265" lon="5.12774">
        <ele>400.45901489258</ele>
        <time>2009-09-23T15:14:00Z</time>
      </trkpt>
      <trkpt lat="44.96331" lon="5.1274">
        <ele>396.97198486328</ele>
        <time>2009-09-23T15:14:06Z</time>
      </trkpt>
      <trkpt lat="44.96375" lon="5.12717">
        <ele>395.12899780273</ele>
        <time>2009-09-23T15:14:10Z</time>
      </trkpt>
      <trkpt lat="44.9645" lon="5.1267">
        <ele>391.02801513672</ele>
        <time>2009-09-23T15:14:17Z</time>
      </trkpt>
      <trkpt lat="44.96522" lon="5.12586">
        <ele>387.37799072266</ele>
        <time>2009-09-23T15:14:25Z</time>
      </trkpt>
      <trkpt lat="44.96548" lon="5.12552">
        <ele>385.5299987793</ele>
        <time>2009-09-23T15:14:28Z</time>
      </trkpt>
      <trkpt lat="44.96684" lon="5.12419">
        <ele>376.68798828125</ele>
        <time>2009-09-23T15:14:42Z</time>
      </trkpt>
      <trkpt lat="44.96805" lon="5.12273">
        <ele>370.12100219727</ele>
        <time>2009-09-23T15:14:56Z</time>
      </trkpt>
      <trkpt lat="44.96877" lon="5.1217">
        <ele>365.63400268555</ele>
        <time>2009-09-23T15:15:05Z</time>
      </trkpt>
      <trkpt lat="44.96917" lon="5.12111">
        <ele>363.14498901367</ele>
        <time>2009-09-23T15:15:10Z</time>
      </trkpt>
      <trkpt lat="44.96997" lon="5.12018">
        <ele>358.87200927734</ele>
        <time>2009-09-23T15:15:19Z</time>
      </trkpt>
      <trkpt lat="44.97039" lon="5.11993">
        <ele>357.0719909668</ele>
        <time>2009-09-23T15:15:23Z</time>
      </trkpt>
      <trkpt lat="44.97195" lon="5.11901">
        <ele>350.30200195312</ele>
        <time>2009-09-23T15:15:38Z</time>
      </trkpt>
      <trkpt lat="44.97351" lon="5.11825">
        <ele>342.39599609375</ele>
        <time>2009-09-23T15:15:52Z</time>
      </trkpt>
      <trkpt lat="44.97399" lon="5.11811">
        <ele>339.89898681641</ele>
        <time>2009-09-23T15:15:56Z</time>
      </trkpt>
      <trkpt lat="44.97473" lon="5.11789">
        <ele>336.77499389648</ele>
        <time>2009-09-23T15:16:02Z</time>
      </trkpt>
      <trkpt lat="44.97519" lon="5.1174">
        <ele>334.61801147461</ele>
        <time>2009-09-23T15:16:07Z</time>
      </trkpt>
      <trkpt lat="44.9763" lon="5.11561">
        <ele>330.96701049805</ele>
        <time>2009-09-23T15:16:23Z</time>
      </trkpt>
      <trkpt lat="44.97731" lon="5.11412">
        <ele>325.08200073242</ele>
        <time>2009-09-23T15:16:37Z</time>
      </trkpt>
      <trkpt lat="44.97787" lon="5.11368">
        <ele>322.07699584961</ele>
        <time>2009-09-23T15:16:43Z</time>
      </trkpt>
      <trkpt lat="44.97977" lon="5.11236">
        <ele>314.23999023438</ele>
        <time>2009-09-23T15:17:03Z</time>
      </trkpt>
      <trkpt lat="44.98073" lon="5.11103">
        <ele>310.06900024414</ele>
        <time>2009-09-23T15:17:16Z</time>
      </trkpt>
      <trkpt lat="44.98108" lon="5.11066">
        <ele>308.10400390625</ele>
        <time>2009-09-23T15:17:20Z</time>
      </trkpt>
      <trkpt lat="44.98203" lon="5.10962">
        <ele>302.72299194336</ele>
        <time>2009-09-23T15:17:32Z</time>
      </trkpt>
      <trkpt lat="44.98213" lon="5.10949">
        <ele>302.44500732422</ele>
        <time>2009-09-23T15:17:34Z</time>
      </trkpt>
      <trkpt lat="44.98265" lon="5.10886">
        <ele>302.14199829102</ele>
        <time>2009-09-23T15:17:45Z</time>
      </trkpt>
      <trkpt lat="44.98368" lon="5.10826">
        <ele>298.9700012207</ele>
        <time>2009-09-23T15:17:58Z</time>
      </trkpt>
      <trkpt lat="44.98471" lon="5.10766">
        <ele>295.80099487305</ele>
        <time>2009-09-23T15:18:09Z</time>
      </trkpt>
      <trkpt lat="44.98518" lon="5.10735">
        <ele>293.87701416016</ele>
        <time>2009-09-23T15:18:14Z</time>
      </trkpt>
      <trkpt lat="44.98656" lon="5.10628">
        <ele>289.95401000977</ele>
        <time>2009-09-23T15:18:29Z</time>
      </trkpt>
      <trkpt lat="44.98758" lon="5.10548">
        <ele>286.99398803711</ele>
        <time>2009-09-23T15:18:40Z</time>
      </trkpt>
      <trkpt lat="44.98827" lon="5.10425">
        <ele>282.80599975586</ele>
        <time>2009-09-23T15:18:50Z</time>
      </trkpt>
      <trkpt lat="44.98906" lon="5.10269">
        <ele>278.26000976562</ele>
        <time>2009-09-23T15:19:02Z</time>
      </trkpt>
      <trkpt lat="44.98941" lon="5.10246">
        <ele>277.81698608398</ele>
        <time>2009-09-23T15:19:06Z</time>
      </trkpt>
      <trkpt lat="44.99019" lon="5.10232">
        <ele>275.14999389648</ele>
        <time>2009-09-23T15:19:14Z</time>
      </trkpt>
      <trkpt lat="44.99199" lon="5.10165">
        <ele>270.8330078125</ele>
        <time>2009-09-23T15:19:33Z</time>
      </trkpt>
      <trkpt lat="44.99265" lon="5.10112">
        <ele>268.22100830078</ele>
        <time>2009-09-23T15:19:41Z</time>
      </trkpt>
      <trkpt lat="44.99429" lon="5.09979">
        <ele>264.61499023438</ele>
        <time>2009-09-23T15:20:01Z</time>
      </trkpt>
      <trkpt lat="44.99603" lon="5.09831">
        <ele>259.67199707031</ele>
        <time>2009-09-23T15:20:23Z</time>
      </trkpt>
      <trkpt lat="44.99762" lon="5.09705">
        <ele>255.46600341797</ele>
        <time>2009-09-23T15:20:43Z</time>
      </trkpt>
      <trkpt lat="44.99912" lon="5.09628">
        <ele>252.63600158691</ele>
        <time>2009-09-23T15:21:01Z</time>
      </trkpt>
      <trkpt lat="45.0003" lon="5.09535">
        <ele>249.88999938965</ele>
        <time>2009-09-23T15:21:17Z</time>
      </trkpt>
      <trkpt lat="45.00194" lon="5.09395">
        <ele>246.5059967041</ele>
        <time>2009-09-23T15:21:40Z</time>
      </trkpt>
      <trkpt lat="45.00334" lon="5.09283">
        <ele>243.20700073242</ele>
        <time>2009-09-23T15:21:59Z</time>
      </trkpt>
      <trkpt lat="45.0043" lon="5.09229">
        <ele>241.09700012207</ele>
        <time>2009-09-23T15:22:11Z</time>
      </trkpt>
      <trkpt lat="45.00502" lon="5.09172">
        <ele>238.70799255371</ele>
        <time>2009-09-23T15:22:20Z</time>
      </trkpt>
      <trkpt lat="45.00518" lon="5.09161">
        <ele>237.36199951172</ele>
        <time>2009-09-23T15:22:22Z</time>
      </trkpt>
      <trkpt lat="45.00607" lon="5.09104">
        <ele>236.46099853516</ele>
        <time>2009-09-23T15:22:34Z</time>
      </trkpt>
      <trkpt lat="45.00689" lon="5.09065">
        <ele>235.42900085449</ele>
        <time>2009-09-23T15:22:45Z</time>
      </trkpt>
      <trkpt lat="45.00724" lon="5.09038">
        <ele>234.04400634766</ele>
        <time>2009-09-23T15:22:50Z</time>
      </trkpt>
      <trkpt lat="45.00859" lon="5.0893">
        <ele>230.58000183106</ele>
        <time>2009-09-23T15:23:07Z</time>
      </trkpt>
      <trkpt lat="45.00887" lon="5.08913">
        <ele>229.07800292969</ele>
        <time>2009-09-23T15:23:10Z</time>
      </trkpt>
      <trkpt lat="45.00925" lon="5.08897">
        <ele>227.36099243164</ele>
        <time>2009-09-23T15:23:14Z</time>
      </trkpt>
      <trkpt lat="45.00975" lon="5.08899">
        <ele>226.08700561523</ele>
        <time>2009-09-23T15:23:19Z</time>
      </trkpt>
      <trkpt lat="45.01031" lon="5.08874">
        <ele>225.0119934082</ele>
        <time>2009-09-23T15:23:25Z</time>
      </trkpt>
      <trkpt lat="45.01086" lon="5.08823">
        <ele>224.77200317383</ele>
        <time>2009-09-23T15:23:32Z</time>
      </trkpt>
      <trkpt lat="45.0114" lon="5.08712">
        <ele>224.31599426269</ele>
        <time>2009-09-23T15:23:43Z</time>
      </trkpt>
      <trkpt lat="45.01233" lon="5.08566">
        <ele>223.08000183106</ele>
        <time>2009-09-23T15:23:59Z</time>
      </trkpt>
      <trkpt lat="45.01303" lon="5.08452">
        <ele>222.18499755859</ele>
        <time>2009-09-23T15:24:11Z</time>
      </trkpt>
      <trkpt lat="45.01347" lon="5.08413">
        <ele>221.85499572754</ele>
        <time>2009-09-23T15:24:17Z</time>
      </trkpt>
      <trkpt lat="45.01379" lon="5.08399">
        <ele>221.83999633789</ele>
        <time>2009-09-23T15:24:21Z</time>
      </trkpt>
      <trkpt lat="45.01408" lon="5.08372">
        <ele>221.59399414062</ele>
        <time>2009-09-23T15:24:25Z</time>
      </trkpt>
      <trkpt lat="45.01532" lon="5.08223">
        <ele>219.07600402832</ele>
        <time>2009-09-23T15:24:42Z</time>
      </trkpt>
      <trkpt lat="45.01689" lon="5.08074">
        <ele>216.75999450684</ele>
        <time>2009-09-23T15:25:03Z</time>
      </trkpt>
      <trkpt lat="45.01806" lon="5.07921">
        <ele>215.39100646973</ele>
        <time>2009-09-23T15:25:20Z</time>
      </trkpt>
      <trkpt lat="45.0191" lon="5.07795">
        <ele>214.19500732422</ele>
        <time>2009-09-23T15:25:36Z</time>
      </trkpt>
      <trkpt lat="45.0206" lon="5.07694">
        <ele>212.21299743652</ele>
        <time>2009-09-23T15:25:57Z</time>
      </trkpt>
      <trkpt lat="45.02155" lon="5.07664">
        <ele>211.50700378418</ele>
        <time>2009-09-23T15:26:10Z</time>
      </trkpt>
      <trkpt lat="45.02205" lon="5.07669">
        <ele>208.46499633789</ele>
        <time>2009-09-23T15:26:16Z</time>
      </trkpt>
      <trkpt lat="45.02242" lon="5.07672">
        <ele>205.95399475098</ele>
        <time>2009-09-23T15:26:20Z</time>
      </trkpt>
      <trkpt lat="45.0227" lon="5.07666">
        <ele>204.7859954834</ele>
        <time>2009-09-23T15:26:23Z</time>
      </trkpt>
      <trkpt lat="45.0238" lon="5.07601">
        <ele>203.04400634766</ele>
        <time>2009-09-23T15:26:36Z</time>
      </trkpt>
      <trkpt lat="45.02466" lon="5.07549">
        <ele>201.39799499512</ele>
        <time>2009-09-23T15:26:47Z</time>
      </trkpt>
      <trkpt lat="45.02559" lon="5.07497">
        <ele>198.52000427246</ele>
        <time>2009-09-23T15:26:58Z</time>
      </trkpt>
      <trkpt lat="45.02567" lon="5.07495">
        <ele>198.16600036621</ele>
        <time>2009-09-23T15:26:59Z</time>
      </trkpt>
      <trkpt lat="45.02651" lon="5.07443">
        <ele>195.38600158691</ele>
        <time>2009-09-23T15:27:10Z</time>
      </trkpt>
      <trkpt lat="45.02676" lon="5.07474">
        <ele>194.08000183106</ele>
        <time>2009-09-23T15:27:15Z</time>
      </trkpt>
      <trkpt lat="45.02705" lon="5.0755">
        <ele>193.06100463867</ele>
        <time>2009-09-23T15:27:23Z</time>
      </trkpt>
      <trkpt lat="45.02815" lon="5.07603">
        <ele>191.54699707031</ele>
        <time>2009-09-23T15:27:36Z</time>
      </trkpt>
      <trkpt lat="45.02951" lon="5.07612">
        <ele>189.70599365234</ele>
        <time>2009-09-23T15:27:52Z</time>
      </trkpt>
      <trkpt lat="45.03033" lon="5.07605">
        <ele>188.99000549316</ele>
        <time>2009-09-23T15:28:02Z</time>
      </trkpt>
      <trkpt lat="45.03088" lon="5.07588">
        <ele>187.97500610352</ele>
        <time>2009-09-23T15:28:09Z</time>
      </trkpt>
      <trkpt lat="45.03104" lon="5.07584">
        <ele>187.59399414062</ele>
        <time>2009-09-23T15:28:11Z</time>
      </trkpt>
      <trkpt lat="45.03141" lon="5.07595">
        <ele>186.06599426269</ele>
        <time>2009-09-23T15:28:16Z</time>
      </trkpt>
      <trkpt lat="45.03149" lon="5.07611">
        <ele>185.96099853516</ele>
        <time>2009-09-23T15:28:18Z</time>
      </trkpt>
      <trkpt lat="45.03154" lon="5.0763">
        <ele>185.89599609375</ele>
        <time>2009-09-23T15:28:20Z</time>
      </trkpt>
      <trkpt lat="45.03189" lon="5.0764">
        <ele>185.77299499512</ele>
        <time>2009-09-23T15:28:26Z</time>
      </trkpt>
      <trkpt lat="45.03196" lon="5.07625">
        <ele>186.38400268555</ele>
        <time>2009-09-23T15:28:28Z</time>
      </trkpt>
      <trkpt lat="45.03218" lon="5.07593">
        <ele>187.09300231934</ele>
        <time>2009-09-23T15:28:33Z</time>
      </trkpt>
      <trkpt lat="45.03243" lon="5.07581">
        <ele>187.30200195312</ele>
        <time>2009-09-23T15:28:37Z</time>
      </trkpt>
      <trkpt lat="45.03368" lon="5.07582">
        <ele>185.57800292969</ele>
        <time>2009-09-23T15:28:54Z</time>
      </trkpt>
      <trkpt lat="45.03484" lon="5.07602">
        <ele>183.67999267578</ele>
        <time>2009-09-23T15:29:09Z</time>
      </trkpt>
      <trkpt lat="45.03516" lon="5.07601">
        <ele>184.55299377441</ele>
        <time>2009-09-23T15:29:14Z</time>
      </trkpt>
      <trkpt lat="45.03524" lon="5.07631">
        <ele>183.37399291992</ele>
        <time>2009-09-23T15:29:19Z</time>
      </trkpt>
      <trkpt lat="45.03521" lon="5.07639">
        <ele>183.13400268555</ele>
        <time>2009-09-23T15:29:20Z</time>
      </trkpt>
      <trkpt lat="45.03466" lon="5.07763">
        <ele>183.44700622559</ele>
        <time>2009-09-23T15:29:34Z</time>
      </trkpt>
      <trkpt lat="45.03443" lon="5.07818">
        <ele>183.61700439453</ele>
        <time>2009-09-23T15:29:40Z</time>
      </trkpt>
      <trkpt lat="45.03441" lon="5.0788">
        <ele>184.125</ele>
        <time>2009-09-23T15:29:46Z</time>
      </trkpt>
      <trkpt lat="45.03481" lon="5.08021">
        <ele>184.15100097656</ele>
        <time>2009-09-23T15:30:00Z</time>
      </trkpt>
      <trkpt lat="45.0354" lon="5.08154">
        <ele>185.67799377441</ele>
        <time>2009-09-23T15:30:16Z</time>
      </trkpt>
      <trkpt lat="45.03555" lon="5.08185">
        <ele>185.49699401856</ele>
        <time>2009-09-23T15:30:20Z</time>
      </trkpt>
      <trkpt lat="45.03555" lon="5.08246">
        <ele>186.05799865723</ele>
        <time>2009-09-23T15:30:27Z</time>
      </trkpt>
      <trkpt lat="45.03579" lon="5.08295">
        <ele>185.82499694824</ele>
        <time>2009-09-23T15:30:33Z</time>
      </trkpt>
      <trkpt lat="45.0358" lon="5.08326">
        <ele>186.14900207519</ele>
        <time>2009-09-23T15:30:36Z</time>
      </trkpt>
      <trkpt lat="45.03572" lon="5.08431">
        <ele>187.76800537109</ele>
        <time>2009-09-23T15:30:46Z</time>
      </trkpt>
      <trkpt lat="45.03569" lon="5.08474">
        <ele>185.74600219727</ele>
        <time>2009-09-23T15:30:50Z</time>
      </trkpt>
      <trkpt lat="45.03564" lon="5.08612">
        <ele>186.35200500488</ele>
        <time>2009-09-23T15:31:04Z</time>
      </trkpt>
      <trkpt lat="45.03593" lon="5.08643">
        <ele>185.65400695801</ele>
        <time>2009-09-23T15:31:10Z</time>
      </trkpt>
      <trkpt lat="45.036" lon="5.08644">
        <ele>185.97200012207</ele>
        <time>2009-09-23T15:31:11Z</time>
      </trkpt>
      <trkpt lat="45.03731" lon="5.08669">
        <ele>182.80599975586</ele>
        <time>2009-09-23T15:31:27Z</time>
      </trkpt>
      <trkpt lat="45.03852" lon="5.08701">
        <ele>177.36199951172</ele>
        <time>2009-09-23T15:31:41Z</time>
      </trkpt>
      <trkpt lat="45.03889" lon="5.08708">
        <ele>174.98500061035</ele>
        <time>2009-09-23T15:31:45Z</time>
      </trkpt>
      <trkpt lat="45.03952" lon="5.08695">
        <ele>171.43899536133</ele>
        <time>2009-09-23T15:31:51Z</time>
      </trkpt>
      <trkpt lat="45.04081" lon="5.0866">
        <ele>172.20399475098</ele>
        <time>2009-09-23T15:32:05Z</time>
      </trkpt>
      <trkpt lat="45.04181" lon="5.08628">
        <ele>173.22900390625</ele>
        <time>2009-09-23T15:32:18Z</time>
      </trkpt>
      <trkpt lat="45.04187" lon="5.08626">
        <ele>173.6190032959</ele>
        <time>2009-09-23T15:32:19Z</time>
      </trkpt>
      <trkpt lat="45.04215" lon="5.08608">
        <ele>174.85800170898</ele>
        <time>2009-09-23T15:32:24Z</time>
      </trkpt>
      <trkpt lat="45.04248" lon="5.0856">
        <ele>177.73500061035</ele>
        <time>2009-09-23T15:32:33Z</time>
      </trkpt>
      <trkpt lat="45.04271" lon="5.08505">
        <ele>180.74200439453</ele>
        <time>2009-09-23T15:32:43Z</time>
      </trkpt>
      <trkpt lat="45.04307" lon="5.08463">
        <ele>184.39399719238</ele>
        <time>2009-09-23T15:32:54Z</time>
      </trkpt>
      <trkpt lat="45.04315" lon="5.08456">
        <ele>185.16999816894</ele>
        <time>2009-09-23T15:32:56Z</time>
      </trkpt>
      <trkpt lat="45.04353" lon="5.08468">
        <ele>185.11399841309</ele>
        <time>2009-09-23T15:33:05Z</time>
      </trkpt>
      <trkpt lat="45.04358" lon="5.08489">
        <ele>186.16799926758</ele>
        <time>2009-09-23T15:33:08Z</time>
      </trkpt>
      <trkpt lat="45.04368" lon="5.08571">
        <ele>186.57099914551</ele>
        <time>2009-09-23T15:33:19Z</time>
      </trkpt>
      <trkpt lat="45.04401" lon="5.08604">
        <ele>185.71499633789</ele>
        <time>2009-09-23T15:33:26Z</time>
      </trkpt>
      <trkpt lat="45.04526" lon="5.08585">
        <ele>183.99000549316</ele>
        <time>2009-09-23T15:33:44Z</time>
      </trkpt>
      <trkpt lat="45.0463" lon="5.08565">
        <ele>186.15299987793</ele>
        <time>2009-09-23T15:34:01Z</time>
      </trkpt>
      <trkpt lat="45.04738" lon="5.08545">
        <ele>186.00900268555</ele>
        <time>2009-09-23T15:34:18Z</time>
      </trkpt>
      <trkpt lat="45.04786" lon="5.08536">
        <ele>186.04100036621</ele>
        <time>2009-09-23T15:34:25Z</time>
      </trkpt>
      <trkpt lat="45.04828" lon="5.08536">
        <ele>185.72200012207</ele>
        <time>2009-09-23T15:34:32Z</time>
      </trkpt>
      <trkpt lat="45.04849" lon="5.08522">
        <ele>185.24200439453</ele>
        <time>2009-09-23T15:34:36Z</time>
      </trkpt>
      <trkpt lat="45.04939" lon="5.0852">
        <ele>185.6549987793</ele>
        <time>2009-09-23T15:34:50Z</time>
      </trkpt>
      <trkpt lat="45.05049" lon="5.08513">
        <ele>186.46299743652</ele>
        <time>2009-09-23T15:35:08Z</time>
      </trkpt>
      <trkpt lat="45.05077" lon="5.08511">
        <ele>186.95399475098</ele>
        <time>2009-09-23T15:35:16Z</time>
      </trkpt>
      <trkpt lat="45.05082" lon="5.08499">
        <ele>186.9109954834</ele>
        <time>2009-09-23T15:35:22Z</time>
      </trkpt>
      <trkpt lat="45.05067" lon="5.08386">
        <ele>186.35400390625</ele>
        <time>2009-09-23T15:35:37Z</time>
      </trkpt>
      <trkpt lat="45.05061" lon="5.08321">
        <ele>186.17500305176</ele>
        <time>2009-09-23T15:35:44Z</time>
      </trkpt>
      <trkpt lat="45.05061" lon="5.08303">
        <ele>186.08500671387</ele>
        <time>2009-09-23T15:35:46Z</time>
      </trkpt>
      <trkpt lat="45.05054" lon="5.08268">
        <ele>185.97200012207</ele>
        <time>2009-09-23T15:35:50Z</time>
      </trkpt>
      <trkpt lat="45.05013" lon="5.081">
        <ele>185.08799743652</ele>
        <time>2009-09-23T15:36:07Z</time>
      </trkpt>
      <trkpt lat="45.05009" lon="5.08064">
        <ele>185.51100158691</ele>
        <time>2009-09-23T15:36:11Z</time>
      </trkpt>
      <trkpt lat="45.05013" lon="5.07995">
        <ele>184.79899597168</ele>
        <time>2009-09-23T15:36:18Z</time>
      </trkpt>
      <trkpt lat="45.05024" lon="5.0795">
        <ele>184.93400573731</ele>
        <time>2009-09-23T15:36:24Z</time>
      </trkpt>
      <trkpt lat="45.05041" lon="5.07904">
        <ele>185.22099304199</ele>
        <time>2009-09-23T15:36:30Z</time>
      </trkpt>
      <trkpt lat="45.05078" lon="5.07839">
        <ele>182.99499511719</ele>
        <time>2009-09-23T15:36:38Z</time>
      </trkpt>
      <trkpt lat="45.05113" lon="5.07817">
        <ele>181.3690032959</ele>
        <time>2009-09-23T15:36:42Z</time>
      </trkpt>
      <trkpt lat="45.0519" lon="5.07763">
        <ele>182.17100524902</ele>
        <time>2009-09-23T15:36:51Z</time>
      </trkpt>
      <trkpt lat="45.05215" lon="5.07746">
        <ele>183.60899353027</ele>
        <time>2009-09-23T15:36:55Z</time>
      </trkpt>
      <trkpt lat="45.05267" lon="5.07718">
        <ele>185.26400756836</ele>
        <time>2009-09-23T15:37:05Z</time>
      </trkpt>
      <trkpt lat="45.05271" lon="5.07712">
        <ele>185.60499572754</ele>
        <time>2009-09-23T15:37:06Z</time>
      </trkpt>
      <trkpt lat="45.05349" lon="5.07604">
        <ele>186.32899475098</ele>
        <time>2009-09-23T15:37:23Z</time>
      </trkpt>
      <trkpt lat="45.05427" lon="5.07462">
        <ele>186.05499267578</ele>
        <time>2009-09-23T15:37:41Z</time>
      </trkpt>
      <trkpt lat="45.05524" lon="5.07266">
        <ele>185.21200561523</ele>
        <time>2009-09-23T15:38:03Z</time>
      </trkpt>
      <trkpt lat="45.0557" lon="5.0718">
        <ele>184.12899780273</ele>
        <time>2009-09-23T15:38:13Z</time>
      </trkpt>
      <trkpt lat="45.05594" lon="5.07143">
        <ele>184.32299804688</ele>
        <time>2009-09-23T15:38:18Z</time>
      </trkpt>
      <trkpt lat="45.05639" lon="5.06994">
        <ele>183.02900695801</ele>
        <time>2009-09-23T15:38:33Z</time>
      </trkpt>
      <trkpt lat="45.05667" lon="5.06788">
        <ele>182.69000244141</ele>
        <time>2009-09-23T15:38:51Z</time>
      </trkpt>
      <trkpt lat="45.05714" lon="5.06566">
        <ele>181.74200439453</ele>
        <time>2009-09-23T15:39:12Z</time>
      </trkpt>
      <trkpt lat="45.0574" lon="5.06499">
        <ele>182.51800537109</ele>
        <time>2009-09-23T15:39:20Z</time>
      </trkpt>
      <trkpt lat="45.05758" lon="5.06476">
        <ele>182.68400573731</ele>
        <time>2009-09-23T15:39:25Z</time>
      </trkpt>
      <trkpt lat="45.05785" lon="5.06439">
        <ele>182.55299377441</ele>
        <time>2009-09-23T15:39:32Z</time>
      </trkpt>
      <trkpt lat="45.05835" lon="5.06429">
        <ele>184.48899841309</ele>
        <time>2009-09-23T15:39:39Z</time>
      </trkpt>
      <trkpt lat="45.05841" lon="5.06428">
        <ele>184.3869934082</ele>
        <time>2009-09-23T15:39:40Z</time>
      </trkpt>
      <trkpt lat="45.05871" lon="5.06414">
        <ele>184.48199462891</ele>
        <time>2009-09-23T15:39:45Z</time>
      </trkpt>
      <trkpt lat="45.06006" lon="5.06365">
        <ele>183.7380065918</ele>
        <time>2009-09-23T15:40:04Z</time>
      </trkpt>
      <trkpt lat="45.06108" lon="5.06351">
        <ele>184.31599426269</ele>
        <time>2009-09-23T15:40:18Z</time>
      </trkpt>
      <trkpt lat="45.06231" lon="5.06344">
        <ele>183.8869934082</ele>
        <time>2009-09-23T15:40:34Z</time>
      </trkpt>
      <trkpt lat="45.06345" lon="5.06303">
        <ele>183.97799682617</ele>
        <time>2009-09-23T15:40:49Z</time>
      </trkpt>
      <trkpt lat="45.06497" lon="5.06218">
        <ele>182.90400695801</ele>
        <time>2009-09-23T15:41:09Z</time>
      </trkpt>
      <trkpt lat="45.06629" lon="5.06149">
        <ele>183.46299743652</ele>
        <time>2009-09-23T15:41:27Z</time>
      </trkpt>
      <trkpt lat="45.06745" lon="5.0607">
        <ele>184.22399902344</ele>
        <time>2009-09-23T15:41:43Z</time>
      </trkpt>
      <trkpt lat="45.06792" lon="5.06008">
        <ele>184.72700500488</ele>
        <time>2009-09-23T15:41:51Z</time>
      </trkpt>
      <trkpt lat="45.06804" lon="5.05954">
        <ele>184.13800048828</ele>
        <time>2009-09-23T15:41:56Z</time>
      </trkpt>
      <trkpt lat="45.06793" lon="5.0581">
        <ele>183.57099914551</ele>
        <time>2009-09-23T15:42:08Z</time>
      </trkpt>
      <trkpt lat="45.06808" lon="5.05779">
        <ele>183.39500427246</ele>
        <time>2009-09-23T15:42:12Z</time>
      </trkpt>
      <trkpt lat="45.06913" lon="5.05702">
        <ele>182.76800537109</ele>
        <time>2009-09-23T15:42:27Z</time>
      </trkpt>
      <trkpt lat="45.06943" lon="5.05667">
        <ele>183.07099914551</ele>
        <time>2009-09-23T15:42:32Z</time>
      </trkpt>
      <trkpt lat="45.06983" lon="5.05637">
        <ele>183.66000366211</ele>
        <time>2009-09-23T15:42:38Z</time>
      </trkpt>
      <trkpt lat="45.07037" lon="5.05541">
        <ele>184.2859954834</ele>
        <time>2009-09-23T15:42:50Z</time>
      </trkpt>
      <trkpt lat="45.07049" lon="5.05515">
        <ele>184.44700622559</ele>
        <time>2009-09-23T15:42:53Z</time>
      </trkpt>
      <trkpt lat="45.07091" lon="5.05429">
        <ele>186.35099792481</ele>
        <time>2009-09-23T15:43:05Z</time>
      </trkpt>
      <trkpt lat="45.07095" lon="5.05419">
        <ele>186.33599853516</ele>
        <time>2009-09-23T15:43:08Z</time>
      </trkpt>
      <trkpt lat="45.07098" lon="5.05379">
        <ele>186.62600708008</ele>
        <time>2009-09-23T15:43:14Z</time>
      </trkpt>
      <trkpt lat="45.071" lon="5.05311">
        <ele>188.44200134277</ele>
        <time>2009-09-23T15:43:23Z</time>
      </trkpt>
      <trkpt lat="45.07111" lon="5.05288">
        <ele>188.86399841309</ele>
        <time>2009-09-23T15:43:27Z</time>
      </trkpt>
      <trkpt lat="45.07119" lon="5.05278">
        <ele>189.75700378418</ele>
        <time>2009-09-23T15:43:29Z</time>
      </trkpt>
      <trkpt lat="45.07182" lon="5.05196">
        <ele>193.32699584961</ele>
        <time>2009-09-23T15:43:45Z</time>
      </trkpt>
      <trkpt lat="45.07235" lon="5.05125">
        <ele>196.69700622559</ele>
        <time>2009-09-23T15:44:00Z</time>
      </trkpt>
      <trkpt lat="45.07241" lon="5.05117">
        <ele>196.6549987793</ele>
        <time>2009-09-23T15:44:02Z</time>
      </trkpt>
      <trkpt lat="45.07267" lon="5.05085">
        <ele>198.23199462891</ele>
        <time>2009-09-23T15:44:11Z</time>
      </trkpt>
      <trkpt lat="45.07276" lon="5.05073">
        <ele>198.09399414062</ele>
        <time>2009-09-23T15:44:14Z</time>
      </trkpt>
      <trkpt lat="45.0732" lon="5.0501">
        <ele>199.99000549316</ele>
        <time>2009-09-23T15:44:29Z</time>
      </trkpt>
      <trkpt lat="45.07338" lon="5.04994">
        <ele>200.12899780273</ele>
        <time>2009-09-23T15:44:34Z</time>
      </trkpt>
      <trkpt lat="45.07415" lon="5.04934">
        <ele>201.13900756836</ele>
        <time>2009-09-23T15:44:51Z</time>
      </trkpt>
      <trkpt lat="45.07511" lon="5.04907">
        <ele>201.31100463867</ele>
        <time>2009-09-23T15:45:07Z</time>
      </trkpt>
      <trkpt lat="45.07652" lon="5.04891">
        <ele>201.28100585938</ele>
        <time>2009-09-23T15:45:28Z</time>
      </trkpt>
      <trkpt lat="45.07811" lon="5.04876">
        <ele>201.30499267578</ele>
        <time>2009-09-23T15:45:51Z</time>
      </trkpt>
      <trkpt lat="45.07946" lon="5.04857">
        <ele>203.04899597168</ele>
        <time>2009-09-23T15:46:12Z</time>
      </trkpt>
      <trkpt lat="45.08086" lon="5.0484">
        <ele>202.72200012207</ele>
        <time>2009-09-23T15:46:33Z</time>
      </trkpt>
      <trkpt lat="45.08216" lon="5.04825">
        <ele>200.90600585938</ele>
        <time>2009-09-23T15:46:50Z</time>
      </trkpt>
      <trkpt lat="45.08374" lon="5.04805">
        <ele>198.97599792481</ele>
        <time>2009-09-23T15:47:10Z</time>
      </trkpt>
      <trkpt lat="45.08444" lon="5.04802">
        <ele>199.78500366211</ele>
        <time>2009-09-23T15:47:20Z</time>
      </trkpt>
      <trkpt lat="45.08486" lon="5.04803">
        <ele>200.13999938965</ele>
        <time>2009-09-23T15:47:27Z</time>
      </trkpt>
      <trkpt lat="45.08496" lon="5.04794">
        <ele>199.92100524902</ele>
        <time>2009-09-23T15:47:29Z</time>
      </trkpt>
      <trkpt lat="45.08622" lon="5.04773">
        <ele>202.05299377441</ele>
        <time>2009-09-23T15:47:48Z</time>
      </trkpt>
      <trkpt lat="45.08702" lon="5.04766">
        <ele>203.21699523926</ele>
        <time>2009-09-23T15:48:02Z</time>
      </trkpt>
      <trkpt lat="45.08774" lon="5.04758">
        <ele>203.50300598144</ele>
        <time>2009-09-23T15:48:14Z</time>
      </trkpt>
      <trkpt lat="45.08884" lon="5.04743">
        <ele>204.58000183106</ele>
        <time>2009-09-23T15:48:32Z</time>
      </trkpt>
      <trkpt lat="45.09002" lon="5.04728">
        <ele>204.96600341797</ele>
        <time>2009-09-23T15:48:50Z</time>
      </trkpt>
      <trkpt lat="45.09088" lon="5.04728">
        <ele>207.56900024414</ele>
        <time>2009-09-23T15:49:06Z</time>
      </trkpt>
      <trkpt lat="45.09148" lon="5.04735">
        <ele>209.01699829102</ele>
        <time>2009-09-23T15:49:18Z</time>
      </trkpt>
      <trkpt lat="45.09169" lon="5.04765">
        <ele>208.96499633789</ele>
        <time>2009-09-23T15:49:24Z</time>
      </trkpt>
      <trkpt lat="45.09174" lon="5.04782">
        <ele>208.56599426269</ele>
        <time>2009-09-23T15:49:26Z</time>
      </trkpt>
      <trkpt lat="45.0919" lon="5.04817">
        <ele>207.67900085449</ele>
        <time>2009-09-23T15:49:32Z</time>
      </trkpt>
      <trkpt lat="45.09211" lon="5.04806">
        <ele>208.0299987793</ele>
        <time>2009-09-23T15:49:36Z</time>
      </trkpt>
      <trkpt lat="45.09279" lon="5.04789">
        <ele>208.95399475098</ele>
        <time>2009-09-23T15:49:48Z</time>
      </trkpt>
      <trkpt lat="45.09311" lon="5.04762">
        <ele>209.67300415039</ele>
        <time>2009-09-23T15:49:54Z</time>
      </trkpt>
      <trkpt lat="45.09379" lon="5.04697">
        <ele>211.92399597168</ele>
        <time>2009-09-23T15:50:06Z</time>
      </trkpt>
      <trkpt lat="45.09449" lon="5.04664">
        <ele>213.19099426269</ele>
        <time>2009-09-23T15:50:18Z</time>
      </trkpt>
      <trkpt lat="45.09503" lon="5.04639">
        <ele>214.90699768066</ele>
        <time>2009-09-23T15:50:28Z</time>
      </trkpt>
      <trkpt lat="45.09566" lon="5.04598">
        <ele>216.16299438477</ele>
        <time>2009-09-23T15:50:40Z</time>
      </trkpt>
      <trkpt lat="45.09588" lon="5.04567">
        <ele>216.69500732422</ele>
        <time>2009-09-23T15:50:45Z</time>
      </trkpt>
      <trkpt lat="45.09606" lon="5.04535">
        <ele>217.42199707031</ele>
        <time>2009-09-23T15:50:50Z</time>
      </trkpt>
      <trkpt lat="45.09618" lon="5.04523">
        <ele>218.29699707031</ele>
        <time>2009-09-23T15:50:53Z</time>
      </trkpt>
      <trkpt lat="45.09626" lon="5.04474">
        <ele>218.92700195312</ele>
        <time>2009-09-23T15:51:00Z</time>
      </trkpt>
      <trkpt lat="45.09632" lon="5.04456">
        <ele>219.25900268555</ele>
        <time>2009-09-23T15:51:03Z</time>
      </trkpt>
      <trkpt lat="45.09669" lon="5.0435">
        <ele>220.94900512695</ele>
        <time>2009-09-23T15:51:19Z</time>
      </trkpt>
      <trkpt lat="45.0974" lon="5.0427">
        <ele>219.03199768066</ele>
        <time>2009-09-23T15:51:32Z</time>
      </trkpt>
      <trkpt lat="45.09855" lon="5.04151">
        <ele>218.11399841309</ele>
        <time>2009-09-23T15:51:51Z</time>
      </trkpt>
      <trkpt lat="45.09871" lon="5.04116">
        <ele>217.80900573731</ele>
        <time>2009-09-23T15:51:55Z</time>
      </trkpt>
      <trkpt lat="45.09891" lon="5.04022">
        <ele>217.69799804688</ele>
        <time>2009-09-23T15:52:04Z</time>
      </trkpt>
      <trkpt lat="45.09885" lon="5.0397">
        <ele>217.87199401856</ele>
        <time>2009-09-23T15:52:09Z</time>
      </trkpt>
      <trkpt lat="45.09819" lon="5.03796">
        <ele>218.32099914551</ele>
        <time>2009-09-23T15:52:28Z</time>
      </trkpt>
      <trkpt lat="45.09797" lon="5.03681">
        <ele>220.97700500488</ele>
        <time>2009-09-23T15:52:41Z</time>
      </trkpt>
      <trkpt lat="45.09795" lon="5.03591">
        <ele>221.70799255371</ele>
        <time>2009-09-23T15:52:52Z</time>
      </trkpt>
      <trkpt lat="45.09808" lon="5.03557">
        <ele>220.99099731445</ele>
        <time>2009-09-23T15:52:56Z</time>
      </trkpt>
      <trkpt lat="45.09895" lon="5.03419">
        <ele>219.96000671387</ele>
        <time>2009-09-23T15:53:13Z</time>
      </trkpt>
      <trkpt lat="45.09929" lon="5.03307">
        <ele>222.84800720215</ele>
        <time>2009-09-23T15:53:26Z</time>
      </trkpt>
      <trkpt lat="45.09971" lon="5.03159">
        <ele>227.31500244141</ele>
        <time>2009-09-23T15:53:46Z</time>
      </trkpt>
      <trkpt lat="45.09977" lon="5.03137">
        <ele>228.05000305176</ele>
        <time>2009-09-23T15:53:49Z</time>
      </trkpt>
      <trkpt lat="45.10007" lon="5.0303">
        <ele>230.47300720215</ele>
        <time>2009-09-23T15:54:04Z</time>
      </trkpt>
      <trkpt lat="45.10026" lon="5.02962">
        <ele>232.57600402832</ele>
        <time>2009-09-23T15:54:19Z</time>
      </trkpt>
      <trkpt lat="45.10052" lon="5.02876">
        <ele>236.80499267578</ele>
        <time>2009-09-23T15:54:38Z</time>
      </trkpt>
      <trkpt lat="45.1007" lon="5.02806">
        <ele>240.25700378418</ele>
        <time>2009-09-23T15:54:54Z</time>
      </trkpt>
      <trkpt lat="45.10069" lon="5.02747">
        <ele>242.86199951172</ele>
        <time>2009-09-23T15:55:06Z</time>
      </trkpt>
      <trkpt lat="45.10039" lon="5.027">
        <ele>245.65800476074</ele>
        <time>2009-09-23T15:55:20Z</time>
      </trkpt>
      <trkpt lat="45.10013" lon="5.02668">
        <ele>247.63200378418</ele>
        <time>2009-09-23T15:55:30Z</time>
      </trkpt>
      <trkpt lat="45.09993" lon="5.02631">
        <ele>250.08999633789</ele>
        <time>2009-09-23T15:55:40Z</time>
      </trkpt>
      <trkpt lat="45.09977" lon="5.0259">
        <ele>252.22799682617</ele>
        <time>2009-09-23T15:55:50Z</time>
      </trkpt>
      <trkpt lat="45.09954" lon="5.02551">
        <ele>254.22300720215</ele>
        <time>2009-09-23T15:56:01Z</time>
      </trkpt>
      <trkpt lat="45.09919" lon="5.02512">
        <ele>257.14801025391</ele>
        <time>2009-09-23T15:56:14Z</time>
      </trkpt>
      <trkpt lat="45.099" lon="5.02464">
        <ele>259.8210144043</ele>
        <time>2009-09-23T15:56:26Z</time>
      </trkpt>
      <trkpt lat="45.09883" lon="5.02424">
        <ele>261.99899291992</ele>
        <time>2009-09-23T15:56:35Z</time>
      </trkpt>
      <trkpt lat="45.09871" lon="5.02374">
        <ele>262.29598999023</ele>
        <time>2009-09-23T15:56:43Z</time>
      </trkpt>
      <trkpt lat="45.09859" lon="5.02312">
        <ele>259.9580078125</ele>
        <time>2009-09-23T15:56:51Z</time>
      </trkpt>
      <trkpt lat="45.09856" lon="5.02257">
        <ele>257.17199707031</ele>
        <time>2009-09-23T15:56:56Z</time>
      </trkpt>
      <trkpt lat="45.09882" lon="5.02157">
        <ele>252.83200073242</ele>
        <time>2009-09-23T15:57:04Z</time>
      </trkpt>
      <trkpt lat="45.09901" lon="5.02102">
        <ele>250.19200134277</ele>
        <time>2009-09-23T15:57:08Z</time>
      </trkpt>
      <trkpt lat="45.09926" lon="5.02029">
        <ele>247.56300354004</ele>
        <time>2009-09-23T15:57:13Z</time>
      </trkpt>
      <trkpt lat="45.09972" lon="5.0189">
        <ele>244.06100463867</ele>
        <time>2009-09-23T15:57:23Z</time>
      </trkpt>
      <trkpt lat="45.10018" lon="5.01752">
        <ele>241.02200317383</ele>
        <time>2009-09-23T15:57:33Z</time>
      </trkpt>
      <trkpt lat="45.10057" lon="5.01589">
        <ele>240.44000244141</ele>
        <time>2009-09-23T15:57:46Z</time>
      </trkpt>
      <trkpt lat="45.10072" lon="5.01378">
        <ele>241.33399963379</ele>
        <time>2009-09-23T15:58:03Z</time>
      </trkpt>
      <trkpt lat="45.10081" lon="5.01244">
        <ele>241.11399841309</ele>
        <time>2009-09-23T15:58:15Z</time>
      </trkpt>
      <trkpt lat="45.10087" lon="5.01207">
        <ele>241.31399536133</ele>
        <time>2009-09-23T15:58:18Z</time>
      </trkpt>
      <trkpt lat="45.10109" lon="5.01134">
        <ele>240.84100341797</ele>
        <time>2009-09-23T15:58:24Z</time>
      </trkpt>
      <trkpt lat="45.10126" lon="5.01099">
        <ele>240.21099853516</ele>
        <time>2009-09-23T15:58:27Z</time>
      </trkpt>
      <trkpt lat="45.10177" lon="5.01019">
        <ele>238.34800720215</ele>
        <time>2009-09-23T15:58:35Z</time>
      </trkpt>
      <trkpt lat="45.10263" lon="5.00922">
        <ele>236.85099792481</ele>
        <time>2009-09-23T15:58:46Z</time>
      </trkpt>
      <trkpt lat="45.10353" lon="5.00851">
        <ele>235.66299438477</ele>
        <time>2009-09-23T15:58:57Z</time>
      </trkpt>
      <trkpt lat="45.10497" lon="5.00739">
        <ele>235.86999511719</ele>
        <time>2009-09-23T15:59:17Z</time>
      </trkpt>
      <trkpt lat="45.10571" lon="5.00679">
        <ele>238.97200012207</ele>
        <time>2009-09-23T15:59:31Z</time>
      </trkpt>
      <trkpt lat="45.10616" lon="5.00643">
        <ele>240.89399719238</ele>
        <time>2009-09-23T15:59:42Z</time>
      </trkpt>
      <trkpt lat="45.1064" lon="5.00627">
        <ele>242.38900756836</ele>
        <time>2009-09-23T15:59:48Z</time>
      </trkpt>
      <trkpt lat="45.10648" lon="5.00622">
        <ele>242.89300537109</ele>
        <time>2009-09-23T15:59:50Z</time>
      </trkpt>
      <trkpt lat="45.10716" lon="5.00595">
        <ele>246.72399902344</ele>
        <time>2009-09-23T16:00:07Z</time>
      </trkpt>
      <trkpt lat="45.10784" lon="5.00587">
        <ele>250.73199462891</ele>
        <time>2009-09-23T16:00:22Z</time>
      </trkpt>
      <trkpt lat="45.10853" lon="5.00579">
        <ele>255.00999450684</ele>
        <time>2009-09-23T16:00:36Z</time>
      </trkpt>
      <trkpt lat="45.10947" lon="5.00541">
        <ele>258.2799987793</ele>
        <time>2009-09-23T16:00:50Z</time>
      </trkpt>
      <trkpt lat="45.11067" lon="5.00454">
        <ele>252.41400146484</ele>
        <time>2009-09-23T16:01:05Z</time>
      </trkpt>
      <trkpt lat="45.11148" lon="5.00407">
        <ele>247.86000061035</ele>
        <time>2009-09-23T16:01:13Z</time>
      </trkpt>
      <trkpt lat="45.11222" lon="5.00368">
        <ele>244.13000488281</ele>
        <time>2009-09-23T16:01:20Z</time>
      </trkpt>
      <trkpt lat="45.11314" lon="5.0031">
        <ele>240.27200317383</ele>
        <time>2009-09-23T16:01:29Z</time>
      </trkpt>
      <trkpt lat="45.11432" lon="5.00206">
        <ele>239.26699829102</ele>
        <time>2009-09-23T16:01:43Z</time>
      </trkpt>
      <trkpt lat="45.11579" lon="5.0006">
        <ele>238.35899353027</ele>
        <time>2009-09-23T16:02:05Z</time>
      </trkpt>
      <trkpt lat="45.1168" lon="4.99935">
        <ele>232.59199523926</ele>
        <time>2009-09-23T16:02:20Z</time>
      </trkpt>
      <trkpt lat="45.1175" lon="4.999">
        <ele>227.62899780273</ele>
        <time>2009-09-23T16:02:27Z</time>
      </trkpt>
      <trkpt lat="45.11782" lon="4.99887">
        <ele>225.41799926758</ele>
        <time>2009-09-23T16:02:30Z</time>
      </trkpt>
      <trkpt lat="45.11826" lon="4.99869">
        <ele>222.5059967041</ele>
        <time>2009-09-23T16:02:34Z</time>
      </trkpt>
      <trkpt lat="45.11926" lon="4.99796">
        <ele>216.83700561523</ele>
        <time>2009-09-23T16:02:44Z</time>
      </trkpt>
      <trkpt lat="45.12001" lon="4.99674">
        <ele>215.91900634766</ele>
        <time>2009-09-23T16:02:55Z</time>
      </trkpt>
      <trkpt lat="45.12078" lon="4.99535">
        <ele>216.82499694824</ele>
        <time>2009-09-23T16:03:09Z</time>
      </trkpt>
      <trkpt lat="45.12142" lon="4.99401">
        <ele>214.38299560547</ele>
        <time>2009-09-23T16:03:21Z</time>
      </trkpt>
      <trkpt lat="45.12186" lon="4.99233">
        <ele>214.54299926758</ele>
        <time>2009-09-23T16:03:35Z</time>
      </trkpt>
      <trkpt lat="45.12218" lon="4.99107">
        <ele>216.13499450684</ele>
        <time>2009-09-23T16:03:47Z</time>
      </trkpt>
      <trkpt lat="45.12236" lon="4.99069">
        <ele>217.80099487305</ele>
        <time>2009-09-23T16:03:52Z</time>
      </trkpt>
      <trkpt lat="45.12222" lon="4.9904">
        <ele>217.21600341797</ele>
        <time>2009-09-23T16:03:58Z</time>
      </trkpt>
      <trkpt lat="45.12163" lon="4.98992">
        <ele>213.75900268555</ele>
        <time>2009-09-23T16:04:07Z</time>
      </trkpt>
      <trkpt lat="45.12101" lon="4.98895">
        <ele>210.84599304199</ele>
        <time>2009-09-23T16:04:17Z</time>
      </trkpt>
      <trkpt lat="45.1204" lon="4.98727">
        <ele>209.41799926758</ele>
        <time>2009-09-23T16:04:32Z</time>
      </trkpt>
      <trkpt lat="45.12021" lon="4.98559">
        <ele>209.34800720215</ele>
        <time>2009-09-23T16:04:47Z</time>
      </trkpt>
      <trkpt lat="45.12035" lon="4.98443">
        <ele>209.47700500488</ele>
        <time>2009-09-23T16:04:58Z</time>
      </trkpt>
      <trkpt lat="45.12057" lon="4.98395">
        <ele>209.64399719238</ele>
        <time>2009-09-23T16:05:07Z</time>
      </trkpt>
      <trkpt lat="45.12056" lon="4.9836">
        <ele>209.25199890137</ele>
        <time>2009-09-23T16:05:11Z</time>
      </trkpt>
      <trkpt lat="45.12075" lon="4.98209">
        <ele>207.70599365234</ele>
        <time>2009-09-23T16:05:25Z</time>
      </trkpt>
      <trkpt lat="45.12055" lon="4.98065">
        <ele>206.7380065918</ele>
        <time>2009-09-23T16:05:38Z</time>
      </trkpt>
      <trkpt lat="45.12009" lon="4.97882">
        <ele>204.82699584961</ele>
        <time>2009-09-23T16:05:55Z</time>
      </trkpt>
      <trkpt lat="45.1196" lon="4.97597">
        <ele>203.18600463867</ele>
        <time>2009-09-23T16:06:20Z</time>
      </trkpt>
      <trkpt lat="45.11959" lon="4.97586">
        <ele>203.17100524902</ele>
        <time>2009-09-23T16:06:21Z</time>
      </trkpt>
      <trkpt lat="45.11924" lon="4.97392">
        <ele>201.42199707031</ele>
        <time>2009-09-23T16:06:38Z</time>
      </trkpt>
      <trkpt lat="45.11893" lon="4.97213">
        <ele>201.36399841309</ele>
        <time>2009-09-23T16:06:54Z</time>
      </trkpt>
      <trkpt lat="45.11883" lon="4.97151">
        <ele>201.77499389648</ele>
        <time>2009-09-23T16:07:00Z</time>
      </trkpt>
      <trkpt lat="45.11899" lon="4.97084">
        <ele>202.77699279785</ele>
        <time>2009-09-23T16:07:09Z</time>
      </trkpt>
      <trkpt lat="45.11894" lon="4.9705">
        <ele>203.1130065918</ele>
        <time>2009-09-23T16:07:15Z</time>
      </trkpt>
      <trkpt lat="45.11818" lon="4.96955">
        <ele>202.46000671387</ele>
        <time>2009-09-23T16:07:31Z</time>
      </trkpt>
      <trkpt lat="45.11773" lon="4.96887">
        <ele>202.46899414062</ele>
        <time>2009-09-23T16:07:40Z</time>
      </trkpt>
      <trkpt lat="45.11765" lon="4.96851">
        <ele>201.58200073242</ele>
        <time>2009-09-23T16:07:44Z</time>
      </trkpt>
      <trkpt lat="45.11747" lon="4.96817">
        <ele>201.83299255371</ele>
        <time>2009-09-23T16:07:49Z</time>
      </trkpt>
      <trkpt lat="45.11682" lon="4.96741">
        <ele>201.37699890137</ele>
        <time>2009-09-23T16:08:00Z</time>
      </trkpt>
      <trkpt lat="45.11625" lon="4.96605">
        <ele>200.19700622559</ele>
        <time>2009-09-23T16:08:13Z</time>
      </trkpt>
      <trkpt lat="45.11584" lon="4.965">
        <ele>200.04299926758</ele>
        <time>2009-09-23T16:08:24Z</time>
      </trkpt>
      <trkpt lat="45.11582" lon="4.96454">
        <ele>201.32200622559</ele>
        <time>2009-09-23T16:08:30Z</time>
      </trkpt>
      <trkpt lat="45.11577" lon="4.96443">
        <ele>201.54299926758</ele>
        <time>2009-09-23T16:08:36Z</time>
      </trkpt>
      <trkpt lat="45.11561" lon="4.96431">
        <ele>201.03399658203</ele>
        <time>2009-09-23T16:09:16Z</time>
      </trkpt>
      <trkpt lat="45.11568" lon="4.96426">
        <ele>201.9940032959</ele>
        <time>2009-09-23T16:09:23Z</time>
      </trkpt>
      <trkpt lat="45.11568" lon="4.96429">
        <ele>201.78700256348</ele>
        <time>2009-09-23T16:09:30Z</time>
      </trkpt>
      <trkpt lat="45.11568" lon="4.96429">
        <ele>202.11599731445</ele>
        <time>2009-09-23T16:09:31Z</time>
      </trkpt>
    </trkseg>
  </trk>
</gpx>